GFSSW_sfc_rhum_003.txt.gz
RH
78 78 79 80 80 80 80 81 81 81 82 83 84 86 88 89 85 48 20 20 22 79 81 21 20 15 16 15 13 11 21 15 15 26 14 12 14 16 17 22 22 23 27 31 33
77 78 79 80 79 80 81 81 81 82 82 83 85 85 88 88 31 13 28 63 74 75 21 16 15 14 14 13 12 14 41 17 10 17 13 14 13 16 20 23 24 27 25 31 34
77 78 79 80 80 80 81 81 81 82 82 83 83 84 87 72 18 8 60 65 79 63 9 10 9 12 14 10 10 10 27 17 11 12 12 13 14 14 18 24 24 29 30 33 35
77 78 79 79 80 80 80 81 82 83 82 82 82 83 83 34 13 11 63 66 76 24 12 9 9 10 12 10 7 11 14 13 12 12 13 13 12 14 16 17 18 23 26 31 35
77 78 79 79 79 80 80 81 82 82 82 81 81 81 51 17 10 20 66 58 25 15 14 8 9 8 10 7 8 9 10 9 9 11 12 13 14 14 15 15 17 22 26 30 32
77 79 81 81 78 78 80 84 83 82 82 81 81 82 36 15 5 9 10 14 11 12 9 7 7 6 7 7 8 8 8 8 9 10 12 15 14 16 15 16 19 24 27 28 29
79 80 81 80 77 77 82 85 84 82 82 82 79 52 21 12 5 6 10 8 8 9 8 6 5 5 5 7 6 7 9 10 10 10 12 12 16 16 14 18 21 24 27 27 28
78 80 80 79 77 80 86 88 84 85 82 82 80 38 18 7 7 6 7 7 7 7 7 5 4 5 5 6 7 8 9 11 10 10 11 13 20 17 15 17 20 23 27 28 28
80 81 81 84 85 85 86 86 85 85 76 76 52 32 14 24 11 8 8 9 7 7 8 6 6 6 6 7 9 9 11 11 13 10 13 15 21 17 17 16 19 22 24 26 28
83 84 84 85 84 85 84 89 67 83 67 43 33 30 15 10 8 8 8 7 6 8 8 8 7 7 7 8 12 13 11 11 16 11 14 15 22 17 17 18 16 20 21 26 26
84 85 85 85 85 84 63 19 28 39 32 16 13 10 8 7 8 8 8 7 6 9 9 7 6 7 8 8 9 9 10 10 10 10 14 16 16 17 18 18 18 18 20 23 25
84 85 85 84 84 83 57 11 10 10 11 6 7 7 5 5 7 7 6 8 7 10 8 7 7 6 6 7 8 9 10 11 10 11 12 14 16 14 20 20 18 18 18 20 22
85 85 85 86 80 58 11 12 9 8 10 6 5 5 5 4 6 6 5 8 8 8 8 6 5 5 6 8 9 9 10 10 11 15 14 14 19 15 14 19 20 17 17 18 20
85 85 85 87 43 13 12 11 10 8 12 6 6 6 6 6 6 5 5 5 8 8 6 6 4 4 6 8 8 10 8 9 10 16 21 12 19 18 14 15 20 19 18 17 19
86 85 85 86 34 18 10 8 8 10 15 6 7 6 7 9 9 8 6 6 8 8 7 7 5 6 6 6 7 9 7 9 10 13 26 14 15 18 13 15 16 18 19 17 17
86 84 84 32 29 20 13 11 12 14 17 8 8 10 10 8 7 8 7 6 6 7 7 6 4 4 5 5 6 6 8 9 9 11 17 15 17 18 18 14 13 14 17 19 18
86 85 74 38 17 11 11 11 13 14 8 8 7 7 8 8 8 9 9 9 9 12 12 8 6 5 4 6 6 7 9 14 16 15 16 12 16 29 13 10 11 11 11 16 18
87 80 48 25 19 17 16 12 19 10 9 5 6 7 8 6 7 8 10 9 8 8 8 10 10 7 5 5 7 8 8 12 25 17 14 12 16 13 10 9 8 8 8 10 16
84 24 18 13 16 19 16 13 13 11 7 6 6 8 9 7 6 7 9 9 8 7 11 10 11 6 5 4 5 7 9 7 11 11 12 11 11 9 10 10 9 8 8 8 14
51 34 19 12 22 25 19 19 10 6 5 5 9 7 10 8 8 8 8 7 7 6 6 9 12 7 5 4 4 5 5 10 10 23 21 13 13 12 14 12 10 10 8 9 10
47 22 17 17 24 28 22 15 11 7 6 6 8 8 7 7 7 8 8 6 5 6 7 7 10 10 7 7 7 6 6 8 9 11 16 16 13 9 12 13 11 10 8 8 11
33 29 17 19 32 23 23 17 20 9 6 6 6 7 9 8 8 8 9 7 5 6 8 8 9 14 10 6 5 5 6 7 12 21 12 13 11 7 8 8 9 9 8 8 11
39 29 16 13 22 16 16 14 12 12 11 9 8 6 6 8 12 10 8 6 6 8 10 9 12 15 14 8 7 7 6 6 6 10 21 15 12 7 8 8 9 9 9 9 11
45 31 17 16 16 17 18 17 15 10 12 12 12 9 8 8 8 10 9 7 6 7 44 22 11 16 14 15 8 9 7 6 6 9 12 12 13 11 10 10 10 10 9 10 10
54 34 25 31 22 38 40 48 31 36 18 15 16 13 11 12 10 10 9 8 7 18 14 13 19 14 11 10 9 7 6 5 7 8 11 11 11 11 11 10 9 8 9 10 10
75 55 37 35 34 35 41 34 24 25 26 30 21 15 13 16 14 11 9 12 12 10 13 12 22 18 15 10 9 9 8 6 6 6 7 8 9 7 8 10 9 9 10 10 10
70 73 55 46 32 27 23 30 27 18 20 28 30 39 30 18 21 19 18 11 10 15 17 20 21 27 27 16 15 16 11 9 9 7 6 8 9 7 9 10 11 10 9 11 12

GFSSW_sfc_rhum_006.txt.gz
RH
77 78 79 79 80 80 81 81 82 81 82 82 83 85 88 89 87 47 26 18 20 82 80 22 23 19 14 14 14 14 20 24 20 16 13 12 14 15 18 21 29 29 31 34 35
77 78 78 78 78 79 80 81 81 82 82 82 83 84 87 89 40 18 20 49 66 76 13 13 17 16 14 14 13 16 24 24 22 16 13 12 13 15 18 21 23 28 28 29 34
75 77 78 78 76 77 78 78 81 81 81 82 82 83 86 74 24 10 62 67 74 57 7 8 10 11 13 12 12 16 27 18 16 16 14 12 13 12 19 22 23 36 34 32 32
77 78 79 78 77 76 76 77 80 81 82 81 81 81 84 40 15 10 68 71 76 22 9 8 9 12 12 14 11 13 14 16 13 11 15 12 12 14 16 18 19 26 32 32 32
77 80 81 80 78 77 77 79 80 81 82 80 80 81 46 18 16 14 69 59 23 15 11 11 9 11 12 11 10 9 13 12 9 10 11 11 13 14 14 15 18 22 30 34 32
76 79 82 84 82 79 79 82 84 81 81 80 81 83 38 15 7 14 11 16 10 10 10 11 8 9 10 10 10 8 8 9 8 9 10 14 13 13 13 14 18 23 28 31 32
77 78 81 82 80 79 83 84 83 80 80 82 82 57 21 10 7 6 7 9 9 9 8 8 7 8 8 9 7 7 9 8 8 8 11 12 16 16 14 13 19 23 26 28 30
82 81 82 83 83 83 84 84 84 80 82 83 80 44 19 5 6 7 6 8 7 7 7 6 6 6 7 6 7 7 8 11 9 9 10 12 19 14 14 14 18 22 24 27 28
82 84 84 85 85 83 83 83 82 79 84 74 62 38 16 17 9 7 6 7 6 6 7 6 6 6 6 8 9 9 11 11 10 9 10 12 26 18 14 16 17 21 24 24 28
83 84 84 85 84 83 84 82 64 77 71 43 32 29 19 11 8 6 6 6 7 7 7 8 7 8 7 9 12 11 11 10 12 12 10 13 43 36 23 15 17 18 21 25 25
83 85 85 84 83 83 66 25 26 37 38 23 17 12 7 9 6 8 7 8 7 7 10 10 10 11 10 9 9 9 10 10 10 12 12 18 54 60 33 19 16 19 20 22 25
84 85 86 84 83 76 57 20 9 10 11 7 10 13 11 7 9 8 6 9 8 10 9 8 10 7 7 8 9 9 11 11 10 12 13 13 35 38 28 19 17 16 18 19 19
84 84 85 84 78 52 19 9 8 8 11 8 6 6 8 9 8 6 7 9 7 8 10 9 6 5 6 8 10 10 10 11 11 11 11 12 15 20 19 16 16 15 16 16 19
83 84 85 87 42 22 15 10 6 6 13 8 5 5 4 5 6 4 4 7 9 8 7 8 6 5 6 8 8 11 8 9 9 14 19 14 22 26 20 21 18 16 16 16 18
84 84 85 87 45 29 12 8 8 9 18 6 5 4 4 5 5 5 4 5 7 8 8 8 7 6 6 6 7 10 8 9 9 11 18 19 22 21 20 22 21 18 17 16 17
85 86 86 40 30 25 16 10 10 15 18 7 6 7 6 5 6 6 5 5 6 6 8 8 5 5 4 4 5 6 8 8 9 10 18 16 20 19 19 22 18 18 17 17 17
87 87 78 44 28 12 12 11 15 17 8 8 7 8 8 8 7 8 8 9 9 11 12 8 7 4 4 5 5 6 8 15 16 15 17 12 20 24 18 16 15 27 22 18 18
87 83 56 31 24 24 18 16 24 12 11 6 6 7 9 9 8 7 9 10 8 8 9 11 11 6 5 5 6 6 7 13 25 18 15 13 16 15 15 15 17 19 25 15 17
86 35 29 17 16 18 21 18 17 14 9 8 7 7 8 7 7 7 9 9 7 7 12 9 10 6 5 5 4 6 8 6 11 11 13 12 11 9 10 15 18 13 10 11 16
55 43 32 19 13 17 24 28 13 9 8 8 10 8 9 8 8 8 8 8 8 6 6 9 12 6 6 5 5 5 5 8 9 22 23 14 17 15 15 16 17 17 15 10 11
54 33 16 11 14 26 28 22 18 12 11 12 11 9 8 8 8 8 8 6 6 7 7 7 10 9 7 8 8 6 6 7 7 10 17 20 16 12 19 18 16 14 11 10 11
37 37 13 16 28 28 30 24 26 16 12 11 10 10 9 8 9 8 9 8 5 5 8 8 8 13 9 6 5 6 7 7 10 21 12 14 13 8 15 13 11 12 11 11 12
45 34 19 16 30 23 20 19 18 18 18 16 14 10 8 9 13 10 9 5 5 6 8 8 11 16 12 8 7 7 6 6 6 9 19 16 14 9 12 16 15 12 12 15 16
58 40 22 18 18 20 21 20 18 12 14 15 18 15 13 12 9 12 10 7 5 6 44 19 10 17 13 15 10 12 8 7 7 9 12 11 14 13 14 15 13 15 14 14 20
52 44 30 42 33 38 56 42 40 33 21 25 30 26 22 21 14 11 8 8 7 14 13 10 20 14 10 9 9 9 8 7 9 10 12 10 11 14 13 15 15 12 15 16 18
94 62 56 45 34 31 37 43 37 38 27 28 39 34 34 42 45 51 30 18 12 9 10 9 21 18 16 10 10 10 9 7 7 8 9 9 10 7 9 11 19 14 15 17 18
71 73 90 66 40 30 24 25 39 28 30 29 26 36 46 40 41 35 27 21 18 19 16 17 15 25 24 14 13 15 12 10 8 6 7 10 10 10 10 14 15 20 16 17 16

GFSSW_sfc_rhum_009.txt.gz
RH
77 77 78 78 76 76 77 78 79 80 81 80 82 84 87 89 88 53 37 25 31 73 82 23 31 27 30 33 33 38 58 64 45 27 20 19 31 29 28 44 43 46 44 50 44
77 78 79 78 76 75 75 76 77 78 79 81 81 83 86 89 65 28 27 48 55 78 23 16 19 26 28 25 19 23 41 35 26 22 17 17 28 32 34 43 50 46 44 47 45
76 77 78 78 77 76 76 77 76 76 77 80 82 82 86 85 50 15 58 44 49 64 16 10 10 14 24 20 17 18 28 24 19 18 14 17 18 20 32 43 45 51 52 50 51
75 76 77 77 76 77 77 77 78 77 78 79 80 81 85 73 20 13 68 67 57 36 18 12 10 13 17 19 15 19 17 17 19 19 17 16 16 22 23 35 34 40 48 49 54
76 78 78 78 78 79 78 80 82 80 78 79 79 81 74 44 26 11 69 68 44 28 18 14 12 13 16 16 14 16 16 13 15 17 17 14 16 22 22 32 33 34 38 47 50
79 80 83 83 82 81 81 82 82 81 78 79 79 82 80 30 8 8 26 33 20 18 16 13 13 12 14 15 14 12 12 15 13 13 18 18 16 20 25 32 35 36 38 39 52
80 81 83 83 81 81 84 84 83 79 77 78 81 69 49 21 7 18 14 20 18 13 12 12 12 14 12 15 11 10 12 10 11 12 14 20 35 19 23 25 38 40 39 38 39
82 83 83 84 83 84 83 84 83 78 77 79 80 67 57 12 11 10 8 9 12 11 11 9 10 12 12 11 11 12 12 15 11 11 12 20 42 25 19 27 35 37 38 39 41
84 83 83 84 84 84 84 83 81 75 75 79 88 82 46 21 16 11 8 10 10 10 11 8 9 12 11 13 16 14 15 14 13 10 15 18 34 18 17 26 30 34 35 37 40
84 83 83 83 83 83 84 79 68 69 80 59 45 57 37 19 10 10 9 9 9 9 9 11 14 14 12 14 19 17 16 13 14 14 16 28 31 27 21 21 29 30 31 34 37
83 82 83 83 82 82 76 60 42 51 54 42 37 24 12 10 9 10 8 8 9 10 14 12 17 17 14 10 11 12 12 13 11 14 17 33 37 32 23 27 30 31 31 32 34
84 84 84 84 83 78 78 51 23 12 16 10 10 17 18 17 16 9 8 11 12 15 13 13 16 13 11 11 10 11 13 13 11 13 18 35 34 25 20 21 23 25 30 31 32
86 84 84 85 80 65 30 23 14 10 17 11 9 9 8 12 19 14 10 11 13 14 12 14 15 11 10 11 12 12 13 13 14 13 16 32 47 42 27 26 26 24 24 28 30
86 84 85 89 52 42 32 18 13 10 23 13 9 7 7 7 12 11 9 11 13 13 11 12 10 10 10 9 10 15 11 11 12 13 22 21 38 50 34 39 38 31 22 24 28
86 85 85 88 70 56 26 23 18 16 32 9 8 5 6 7 9 11 9 10 12 13 11 11 12 11 10 7 7 12 11 11 11 14 26 22 29 35 34 42 45 33 20 21 22
87 86 86 60 50 42 30 22 21 29 30 11 6 7 7 7 7 6 10 7 8 11 11 11 8 7 9 8 6 6 10 12 12 15 20 24 24 34 33 41 43 25 21 20 20
89 88 84 61 57 22 36 28 30 28 12 11 10 8 7 8 7 6 7 8 10 12 12 9 9 9 6 9 7 6 11 17 21 22 25 18 25 33 20 21 21 22 21 21 20
91 87 70 42 41 45 45 34 36 19 16 11 10 9 10 8 7 6 9 9 8 9 14 14 14 10 8 8 9 8 8 14 29 25 22 18 19 20 17 19 18 22 20 20 22
90 51 45 34 29 36 42 47 27 20 14 12 13 13 12 10 11 9 10 9 8 8 14 13 14 10 8 7 7 9 9 8 15 20 25 18 17 13 18 18 18 20 22 21 19
81 61 51 33 27 32 42 47 26 15 16 19 25 16 20 15 12 13 11 10 11 9 9 13 22 10 8 7 7 6 9 11 9 17 23 17 20 21 22 21 24 24 23 20 21
75 52 28 18 19 36 46 38 28 20 19 21 22 22 19 17 15 14 11 10 8 9 8 9 12 12 12 10 9 9 8 9 11 11 18 25 19 17 20 25 26 21 18 19 21
56 61 25 24 38 30 35 32 37 27 23 24 23 24 24 20 18 15 13 10 7 8 11 9 11 15 12 9 8 7 10 9 17 18 20 15 16 13 10 23 20 18 20 16 23
67 54 32 28 42 37 30 26 24 22 20 21 23 22 21 24 28 20 16 9 8 9 10 11 11 18 18 12 9 9 8 10 7 17 18 29 16 8 8 17 16 18 20 19 23
81 63 37 35 31 34 46 55 55 38 34 28 29 30 32 34 28 31 24 13 8 8 42 28 13 14 17 18 15 18 10 9 9 10 11 11 11 13 15 21 21 18 18 18 21
94 68 43 68 59 57 57 67 52 46 35 29 43 46 42 55 46 42 45 45 33 31 18 17 16 13 13 12 11 10 12 9 10 9 13 11 10 11 11 23 25 20 24 22 22
97 83 68 68 56 49 48 39 34 30 43 44 42 52 45 78 71 71 57 55 53 34 36 30 29 27 26 14 11 11 11 11 8 8 10 10 11 14 12 12 25 22 18 15 26
79 71 95 81 60 56 50 43 50 39 42 36 45 40 54 42 43 53 43 40 43 46 40 36 40 40 26 21 20 19 12 12 13 9 10 12 9 12 13 15 23 23 21 15 22

GFSSW_sfc_rhum_012.txt.gz
RH
76 77 77 77 77 76 76 77 76 76 76 76 80 82 86 88 87 74 42 27 36 77 76 54 54 42 49 57 53 58 56 46 51 41 35 41 47 41 40 52 46 44 56 56 52
75 75 76 76 76 76 77 76 76 75 76 77 79 81 84 88 81 49 30 52 57 72 32 23 42 37 43 41 48 54 56 43 30 32 31 39 41 46 51 52 52 55 51 51 53
76 76 76 76 76 76 77 76 75 76 77 77 79 80 84 86 56 21 68 54 58 68 25 22 17 27 40 35 30 30 34 28 25 25 29 39 42 41 52 56 54 64 61 55 57
76 76 76 76 77 78 78 77 77 78 78 78 78 80 84 87 12 12 74 73 58 40 26 21 16 15 18 19 17 25 19 21 20 18 22 35 36 46 46 48 47 54 53 55 58
77 77 78 77 78 78 79 80 82 80 78 77 77 79 83 57 34 10 59 69 48 38 29 24 18 15 18 16 18 20 17 16 16 20 18 19 33 44 41 44 46 50 52 57 58
82 83 82 82 81 80 82 84 84 81 78 76 76 79 84 23 8 9 14 32 28 28 27 21 17 15 16 16 18 17 15 14 16 20 20 18 25 32 42 41 49 52 56 57 58
82 82 82 82 82 81 83 84 84 81 77 76 76 74 75 17 10 12 22 29 28 21 20 19 15 18 18 17 15 15 16 13 12 15 20 20 34 44 40 45 53 55 55 56 56
82 82 83 83 83 83 83 84 83 80 77 76 76 82 68 24 17 13 11 10 14 22 17 14 14 17 20 15 13 15 18 19 12 14 20 23 42 44 41 46 56 56 54 56 56
83 84 84 83 82 82 84 84 81 73 72 79 95 94 59 34 33 20 13 11 12 15 15 10 13 16 16 17 19 19 20 17 14 12 24 28 38 31 40 43 46 47 52 52 56
84 85 84 83 82 83 83 81 77 76 76 70 60 60 35 17 21 14 13 10 12 15 14 16 18 18 20 20 23 21 20 17 16 11 22 33 35 29 42 45 47 46 44 44 54
85 86 86 84 83 83 82 88 37 35 68 52 48 39 20 16 16 13 11 11 13 15 18 16 20 22 20 17 14 15 16 17 13 13 28 28 28 27 36 44 47 48 47 45 42
86 86 86 86 85 79 90 54 46 29 30 16 16 21 21 21 23 20 12 15 15 16 16 18 19 17 15 14 13 12 14 14 13 12 24 34 28 26 31 35 40 42 44 45 43
87 86 87 87 82 65 53 34 27 27 23 15 12 13 12 15 22 22 16 13 15 17 17 17 16 12 14 15 14 13 13 13 16 14 24 34 41 35 29 28 31 34 35 38 41
87 87 88 90 59 68 53 33 31 28 27 18 14 11 10 12 16 12 17 12 17 15 18 18 12 13 13 15 15 20 12 11 12 18 23 29 46 46 38 36 30 32 33 34 36
88 87 88 88 95 85 41 38 34 24 34 14 11 8 10 10 10 11 12 15 16 16 16 18 14 13 16 15 13 14 12 14 14 18 25 24 42 40 38 39 42 33 30 32 32
89 88 87 82 85 66 47 47 36 25 34 16 10 10 11 11 9 10 13 16 13 16 15 15 11 12 12 11 11 10 12 15 19 19 30 31 32 37 50 34 32 27 29 27 30
90 89 88 68 83 52 58 44 29 37 16 16 16 12 12 11 9 10 15 19 19 22 21 18 15 12 10 13 12 11 14 18 24 23 27 20 33 29 30 28 27 25 29 28 27
88 90 83 56 80 71 59 35 45 23 19 17 20 16 13 11 10 7 12 20 17 15 18 20 20 12 10 12 13 14 11 14 24 29 26 21 30 26 25 24 25 22 24 28 23
89 86 68 62 46 58 67 70 38 26 22 25 24 22 22 16 19 12 10 10 13 12 15 19 16 12 8 8 11 13 14 9 17 46 29 24 21 18 18 24 26 26 28 26 22
96 98 81 51 44 58 75 69 42 28 25 27 35 25 36 29 25 24 21 11 9 9 8 12 20 12 8 8 9 11 10 18 19 18 19 20 24 19 19 20 28 25 27 24 22
99 89 52 35 36 63 76 65 38 26 25 35 38 39 34 33 31 31 25 14 12 9 8 9 17 14 13 12 14 13 12 16 13 13 15 26 15 16 18 20 26 26 23 22 22
96 96 49 36 60 61 63 50 43 33 27 30 31 32 33 31 32 31 29 21 17 18 20 10 11 15 14 11 10 10 11 12 12 18 17 11 12 14 14 15 25 26 22 22 22
100 95 54 49 74 79 72 55 45 45 48 46 36 38 38 46 48 37 37 25 37 36 49 30 16 18 18 14 16 15 11 9 17 16 13 21 17 12 11 12 24 27 25 27 22
99 98 69 65 57 69 72 68 60 45 36 36 40 47 51 51 55 63 51 45 40 37 51 40 31 18 17 14 14 17 13 10 10 11 13 13 19 14 17 20 21 26 25 23 24
98 95 84 96 77 68 64 56 70 62 39 41 48 46 61 72 71 62 55 58 43 43 41 53 55 31 26 15 11 12 13 11 12 10 11 10 13 12 12 14 12 14 23 24 18
97 96 88 91 87 76 64 54 77 70 60 52 56 50 57 78 66 71 60 76 62 49 51 55 55 44 39 20 11 12 13 12 13 10 10 12 12 10 9 12 18 19 22 24 24
96 87 97 83 88 90 81 59 57 51 68 50 46 55 56 53 54 45 55 62 62 67 56 62 57 49 54 28 16 19 12 12 12 12 11 13 12 14 14 16 17 16 18 23 28

GFSSW_sfc_rhum_015.txt.gz
RH
76 77 77 77 77 77 77 77 76 76 76 76 78 80 83 86 87 79 37 26 39 83 84 80 69 65 64 77 58 66 78 66 51 47 48 49 58 48 45 58 51 53 61 60 62
76 76 76 76 76 77 78 78 78 77 77 78 78 80 82 86 87 64 36 55 60 85 67 84 82 64 77 72 66 71 74 54 36 35 48 47 49 52 57 59 60 61 57 59 60
76 76 76 76 75 76 77 77 78 78 78 78 78 80 82 86 53 14 54 58 64 74 32 46 44 48 52 46 64 61 66 40 32 26 39 46 49 46 60 64 64 71 67 61 66
76 76 77 77 76 76 76 77 78 79 79 78 78 78 82 92 11 11 79 76 70 35 27 27 23 28 36 48 42 38 40 40 29 19 39 46 44 53 53 52 51 55 59 61 66
77 78 78 78 77 77 76 78 79 80 79 78 76 77 87 59 26 10 61 66 56 35 27 23 21 22 18 19 18 34 28 20 18 19 34 39 48 49 52 47 49 53 57 62 65
81 82 83 83 82 79 80 82 83 80 79 78 76 76 81 15 8 13 15 44 39 37 33 24 20 18 18 17 18 18 18 18 17 15 32 44 46 48 48 48 55 57 61 62 62
83 84 84 84 84 83 82 82 82 80 79 79 76 77 86 13 9 14 21 29 39 30 29 26 18 15 17 18 17 18 20 16 15 14 29 34 47 52 46 53 60 61 61 61 60
84 84 84 85 84 84 83 82 83 81 79 76 77 83 51 24 24 15 11 12 22 28 18 20 20 20 22 19 17 17 19 22 16 16 17 30 45 43 51 58 63 61 60 61 62
86 86 85 85 85 84 83 84 81 76 76 78 87 93 45 36 38 25 15 11 12 20 23 15 18 21 21 23 23 21 25 21 17 13 26 29 46 50 51 58 63 61 61 62 64
87 87 86 86 85 85 83 84 78 82 78 70 65 68 38 17 29 20 20 11 14 17 21 20 19 23 24 24 30 24 22 20 18 15 27 36 46 52 53 57 61 60 59 62 63
87 87 87 86 85 82 88 77 40 42 70 48 52 39 22 18 18 19 14 13 16 19 25 22 28 30 23 20 18 18 19 19 16 16 31 31 39 56 54 56 62 62 61 62 62
87 87 87 87 85 84 79 39 40 42 48 27 26 23 21 22 19 16 12 14 18 21 20 22 24 22 19 19 18 17 18 17 14 14 20 30 35 51 52 52 55 59 60 60 58
87 86 87 89 85 69 66 47 38 46 41 20 18 17 16 19 23 18 16 16 19 22 19 21 19 16 17 19 18 19 19 16 16 17 21 38 47 42 52 48 48 48 48 52 52
87 86 86 90 59 83 53 46 44 46 30 20 16 13 15 20 25 14 19 14 18 18 19 20 14 15 17 18 19 25 16 14 14 20 23 36 51 51 44 55 51 50 49 47 45
86 86 85 88 94 92 39 49 49 31 41 18 14 11 14 14 13 16 17 18 19 18 20 21 18 16 17 15 17 18 16 16 19 21 27 24 39 38 40 46 45 44 44 45 44
86 86 86 87 96 81 61 61 41 24 35 17 12 13 14 13 10 16 15 19 16 19 20 17 15 14 16 14 13 16 18 16 24 26 31 19 27 24 53 36 35 34 36 38 40
87 86 87 73 85 67 65 46 30 35 19 20 24 21 21 14 11 15 18 20 22 25 25 21 16 14 13 17 18 18 19 28 25 30 24 19 34 20 28 33 28 31 31 32 33
86 88 85 61 80 84 74 38 42 24 24 24 26 23 20 23 15 15 18 21 20 21 24 27 28 18 14 16 18 19 18 30 28 34 24 24 31 25 20 25 27 23 26 27 30
88 82 96 75 55 72 68 55 37 32 27 31 27 31 35 30 28 28 26 20 19 16 20 27 25 15 13 13 13 17 19 14 20 43 27 28 23 20 18 22 29 28 24 27 28
97 99 95 64 56 70 79 72 50 33 30 34 39 39 47 39 34 37 32 20 19 21 17 18 22 15 12 13 13 13 13 22 24 24 24 23 24 22 22 19 30 33 30 27 30
97 96 62 48 56 75 93 82 49 34 30 37 43 45 44 41 36 41 36 28 32 34 27 22 18 16 14 15 15 18 15 19 18 19 19 20 17 15 19 21 23 29 30 29 30
98 96 50 53 64 81 90 73 54 41 39 41 38 40 43 44 48 39 36 33 36 40 54 45 27 18 15 14 9 10 12 18 18 21 20 16 16 16 14 15 20 20 27 27 27
100 99 71 60 87 76 65 53 50 52 52 46 45 45 48 54 53 54 50 41 39 42 60 56 51 28 20 24 18 15 14 13 15 19 16 18 18 13 14 16 18 22 28 28 32
99 96 87 74 72 78 82 61 67 52 48 42 45 51 57 55 61 62 53 46 41 40 51 51 59 43 33 24 21 19 15 13 14 17 15 14 15 17 15 15 14 20 24 32 35
97 95 92 96 86 94 77 65 73 79 63 49 52 53 66 84 76 70 56 60 47 48 49 61 70 53 44 34 30 23 16 12 15 13 15 13 14 12 16 16 14 14 18 31 32
96 98 84 86 74 90 81 71 71 68 77 75 61 51 63 79 72 77 68 80 69 54 58 65 66 58 46 30 28 26 16 14 12 12 12 12 16 12 11 15 14 12 15 19 26
95 94 97 93 83 81 81 76 68 63 65 69 53 58 57 56 65 60 60 59 58 67 65 67 69 66 63 40 38 31 19 15 12 13 12 14 13 12 11 12 13 12 18 19 18

GFSSW_sfc_rhum_018.txt.gz
RH
74 76 76 76 77 77 77 77 78 78 78 78 79 80 82 85 87 86 39 26 38 80 82 79 79 65 71 73 64 67 89 79 55 59 54 67 60 53 50 61 56 55 66 66 72
75 75 76 76 76 76 77 78 78 78 78 79 80 80 81 84 94 67 37 55 73 86 84 85 86 72 90 89 74 84 90 64 43 42 52 56 55 57 62 63 63 64 62 69 69
76 76 76 76 76 76 76 77 76 76 78 79 80 80 80 86 61 13 53 54 86 85 72 68 69 69 84 70 76 76 82 54 40 35 42 56 55 52 65 70 66 75 76 73 75
77 77 78 78 77 77 77 77 77 77 78 79 79 79 80 94 14 36 78 63 83 62 68 68 72 74 68 72 64 63 50 53 43 32 47 52 51 56 60 59 48 63 68 72 80
79 80 80 80 79 78 78 79 80 79 79 79 79 78 88 64 21 51 72 65 75 48 51 46 67 55 44 43 50 53 43 29 28 29 37 45 52 54 58 51 56 60 66 72 77
83 84 85 85 83 81 81 83 83 80 79 79 78 76 86 14 8 15 58 59 54 39 32 27 30 25 23 20 34 22 27 28 20 20 33 49 51 51 51 54 58 64 68 70 74
84 85 86 86 83 83 83 83 83 82 82 80 77 78 92 11 10 15 46 46 35 32 34 27 21 20 20 23 17 19 22 20 19 18 34 42 59 57 52 55 62 65 67 67 71
84 85 86 85 84 84 82 84 86 82 81 81 77 84 41 22 26 22 14 20 37 35 27 26 21 21 23 20 19 20 21 23 19 21 32 47 61 52 52 60 66 63 64 67 69
86 86 86 85 84 84 82 85 80 78 78 78 88 90 34 36 39 26 13 12 28 37 28 16 22 25 25 25 27 27 29 23 21 14 28 49 48 47 54 62 67 66 64 66 68
85 86 86 85 84 85 83 85 80 83 75 70 70 68 43 22 32 28 20 12 14 21 22 26 27 30 31 28 23 30 24 23 22 20 39 46 43 56 58 62 66 66 65 67 67
86 86 86 84 85 82 86 62 45 47 56 68 59 42 29 20 19 21 19 14 19 24 31 28 32 31 29 24 22 23 22 22 22 16 27 35 50 68 61 62 65 66 67 67 66
85 85 85 85 84 84 71 45 43 44 58 34 33 30 28 24 21 18 14 16 19 26 26 28 31 28 21 21 20 20 22 21 20 15 19 20 26 61 63 63 60 62 66 65 64
85 84 85 86 86 76 76 48 47 58 62 31 29 25 23 25 25 20 14 16 19 23 25 25 24 23 23 24 22 24 22 22 21 19 20 34 43 47 60 60 57 56 57 59 62
86 85 85 88 58 93 53 58 59 58 39 24 19 17 21 24 26 16 14 15 20 17 23 24 19 20 24 23 21 31 19 17 16 20 23 35 40 54 63 66 59 59 60 59 59
86 86 85 87 95 93 38 63 56 42 45 22 17 12 19 19 18 20 21 23 21 21 22 24 21 19 20 19 20 22 17 18 18 21 26 31 30 34 61 74 64 56 55 56 55
87 87 87 90 97 89 75 71 54 39 49 22 15 17 19 17 14 19 21 23 18 20 24 21 18 16 17 16 17 18 19 20 29 29 33 23 26 33 58 60 60 53 51 49 48
88 87 91 78 76 72 84 55 34 43 23 26 28 25 25 20 16 20 22 25 24 30 29 24 20 19 16 19 21 20 24 35 33 34 28 24 29 20 30 35 38 46 46 46 46
87 88 86 70 76 78 79 40 48 28 28 29 30 28 28 31 28 28 22 25 25 25 30 27 31 19 16 18 21 24 24 37 38 35 27 29 28 25 17 29 29 28 32 36 40
89 94 91 75 57 80 64 57 43 38 32 35 33 38 40 35 34 32 32 20 25 22 27 32 29 19 16 16 15 24 23 19 26 52 29 30 27 22 23 21 34 30 28 31 33
98 95 90 66 58 72 81 74 60 41 39 37 48 44 50 44 39 41 36 44 42 34 33 26 33 19 17 14 17 17 18 23 31 35 36 30 28 26 29 22 25 36 36 30 29
97 97 57 56 65 78 84 89 66 47 41 48 47 48 48 49 44 42 40 47 41 44 42 50 24 23 17 21 19 21 21 25 22 29 31 31 23 22 22 26 22 21 32 31 29
96 96 49 57 73 92 74 61 68 57 47 46 46 48 52 50 51 44 52 54 40 47 62 66 46 28 22 17 15 14 16 20 22 27 27 28 20 18 17 15 21 21 30 34 36
97 93 75 61 94 89 70 53 48 79 68 51 50 52 52 59 56 58 51 46 42 46 68 57 55 36 23 24 20 19 17 18 19 25 22 24 21 11 17 19 19 23 25 32 40
95 95 89 63 89 93 95 79 60 51 77 71 52 55 65 64 66 66 59 46 44 44 51 51 66 49 43 40 41 35 23 17 17 20 18 18 16 20 21 20 19 22 26 28 34
98 95 86 98 89 77 94 81 77 88 65 75 76 60 68 85 75 74 62 60 48 52 51 58 60 60 52 42 37 34 30 26 21 15 18 16 15 18 19 21 19 17 22 26 28
96 98 92 90 76 75 84 85 74 65 76 78 97 80 58 82 80 87 78 82 70 58 61 69 62 66 57 37 34 37 31 29 24 20 19 15 19 16 15 19 21 20 22 25 27
96 91 98 84 95 96 88 75 70 71 65 68 85 73 65 56 67 67 68 66 63 72 68 71 76 70 64 46 44 39 24 22 21 19 17 19 17 16 16 20 19 16 20 21 24

GFSSW_sfc_rhum_021.txt.gz
RH
75 75 76 76 76 76 76 77 77 77 77 77 79 80 81 84 83 68 30 18 29 84 72 60 56 56 54 60 59 55 57 51 40 43 40 47 49 45 43 50 47 48 52 50 60
76 76 77 77 76 76 77 77 77 77 77 77 79 80 81 83 71 42 31 52 60 86 62 60 60 58 61 61 61 64 58 44 34 32 26 44 43 47 51 50 49 52 52 57 60
76 77 77 77 77 77 77 77 77 77 78 79 79 80 80 76 38 10 52 54 75 75 53 50 52 55 62 63 62 65 55 42 31 27 25 35 44 42 49 54 44 53 60 60 61
77 78 78 78 78 77 77 77 77 78 79 79 79 79 79 77 11 28 79 61 82 51 56 55 57 57 57 64 57 63 50 42 31 27 29 38 39 44 47 44 37 44 51 56 60
78 80 80 80 79 78 78 80 82 80 80 79 78 77 71 40 12 43 68 65 67 53 51 52 59 52 48 51 49 58 39 32 28 26 22 26 41 40 46 38 37 47 52 54 55
80 83 84 84 82 80 81 82 82 80 80 79 76 72 62 11 5 23 39 59 58 50 45 47 52 41 36 24 39 30 27 17 18 19 16 26 31 40 38 42 48 52 53 51 53
80 82 83 83 81 81 82 82 82 81 81 80 76 70 66 10 9 15 40 49 48 38 46 35 33 38 21 18 16 16 16 13 12 13 14 20 43 43 38 44 52 53 55 53 53
79 80 81 81 82 82 82 83 84 84 82 79 76 67 28 15 14 12 29 33 45 30 25 25 22 27 18 14 14 16 15 15 11 12 16 22 19 33 41 45 52 53 54 56 56
83 83 83 83 83 83 83 86 81 77 78 77 75 73 19 34 19 11 12 24 35 31 20 18 17 19 17 17 15 15 16 17 14 12 23 29 19 22 39 42 50 53 52 54 56
85 84 84 84 84 82 85 80 77 75 70 65 60 54 25 17 21 17 9 23 25 26 23 20 19 22 19 17 18 17 16 15 17 13 16 26 26 30 40 42 47 50 50 53 53
85 85 85 84 83 83 69 40 32 38 37 48 47 34 27 15 21 20 9 11 17 22 22 22 21 24 20 17 14 13 13 15 13 12 18 22 26 31 42 43 45 50 50 51 50
85 85 85 86 83 85 49 34 40 40 49 29 31 30 30 24 19 19 10 10 14 19 20 25 23 17 16 18 16 14 14 15 14 12 13 15 18 18 37 46 44 48 49 49 47
85 85 85 86 87 59 56 44 42 44 51 29 28 23 20 19 22 17 11 10 13 15 18 20 17 16 20 19 18 15 13 14 15 13 12 15 16 21 37 39 42 43 44 45 45
84 84 84 88 53 62 36 46 48 49 34 22 19 18 18 17 21 14 13 12 12 15 15 14 14 19 20 20 16 14 11 12 15 16 18 17 20 26 25 42 45 44 45 45 44
84 85 85 88 74 62 38 49 47 48 21 18 14 12 16 16 14 17 12 13 12 12 16 17 19 20 22 19 16 14 12 13 14 15 16 15 20 18 34 39 43 42 42 43 41
85 86 87 72 72 60 55 55 47 28 30 20 12 14 18 15 13 16 16 14 12 14 13 13 14 15 16 16 17 14 16 16 18 15 22 18 17 17 19 26 31 37 40 42 41
86 87 83 65 45 43 56 45 29 32 20 25 23 21 21 17 13 17 19 20 18 20 21 16 16 13 13 15 15 15 15 20 20 20 20 15 18 19 15 21 17 29 37 39 41
86 88 68 58 51 53 49 27 36 23 28 26 26 24 21 25 20 20 19 19 17 13 14 19 22 15 13 15 16 17 14 14 24 17 15 20 21 16 14 13 19 20 25 32 37
88 61 51 45 43 50 41 28 32 43 43 40 29 31 29 28 26 24 21 17 18 16 17 18 17 14 12 12 12 17 19 11 14 18 16 13 14 15 15 14 16 18 20 26 30
76 70 50 42 45 48 40 51 51 48 44 36 42 36 39 34 30 27 28 37 27 29 29 20 23 14 14 12 12 14 12 17 14 22 21 15 20 14 20 17 17 19 18 20 22
75 60 33 43 40 41 51 54 51 46 48 43 42 42 38 40 34 32 41 36 35 36 33 27 20 18 16 16 16 16 16 15 13 14 14 14 11 17 20 23 19 17 17 18 20
75 56 40 43 42 49 48 54 54 46 51 47 38 42 43 40 37 38 45 42 31 38 42 38 20 21 18 13 11 13 15 15 16 27 16 13 11 12 13 14 18 15 16 18 24
87 73 46 38 66 66 60 55 42 52 58 65 52 45 42 46 43 44 45 41 33 39 45 35 32 28 22 15 14 16 14 14 12 14 26 16 12 9 13 15 14 14 15 21 26
75 64 51 51 57 60 66 58 57 47 62 80 72 46 48 49 46 47 45 38 35 40 51 38 35 33 23 23 26 26 17 15 14 17 18 17 14 13 14 16 16 17 19 19 23
90 76 73 69 55 60 65 67 62 59 50 58 95 92 68 59 50 52 49 42 36 46 36 36 38 37 32 30 27 27 23 20 20 18 20 16 15 15 15 16 15 14 18 21 21
89 86 87 82 67 68 64 60 64 56 60 55 92 74 80 89 56 62 57 53 48 40 39 37 37 44 36 26 24 27 24 23 21 20 19 17 17 12 15 16 18 15 16 19 22
90 82 98 95 75 89 60 57 59 59 55 56 80 78 60 53 51 45 42 42 42 47 48 46 41 42 36 31 30 30 24 21 20 19 18 20 17 14 14 16 19 19 19 20 19

GFSSW_sfc_rhum_024.txt.gz
RH
76 76 76 77 76 76 76 77 77 77 77 78 79 79 80 83 80 46 19 17 22 79 69 42 42 40 38 38 40 39 36 27 25 26 28 30 34 33 32 35 34 34 34 40 42
75 76 76 76 76 76 76 76 77 76 77 78 79 79 80 82 38 18 24 52 53 85 34 40 46 40 40 35 37 40 32 24 21 19 20 25 30 35 35 35 34 39 34 40 42
76 76 77 76 76 76 76 76 75 76 77 78 79 79 80 67 24 7 51 57 69 66 22 28 29 33 30 31 34 33 31 22 21 19 18 20 30 30 31 35 32 41 44 44 44
76 76 76 76 76 76 75 75 77 77 78 79 78 77 78 40 11 13 72 59 75 24 20 25 30 34 30 36 29 35 28 26 21 19 18 18 23 30 29 27 26 33 38 42 44
76 77 78 78 77 77 77 80 80 79 80 79 77 75 53 22 8 15 64 56 42 24 23 26 31 27 25 25 27 35 24 21 20 18 17 14 21 25 29 27 25 32 38 40 40
77 79 81 81 80 79 80 81 82 81 81 80 75 72 33 16 4 5 18 27 29 24 23 22 25 20 21 22 26 21 24 21 13 12 13 13 18 23 25 27 31 35 37 36 38
79 81 83 82 82 82 82 83 81 83 85 84 76 54 34 12 5 6 18 24 26 24 22 18 19 23 17 21 14 19 20 13 11 11 12 11 15 23 22 30 33 35 36 35 36
82 83 84 84 83 82 82 85 85 86 80 79 77 46 25 10 8 12 16 23 26 22 17 18 19 21 17 12 12 14 13 14 12 11 10 12 18 19 22 30 34 34 36 37 36
83 84 84 83 82 83 84 86 83 78 77 76 55 39 19 25 10 7 17 22 25 22 20 17 19 20 18 19 14 11 14 15 14 11 12 14 16 15 22 26 30 35 35 36 38
83 84 84 83 82 83 87 82 81 73 57 52 38 38 19 12 10 6 15 12 26 24 21 20 19 14 15 17 19 15 14 13 15 12 12 14 16 13 19 23 27 33 34 36 36
83 84 83 82 84 85 56 25 31 43 28 30 26 19 17 11 13 8 8 14 20 24 19 14 14 15 11 12 11 11 12 13 12 12 13 14 14 14 18 24 24 31 35 35 35
83 83 83 82 85 85 36 22 33 33 33 17 17 18 20 19 18 10 8 16 16 23 14 15 16 10 9 9 11 12 12 12 12 11 12 13 13 13 15 24 24 29 32 33 32
83 83 84 84 86 47 28 34 28 28 30 16 15 14 15 15 17 13 8 11 14 16 13 14 12 10 10 12 13 12 13 12 13 12 11 12 14 14 11 15 21 23 27 29 32
84 82 84 89 47 31 26 24 28 30 29 12 16 16 14 14 17 11 6 9 11 14 12 11 10 12 12 12 11 13 9 10 10 12 16 12 18 16 13 15 18 20 24 27 30
84 82 85 91 41 30 30 26 29 33 16 13 13 11 12 14 11 12 10 7 8 10 11 14 12 12 13 13 11 11 6 8 10 11 13 14 15 15 13 15 14 17 19 24 26
84 84 86 42 31 27 25 29 34 29 18 14 11 13 14 14 12 11 14 8 7 9 10 11 8 9 11 10 10 9 9 9 10 10 15 15 14 15 13 16 14 16 19 24 26
85 85 71 36 31 25 26 30 23 18 12 19 17 14 13 12 14 13 16 17 17 16 15 12 10 10 9 12 11 11 11 14 14 13 14 12 14 16 12 11 12 12 14 22 25
86 86 54 30 23 26 29 25 26 15 25 22 21 19 18 13 13 12 16 16 14 12 11 14 15 11 10 12 13 13 11 10 20 11 10 12 15 13 10 10 10 10 10 16 23
87 25 24 22 24 30 31 20 16 38 34 33 23 22 17 17 17 15 14 15 13 12 15 14 14 8 9 10 10 14 14 7 8 10 10 8 10 9 10 10 10 10 10 11 20
43 28 23 20 22 29 29 32 30 31 32 29 32 26 28 24 22 18 14 20 14 11 13 14 17 10 9 9 9 10 10 11 9 19 18 10 12 11 13 13 12 11 10 11 15
32 28 23 21 20 20 24 28 28 23 30 33 34 33 30 30 26 20 21 26 22 16 24 15 14 13 11 12 12 11 11 11 8 9 12 12 8 9 12 13 12 11 11 10 13
32 25 24 22 23 25 29 35 43 26 25 32 31 28 32 31 30 28 30 29 25 26 26 17 15 18 13 9 8 9 12 12 12 19 11 11 8 6 8 8 10 10 10 10 11
41 35 24 23 34 34 32 32 29 31 42 45 46 37 32 35 39 32 34 28 25 27 29 22 19 20 17 12 11 11 11 10 10 10 19 13 9 8 10 11 12 12 11 12 14
41 35 25 27 29 38 42 37 35 28 35 33 84 53 44 30 30 36 32 27 24 26 46 34 21 21 17 18 14 16 12 11 11 13 13 12 11 10 9 11 11 10 11 11 15
41 38 47 43 41 47 49 37 41 46 33 30 83 91 87 51 33 33 35 29 25 31 25 25 30 27 20 21 18 13 12 12 13 14 15 12 12 11 11 11 11 10 11 11 12
48 52 49 63 51 44 49 44 40 43 43 42 51 66 60 92 63 60 45 35 34 29 28 23 32 30 28 21 20 19 17 14 13 12 13 12 13 9 10 12 12 12 12 13 13
53 51 74 60 54 49 44 49 53 44 40 39 40 43 43 52 52 43 33 31 32 37 33 32 27 33 30 21 21 25 19 18 16 15 15 17 16 13 13 13 13 12 12 12 13

GFSSW_sfc_rhum_027.txt.gz
RH
75 75 75 75 75 74 75 75 76 76 76 77 78 79 80 83 82 39 21 17 20 68 65 29 28 30 29 30 27 26 38 34 22 28 21 19 19 20 22 27 27 28 35 39 38
74 74 75 75 74 74 75 75 75 75 76 77 78 79 79 82 38 16 23 50 56 72 32 26 29 28 29 28 25 29 50 70 17 14 17 19 21 21 24 27 29 28 31 36 34
74 75 74 74 74 74 74 74 74 76 77 78 78 78 79 66 25 9 55 54 64 67 14 20 23 26 26 20 22 23 37 62 16 14 14 16 20 18 20 26 28 33 38 36 35
75 75 76 76 75 74 75 75 76 77 78 79 78 78 77 38 13 18 59 58 63 23 12 17 22 28 24 22 18 23 24 54 16 15 14 16 18 22 20 19 21 28 33 35 35
75 77 79 78 78 78 79 81 81 79 79 79 78 76 56 22 10 21 72 56 20 19 12 17 21 24 24 17 17 20 19 17 18 16 14 13 16 25 20 17 19 27 32 34 34
78 81 82 83 82 81 81 82 83 80 80 81 80 74 38 21 6 5 14 22 17 20 11 14 17 18 20 16 17 16 18 17 15 14 12 13 13 17 20 18 21 28 32 31 32
79 82 82 82 82 81 82 83 82 85 87 85 84 53 25 18 5 4 8 15 16 17 11 12 12 17 17 17 13 15 18 18 18 12 12 12 13 18 19 21 24 28 30 30 30
79 80 82 82 81 81 82 85 84 86 79 76 80 42 27 11 11 6 8 12 14 15 12 11 11 14 16 13 14 16 17 20 14 12 11 11 17 13 16 23 25 27 28 30 30
83 82 82 82 81 82 83 85 80 75 74 74 51 34 22 24 11 8 6 13 15 16 15 12 12 16 15 17 15 12 16 16 15 11 11 12 15 16 15 20 24 26 27 27 30
83 83 82 82 82 82 85 83 66 75 56 40 31 33 21 13 9 8 6 11 17 18 19 17 17 19 17 18 20 15 13 12 14 11 11 12 14 16 16 18 21 25 26 28 27
83 84 82 82 82 83 57 17 25 38 36 27 22 20 13 10 8 7 6 12 16 20 23 19 21 24 16 18 15 12 11 11 10 10 11 14 15 13 14 15 17 23 26 27 27
84 84 83 82 82 83 37 18 25 24 28 14 11 10 13 12 13 7 8 14 16 24 18 17 21 14 12 10 12 12 12 11 10 9 11 13 14 11 12 14 16 19 23 26 26
84 84 83 83 83 41 19 19 16 17 24 12 8 9 8 13 15 11 7 10 15 22 18 14 11 10 8 8 9 10 11 11 10 10 9 12 14 14 11 12 16 16 20 22 25
85 84 82 86 46 18 17 16 15 18 26 9 10 8 7 10 16 11 5 9 13 19 18 13 8 9 8 8 7 9 7 8 9 11 14 11 17 16 12 12 16 16 18 21 22
85 83 84 89 35 22 18 13 15 20 20 8 10 9 8 10 8 12 6 8 11 12 14 15 10 9 10 8 7 8 6 8 9 10 12 12 15 14 12 13 11 12 16 18 20
84 83 86 28 19 14 13 12 18 27 22 10 9 12 12 10 9 9 10 6 9 10 10 10 7 7 8 8 7 7 8 7 8 8 14 13 13 15 12 13 11 11 12 15 17
83 85 72 27 19 12 13 15 20 19 8 17 16 11 11 12 13 10 14 10 11 15 13 11 9 8 7 9 8 9 9 11 11 10 12 10 12 14 10 9 10 10 11 12 14
84 83 48 17 12 12 16 18 26 12 23 20 20 19 19 12 12 11 14 16 10 9 9 12 14 9 7 9 10 10 9 10 19 11 8 9 13 11 9 8 8 9 9 12 13
86 16 15 13 13 14 19 20 16 19 24 24 21 19 16 14 11 13 14 14 11 8 12 12 13 8 8 7 8 11 11 6 7 6 7 6 8 7 8 8 9 9 9 10 13
44 19 16 12 14 16 20 26 27 22 18 18 27 23 27 20 16 15 14 11 12 10 10 12 15 9 8 7 8 9 8 9 8 16 15 8 10 9 11 11 10 10 10 10 10
36 16 16 12 13 15 20 22 22 14 15 20 22 27 33 36 35 19 14 15 14 13 11 11 12 12 9 10 11 10 10 10 7 8 11 12 9 7 10 11 11 10 9 9 9
22 22 16 14 17 15 23 18 31 15 18 21 24 22 28 34 43 32 20 23 19 20 18 12 13 17 11 8 8 8 10 10 11 18 8 8 8 6 6 6 9 10 9 9 9
30 21 13 13 22 22 22 20 21 26 21 27 27 39 40 37 49 54 37 24 19 21 26 16 18 21 16 10 9 10 8 8 9 8 16 10 9 7 8 8 9 9 9 10 11
32 26 19 16 17 25 30 29 27 19 22 20 39 36 41 36 29 40 49 30 20 20 44 35 21 22 17 15 11 13 9 8 9 11 11 10 9 10 10 11 11 11 10 10 12
34 29 32 34 27 30 29 28 37 31 23 22 64 50 44 52 42 70 55 36 21 32 23 22 31 22 16 12 10 10 10 9 11 11 12 10 10 10 10 12 11 10 11 11 13
48 46 35 42 37 34 38 37 28 31 31 28 35 34 31 57 53 59 60 46 43 31 27 20 30 26 22 14 16 15 11 10 9 10 10 9 9 8 9 9 10 10 10 11 12
64 51 64 53 38 39 38 32 29 34 35 32 30 31 30 35 31 26 31 27 28 32 33 31 25 29 30 20 19 23 15 12 10 10 10 12 11 9 10 11 11 12 12 12 11

GFSSW_sfc_rhum_030.txt.gz
RH
74 75 74 74 74 74 74 74 75 75 75 76 78 79 81 84 84 45 25 17 22 64 60 23 20 28 32 35 37 34 61 65 60 38 43 20 26 26 24 27 29 35 44 48 44
74 74 74 74 73 73 74 75 75 75 76 77 78 79 80 82 54 28 24 45 61 57 14 22 23 27 34 32 29 34 92 69 41 39 33 22 20 22 24 26 33 41 42 41 44
73 74 74 74 73 74 74 74 75 76 78 78 78 79 79 69 38 12 49 41 54 48 11 16 18 23 31 26 25 26 60 36 32 30 18 22 18 18 22 28 36 47 45 42 47
74 74 75 75 74 74 75 76 77 78 78 78 78 78 78 48 21 13 60 61 59 15 11 14 19 24 30 27 21 24 48 52 35 28 14 27 40 19 26 26 28 37 38 41 46
76 79 81 80 77 77 78 80 80 79 79 79 78 76 63 33 17 9 66 55 22 11 14 14 20 24 29 23 20 20 35 31 50 39 13 24 46 38 32 20 25 32 35 37 40
80 82 82 82 82 81 80 81 83 79 84 86 80 76 45 33 12 9 16 22 12 11 13 12 15 18 23 22 19 17 16 24 29 28 14 13 26 30 31 19 26 32 35 33 34
82 82 83 82 82 81 81 82 81 81 86 84 82 60 31 23 10 5 8 18 13 12 12 10 10 16 20 22 16 15 19 17 17 16 14 11 14 18 30 20 25 31 34 33 32
83 83 83 82 81 81 82 83 82 79 82 77 81 53 32 13 15 12 4 10 11 12 11 8 9 12 16 17 17 17 16 22 17 16 13 12 17 20 26 21 26 29 32 33 32
84 84 84 82 81 81 82 83 78 77 76 73 64 42 27 22 16 11 6 7 11 14 13 9 10 13 14 20 23 18 21 20 19 14 14 12 15 12 22 20 27 27 29 31 33
84 84 83 82 81 81 83 78 60 77 68 45 38 39 26 16 12 11 9 6 11 14 17 15 14 15 16 18 29 23 19 16 20 15 13 12 14 15 17 38 25 28 27 30 30
84 84 84 82 82 82 59 16 15 34 18 28 26 22 13 12 8 10 9 7 11 16 23 19 21 21 17 17 17 17 15 14 12 12 14 14 16 17 24 57 39 27 29 28 29
85 85 84 82 84 80 49 17 16 15 21 14 14 13 14 14 13 9 8 10 15 22 21 22 24 18 14 14 16 16 16 13 10 9 11 13 13 15 24 46 42 28 41 28 26
84 84 82 84 81 41 14 16 10 12 21 15 10 10 10 10 14 11 8 9 14 20 23 24 19 15 16 16 15 16 17 14 12 9 9 13 15 15 17 16 18 20 28 23 26
82 81 81 87 41 21 14 10 9 11 22 11 8 7 7 6 11 11 7 9 14 18 21 21 15 15 17 16 14 15 13 11 12 12 13 10 17 19 15 14 15 16 21 22 26
81 81 82 88 37 22 12 8 9 14 28 7 6 7 5 7 6 11 9 9 16 13 17 22 16 14 14 14 10 10 7 10 10 11 12 11 14 14 15 15 14 16 19 28 23
82 83 85 30 21 14 9 9 12 22 24 12 10 14 10 7 6 8 13 8 11 12 13 17 13 10 8 8 7 6 7 7 8 9 16 13 13 16 14 17 13 14 14 19 21
82 81 76 32 21 9 9 12 17 23 10 15 20 17 17 14 8 8 15 15 13 18 19 16 16 12 8 9 8 7 8 12 14 13 14 11 13 16 12 14 12 12 13 15 20
83 82 48 22 10 10 12 16 26 14 26 19 16 16 19 15 13 9 12 16 10 11 13 17 17 13 8 8 10 9 8 12 23 15 11 10 14 12 10 9 11 10 11 13 15
80 28 18 14 9 12 16 20 37 30 23 18 16 19 24 22 26 16 12 14 12 10 17 15 15 9 8 7 8 10 11 7 9 8 9 8 9 8 9 9 9 8 10 12 13
52 35 26 12 9 13 18 25 23 18 15 14 22 19 30 25 31 31 22 11 12 9 9 13 16 9 8 7 7 9 8 11 10 20 18 10 12 11 13 12 11 11 9 11 13
39 22 14 10 11 16 18 17 17 12 14 20 19 21 30 56 44 42 32 22 19 12 10 10 13 11 9 11 11 9 10 10 9 10 13 14 9 9 14 13 13 11 11 11 13
38 31 13 11 17 13 16 17 31 25 17 16 15 18 38 45 56 57 52 51 31 21 20 11 11 16 13 8 8 8 10 11 14 21 11 12 10 7 9 10 10 11 11 11 13
42 27 13 13 20 18 17 16 14 28 24 18 20 22 24 38 61 66 66 51 34 28 30 25 20 20 19 11 9 10 9 10 10 10 20 14 10 8 9 10 12 11 12 14 16
47 38 26 24 19 23 24 22 25 23 36 19 19 25 28 36 36 69 65 54 37 30 51 34 27 24 20 18 12 14 10 10 10 13 14 11 12 11 10 10 12 14 14 14 19
49 40 37 42 32 29 26 31 51 34 34 19 29 35 30 36 44 45 46 42 45 40 28 23 34 24 16 13 11 10 10 10 12 12 15 11 10 14 15 14 13 13 16 16 18
94 87 58 53 40 32 33 40 35 26 22 24 30 28 23 32 41 51 50 46 71 39 31 26 34 28 26 16 14 15 10 10 9 9 10 10 9 10 13 15 15 17 16 17 18
73 66 94 64 43 42 37 31 28 29 28 22 39 25 24 24 28 24 22 24 31 36 32 34 34 35 35 23 20 20 14 11 10 9 9 12 12 12 14 15 16 15 14 15 13

GFSSW_sfc_rhum_036.txt.gz
RH
73 72 72 74 74 73 73 73 75 75 76 77 78 79 80 83 85 72 72 37 38 50 71 65 57 42 58 67 63 78 86 84 70 76 84 75 58 53 54 58 51 53 65 58 54
74 74 75 75 74 74 74 74 74 76 77 78 79 79 80 81 84 74 43 48 55 52 46 46 47 32 72 66 66 75 93 72 56 55 56 83 66 64 58 59 66 71 61 54 52
75 75 76 76 76 75 75 76 76 76 78 78 79 81 80 80 78 42 51 57 59 59 28 26 30 29 38 54 65 72 86 62 53 48 38 47 54 51 65 76 71 82 70 60 57
75 77 80 78 76 76 76 77 78 78 78 79 79 80 78 81 34 16 61 62 58 40 24 21 18 34 40 54 49 62 58 54 46 35 33 38 47 55 51 64 59 66 63 63 65
80 83 83 83 81 80 80 80 80 79 78 77 77 80 90 82 48 21 52 67 44 32 26 22 20 27 40 42 45 51 48 43 37 34 34 33 41 42 47 56 56 58 61 64 63
83 82 81 82 82 82 81 81 82 79 77 76 78 76 90 60 22 23 31 52 33 30 24 20 18 18 30 32 43 38 40 37 32 34 36 36 36 44 60 58 61 59 63 61 62
84 82 82 81 81 82 82 81 81 80 78 75 82 71 84 42 18 20 32 45 34 25 26 19 15 20 22 32 25 28 39 33 36 32 33 31 37 54 59 59 63 64 62 60 58
84 83 82 80 79 80 83 82 80 79 76 75 80 70 88 42 40 36 29 25 30 24 16 17 14 21 25 19 19 34 36 46 35 29 30 34 46 52 55 60 65 62 59 58 57
84 83 82 80 80 81 82 82 78 70 77 75 86 85 89 43 44 33 25 22 24 25 18 11 17 23 24 24 28 36 44 44 35 33 31 36 38 54 57 62 66 63 60 58 58
83 83 83 81 81 81 80 81 70 78 75 64 62 88 48 21 18 14 24 21 22 20 20 18 21 29 26 33 35 41 48 41 36 26 33 36 34 58 55 58 66 66 61 58 58
83 83 82 81 80 80 85 46 17 23 19 21 19 37 21 14 10 17 18 21 22 24 31 26 26 30 25 23 25 30 34 37 29 22 23 26 40 58 53 55 63 68 66 60 56
82 82 81 81 81 82 78 23 20 17 23 14 13 15 13 13 17 13 17 23 23 28 26 40 33 23 23 21 22 25 29 34 28 25 26 27 42 49 52 54 57 60 60 56 52
82 81 81 82 85 54 46 28 19 21 27 19 16 15 15 17 17 15 16 22 24 23 26 34 33 24 24 24 24 25 28 27 34 26 23 22 46 41 45 51 51 53 50 51 46
81 79 82 83 50 60 46 28 22 18 39 25 19 15 12 13 18 15 10 19 23 18 19 26 25 24 28 26 22 29 20 21 23 29 36 21 45 63 56 57 52 47 50 52 47
80 77 79 85 88 64 31 38 24 25 26 19 19 13 12 20 20 21 19 16 24 23 18 23 24 29 28 28 23 24 20 21 22 30 38 27 31 66 57 63 57 50 48 45 50
80 79 81 72 81 59 43 30 24 31 37 19 17 17 15 18 19 24 25 25 16 22 21 16 21 23 26 22 23 21 23 25 24 31 40 27 26 29 64 55 48 41 43 40 45
80 82 86 65 38 38 40 31 32 35 20 24 22 18 17 23 22 30 35 43 46 34 28 21 19 18 23 29 25 26 34 42 41 36 35 24 26 22 40 39 40 41 40 42 43
82 84 80 60 67 51 40 38 48 24 30 20 23 21 24 22 29 32 37 47 58 69 30 29 29 20 18 30 31 29 29 43 51 41 29 22 26 20 16 26 26 36 36 42 42
83 74 66 45 42 48 34 50 42 27 21 25 26 31 28 32 33 41 44 49 52 64 90 34 25 17 17 19 24 28 31 22 24 49 25 21 17 14 12 13 23 38 40 42 42
82 88 63 39 36 30 38 53 38 18 24 26 35 33 36 46 42 48 47 37 48 52 58 62 49 17 16 17 20 22 18 25 26 32 38 25 20 15 13 11 14 33 39 41 44
90 79 48 24 26 35 43 44 26 30 30 36 43 46 32 40 44 54 47 44 54 59 61 60 69 30 20 20 22 26 19 21 21 25 26 30 18 14 14 15 11 28 30 38 39
98 93 47 30 37 45 47 36 39 42 38 36 38 36 34 59 44 44 48 65 45 55 85 60 80 84 29 16 16 19 20 17 18 24 29 28 18 16 10 11 10 12 35 35 34
99 95 52 41 73 70 51 44 34 46 49 45 40 34 39 66 62 58 60 45 44 60 91 89 86 96 39 24 18 18 21 15 20 21 22 20 17 14 13 16 16 10 15 28 31
99 94 76 70 65 79 83 68 52 33 36 35 37 37 47 54 54 59 61 48 42 42 68 86 92 92 76 42 35 24 18 17 13 19 18 17 18 16 15 17 18 11 18 23 26
94 90 94 96 84 91 92 68 59 58 41 35 43 44 48 63 44 58 43 40 41 61 73 84 86 60 50 40 40 38 21 17 17 15 17 16 18 16 19 28 26 23 24 27 31
97 94 96 90 93 87 76 68 65 71 63 52 67 45 39 57 52 60 46 48 56 56 73 63 72 57 52 40 37 28 23 22 13 14 18 19 17 16 19 30 30 33 32 31 33
95 89 96 96 95 97 74 68 67 56 72 56 64 61 54 48 42 45 45 45 45 60 69 64 68 73 73 48 32 41 34 25 14 14 14 23 18 27 34 52 56 26 24 35 36

GFSSW_sfc_rhum_039.txt.gz
RH
74 74 75 75 75 75 75 76 76 76 77 78 79 80 80 81 82 76 74 45 46 50 58 52 73 60 65 79 69 63 84 87 72 70 74 67 74 56 59 62 53 56 67 68 67
75 75 76 76 76 75 75 76 76 77 78 78 79 80 80 81 86 82 48 53 52 58 63 66 74 59 79 77 78 86 92 70 52 63 64 65 81 60 71 61 74 68 66 67 62
74 76 76 76 75 75 76 77 77 78 78 78 79 78 79 82 83 42 50 52 59 65 50 46 46 38 74 72 75 79 87 58 50 48 54 68 70 62 66 78 76 75 74 67 60
76 76 76 76 75 75 76 78 78 79 79 79 78 75 78 88 22 25 66 58 62 43 30 30 37 39 50 62 56 84 63 59 50 44 53 64 54 59 62 65 62 60 62 57 59
79 81 83 82 79 78 78 79 80 80 79 78 77 72 90 68 37 21 63 55 54 37 28 26 29 39 47 47 49 66 62 53 54 51 43 41 54 60 63 60 61 56 55 55 59
82 84 84 83 83 81 81 81 81 80 79 77 76 77 90 44 17 24 40 50 44 32 25 23 24 29 36 39 51 47 50 50 44 42 42 39 55 59 61 63 65 59 58 54 60
84 84 84 83 82 82 82 82 81 82 82 76 78 71 90 40 31 38 40 51 43 28 24 21 20 24 24 37 29 33 46 35 37 41 38 34 45 52 65 66 71 64 60 58 61
84 84 82 83 82 82 82 83 83 80 78 77 78 66 91 46 48 46 37 30 38 32 21 23 19 25 28 25 22 37 40 52 36 38 34 35 54 72 66 68 74 70 63 62 63
84 84 82 83 82 83 84 85 77 75 81 80 89 85 85 46 30 27 29 25 38 35 29 15 20 25 27 30 34 33 52 52 43 35 37 38 54 73 68 70 72 69 66 65 65
84 83 82 82 82 84 86 82 69 83 74 68 65 72 40 15 14 12 20 26 28 34 27 23 24 30 37 37 47 41 49 45 41 35 36 45 54 73 69 70 73 72 67 66 64
84 82 81 80 83 85 89 23 24 23 20 22 18 32 18 15 12 13 12 22 24 29 35 28 29 28 21 25 29 33 40 41 36 30 36 44 42 73 69 70 74 75 71 66 63
83 81 80 80 83 88 68 26 26 23 26 16 16 16 14 15 17 14 13 29 35 35 33 36 31 21 20 24 27 26 32 38 31 27 31 34 40 64 69 71 71 73 70 66 61
82 81 80 82 87 62 58 40 27 22 33 21 18 16 13 18 20 22 23 20 26 38 33 36 33 21 24 23 27 27 28 31 33 30 31 36 51 47 67 64 65 66 63 62 60
81 80 80 83 50 68 41 36 43 25 38 22 22 16 12 19 22 16 21 22 22 30 30 33 25 26 25 29 25 32 23 24 26 30 43 30 71 79 70 70 64 68 66 61 58
81 80 81 89 79 49 30 46 45 24 27 21 19 14 14 22 20 22 20 28 32 28 26 28 28 28 30 26 25 29 24 26 26 36 43 33 38 69 63 77 66 61 60 58 58
82 82 84 82 90 64 49 45 22 28 31 24 19 19 19 20 23 24 25 29 33 43 26 23 18 22 24 24 24 24 27 30 35 39 41 31 36 38 60 63 62 57 55 52 50
83 83 89 70 36 55 42 32 30 34 22 25 29 24 25 30 29 31 33 61 77 84 57 35 23 22 22 28 28 30 37 55 52 52 42 32 37 29 43 46 49 52 49 46 45
85 86 81 63 67 54 34 32 45 26 33 24 27 27 30 40 40 38 43 53 60 71 90 79 40 25 17 29 31 34 37 58 66 56 40 33 40 30 27 38 40 42 41 39 41
86 86 65 52 48 48 32 49 43 31 24 29 28 38 37 44 40 46 50 52 60 77 88 91 69 42 18 17 26 39 39 34 40 45 36 33 24 16 19 30 42 40 39 37 37
96 96 74 41 43 34 37 53 43 36 32 32 47 41 48 45 49 58 55 39 50 70 66 72 93 52 29 16 21 32 29 41 39 46 43 32 24 26 21 23 31 42 41 37 35
96 84 52 45 30 36 45 46 33 36 32 40 48 50 43 50 54 64 53 40 45 54 64 80 73 67 51 25 22 27 33 40 37 35 36 33 23 18 16 17 17 34 32 34 36
99 60 48 40 53 60 56 47 40 44 42 42 42 45 42 55 59 52 58 61 48 72 84 74 94 92 73 43 40 19 30 27 34 43 34 33 24 15 14 15 12 18 29 36 39
96 99 68 50 90 90 76 63 43 47 45 48 43 40 39 61 70 62 59 45 63 62 89 86 97 95 54 40 25 23 23 26 25 31 30 33 29 15 17 17 15 16 26 32 39
96 95 87 78 79 90 96 82 61 43 41 44 40 41 48 58 64 64 61 52 57 55 68 89 97 96 85 69 55 53 42 25 20 26 26 21 20 15 12 19 19 21 21 25 35
97 91 96 94 91 98 93 88 63 71 54 52 47 52 61 63 55 60 56 44 60 67 76 95 98 86 74 63 55 49 44 40 26 20 19 18 18 13 13 19 32 34 24 18 28
98 96 96 91 87 96 82 75 70 64 74 83 82 71 63 64 54 60 55 54 64 69 80 90 90 72 66 46 46 45 39 39 38 18 18 18 18 17 36 65 67 51 28 27 33
93 86 94 89 93 97 94 95 93 94 77 71 75 72 66 59 53 54 52 45 51 75 85 93 92 84 84 52 45 53 50 48 39 58 43 23 36 31 70 75 82 87 48 22 29

GFSSW_sfc_rhum_042.txt.gz
RH
75 75 75 76 76 76 76 77 78 78 78 78 79 80 80 78 81 84 81 45 52 52 65 84 77 72 74 84 73 60 90 91 76 72 72 72 70 64 62 60 56 60 72 74 76
76 76 77 77 76 76 76 77 78 79 79 79 80 80 78 78 91 89 54 54 58 59 75 90 85 76 75 86 83 90 93 75 54 61 64 61 70 64 67 63 73 79 75 77 75
78 78 78 78 77 76 76 77 77 79 80 80 80 80 77 84 81 33 60 55 55 59 53 55 53 68 75 78 84 87 93 61 47 57 49 59 66 65 66 74 74 85 87 80 76
79 79 79 79 79 78 78 78 78 79 80 80 80 80 78 94 19 32 63 58 56 56 51 50 58 58 89 88 74 86 74 62 54 49 56 62 59 65 64 67 63 71 75 76 75
79 82 83 81 80 81 82 80 80 81 81 79 78 78 90 60 31 28 56 55 52 58 48 43 54 46 71 76 59 79 71 60 58 57 56 51 56 61 64 64 60 66 69 72 68
81 83 83 83 83 83 84 85 82 82 82 79 78 76 89 33 19 40 53 54 55 47 38 30 47 37 46 52 65 48 52 56 52 52 48 51 54 57 63 60 65 69 69 64 65
81 82 83 83 82 83 85 86 82 84 82 79 78 70 84 46 40 47 48 58 56 37 33 28 25 32 34 42 33 42 44 40 37 47 50 41 64 63 70 61 66 67 62 59 65
81 82 82 81 81 83 86 87 84 79 79 78 70 75 81 48 51 51 40 34 43 48 26 23 20 32 34 28 26 39 36 56 42 37 38 43 62 68 73 69 69 64 59 59 65
84 83 82 82 82 84 87 88 76 80 78 76 91 90 34 38 24 15 24 30 45 44 38 16 23 30 30 36 43 37 64 52 46 38 41 45 60 78 75 75 72 65 60 59 65
84 83 82 81 82 86 88 83 82 85 80 72 67 59 22 16 14 13 17 33 42 40 38 31 30 33 41 46 62 49 48 52 50 38 44 50 54 82 75 78 76 71 63 60 64
84 83 81 81 84 86 93 35 34 34 28 26 20 23 16 14 14 19 15 23 32 36 47 33 36 30 25 36 38 40 46 46 40 32 48 50 52 85 79 76 81 79 73 65 64
83 83 81 82 85 90 72 32 34 35 37 20 18 18 15 16 19 19 22 28 39 45 35 38 36 26 20 22 31 33 36 39 35 29 40 46 49 77 80 78 76 78 75 70 65
83 82 81 84 90 62 54 29 29 24 32 22 19 18 15 20 22 23 26 28 24 40 39 41 30 22 22 27 26 29 37 33 40 29 30 40 50 79 77 74 71 70 68 67 67
83 82 82 88 44 66 32 40 47 35 32 21 22 16 15 21 20 20 22 28 25 34 38 39 26 26 23 25 28 38 26 28 27 37 44 38 55 76 84 81 75 74 71 67 64
83 82 82 89 75 43 33 56 49 23 31 23 21 15 17 21 20 21 21 32 38 36 32 41 36 32 33 23 24 24 25 28 28 39 44 31 43 58 79 92 81 74 70 66 63
84 85 87 81 87 65 59 54 24 25 33 27 22 22 26 25 28 28 30 43 45 55 43 31 21 27 29 25 21 26 34 35 39 42 45 36 33 44 89 76 74 67 66 64 61
86 86 89 74 46 54 60 28 30 32 24 28 32 28 32 39 39 36 51 75 80 60 83 58 39 22 19 33 26 32 34 61 60 57 46 39 34 38 36 61 60 63 59 59 60
89 88 80 67 64 74 33 30 50 27 35 29 30 32 38 41 46 44 45 78 74 78 92 94 50 32 24 27 36 33 37 57 68 62 42 43 48 36 23 42 51 52 51 52 55
87 92 70 52 45 48 33 47 44 34 30 33 31 41 42 42 43 48 54 68 78 77 90 95 81 50 37 30 25 40 42 35 52 57 54 32 39 23 27 26 45 47 48 51 51
95 96 76 50 48 36 42 54 45 39 37 34 42 43 53 45 54 63 58 47 79 70 75 76 92 60 46 39 28 32 32 46 54 62 56 47 34 36 29 31 34 43 45 47 47
96 65 48 52 35 39 53 50 36 37 36 37 43 47 48 50 56 67 53 50 51 68 70 86 93 69 57 52 33 33 39 42 39 47 50 44 36 28 28 25 30 30 45 42 44
97 38 37 51 62 83 75 70 55 45 43 44 42 43 46 53 62 59 61 55 65 70 84 75 99 94 73 52 50 59 39 44 43 50 47 46 35 22 19 22 22 20 41 43 42
96 96 73 56 89 95 87 76 62 49 49 49 46 41 42 54 69 62 60 52 66 77 86 85 97 92 81 48 43 48 34 34 38 41 42 46 46 21 20 20 20 20 24 39 43
95 90 85 84 92 94 93 87 73 46 52 56 45 42 48 62 75 62 63 61 67 62 60 78 97 96 90 67 64 66 52 32 38 35 42 37 36 30 28 25 25 22 23 32 50
97 94 93 94 93 93 91 83 80 71 61 59 57 68 78 82 60 69 60 56 65 66 76 91 98 88 77 80 74 68 59 48 50 39 36 32 30 26 26 26 24 24 26 26 36
97 97 95 94 91 85 93 95 88 84 91 82 94 70 80 99 74 68 56 65 67 80 84 92 97 95 93 65 60 60 46 44 42 39 28 24 25 48 29 55 80 85 82 55 35
86 84 95 87 83 88 93 94 93 95 88 86 90 96 95 81 62 58 52 58 68 85 93 99 100 96 93 56 52 61 51 59 63 67 64 32 53 69 68 93 97 91 90 94 62

GFSSW_sfc_rhum_045.txt.gz
RH
78 77 78 79 79 78 77 78 78 78 79 80 80 80 78 76 78 76 50 29 38 53 68 68 61 61 58 64 67 57 75 74 56 57 58 59 62 66 54 59 52 54 56 59 71
78 77 78 79 79 78 79 79 79 79 79 80 80 79 77 75 76 64 40 50 54 63 64 64 63 59 60 66 68 70 74 61 44 41 49 61 58 61 62 56 67 64 53 63 70
77 76 77 78 77 78 79 80 80 80 80 81 81 79 76 73 57 24 48 65 56 60 52 48 48 49 56 58 66 62 65 53 40 41 46 58 58 56 57 61 60 68 68 73 67
77 77 77 78 77 78 79 80 82 82 82 82 80 78 79 73 14 19 58 63 57 50 59 41 52 53 49 61 58 70 60 56 53 41 45 52 49 52 54 50 47 56 62 67 63
78 79 80 80 79 79 80 81 83 82 83 82 79 78 70 32 16 26 58 54 45 45 46 34 48 42 38 49 55 65 62 54 51 45 44 43 46 48 51 52 49 56 63 62 58
80 82 82 82 81 80 80 82 84 84 85 82 76 77 56 16 20 31 45 46 41 45 37 33 32 34 37 54 43 38 52 50 44 42 41 45 40 44 51 52 58 62 63 57 55
81 82 82 82 79 79 81 84 84 86 81 78 76 61 42 26 27 33 38 42 41 39 34 30 28 27 28 26 33 37 47 37 37 33 39 36 43 49 53 54 61 61 61 56 53
82 82 83 82 80 82 85 86 86 79 80 78 74 62 28 30 32 23 27 37 36 37 22 22 21 28 23 22 21 25 29 37 33 35 33 33 43 44 53 55 61 59 59 58 54
84 83 82 82 83 86 89 88 78 78 79 74 66 64 13 23 12 11 13 25 37 38 23 16 18 23 23 26 26 29 18 28 27 30 32 33 38 49 54 53 59 60 56 54 53
84 83 82 82 84 87 91 81 86 81 74 66 53 30 11 12 11 12 14 32 36 29 22 21 22 22 22 23 21 25 23 33 28 30 32 36 35 56 57 52 56 58 53 52 51
84 84 82 82 86 89 69 31 21 20 21 17 15 16 12 10 11 12 17 28 28 23 20 24 21 25 19 22 18 28 31 23 32 28 32 33 34 52 60 59 59 57 54 50 49
84 84 83 84 87 88 46 24 29 28 25 17 15 14 12 12 16 12 16 26 34 34 24 24 23 17 16 17 23 21 29 29 28 28 31 33 34 33 57 60 59 56 52 50 47
84 84 83 85 89 46 30 26 29 19 21 15 14 13 12 13 18 16 18 23 26 35 32 27 21 17 19 18 19 21 21 27 28 23 24 28 32 32 52 54 56 54 50 47 46
84 84 85 91 43 43 26 31 39 26 18 18 16 14 12 14 16 14 19 24 21 27 31 31 25 21 20 19 17 18 15 20 26 28 31 27 40 35 34 58 58 54 55 51 48
85 85 87 90 46 26 30 41 28 16 19 19 16 12 14 14 17 16 21 26 29 29 30 30 30 30 29 23 18 18 14 16 16 26 30 28 34 32 38 46 53 53 52 50 51
86 87 88 63 55 34 41 32 18 20 21 22 16 18 19 21 25 21 35 33 38 37 37 28 25 23 25 22 18 16 18 19 17 15 26 31 31 31 32 43 44 46 49 50 50
88 89 83 60 38 35 42 19 21 21 20 23 20 19 25 27 27 26 48 50 43 20 34 30 21 20 17 23 21 22 24 30 30 29 21 17 31 30 24 32 32 40 48 48 48
90 89 67 52 41 47 22 22 30 22 24 21 20 22 25 25 31 29 39 48 49 49 43 39 11 32 36 22 23 26 24 26 37 27 16 17 32 28 21 20 27 31 36 44 47
88 55 45 37 40 34 23 28 25 25 22 24 23 25 27 29 24 27 39 56 58 54 37 45 45 36 29 33 31 23 30 19 22 30 26 15 18 20 21 20 19 28 35 42 46
74 62 42 38 37 26 31 44 29 27 26 24 27 26 29 28 29 30 33 42 58 55 48 55 27 35 38 32 25 30 18 32 28 37 34 22 21 18 24 22 22 22 30 37 40
60 32 31 41 26 28 34 38 30 27 29 28 28 28 29 29 31 35 30 40 50 58 51 49 45 22 28 34 29 26 29 26 25 28 28 26 21 17 19 24 23 22 22 28 36
75 20 36 40 42 52 46 58 59 33 32 32 31 29 31 33 37 37 34 28 42 49 55 54 78 64 29 20 25 32 48 27 32 42 31 29 20 16 16 17 17 17 20 21 32
77 74 43 38 55 61 64 61 54 44 42 40 36 33 32 34 40 39 40 37 50 46 58 64 75 46 18 17 26 34 32 37 26 26 39 35 28 16 19 20 20 19 18 28 33
72 52 50 53 62 76 81 70 63 45 50 52 47 36 36 38 44 42 44 54 50 44 61 59 72 51 34 26 41 55 42 40 34 30 36 31 27 21 21 20 18 18 20 20 32
72 79 80 75 66 77 75 72 72 65 59 56 65 58 65 63 50 49 42 40 55 54 63 66 71 54 50 45 45 47 48 45 48 34 33 31 30 25 24 23 21 20 19 22 22
77 87 79 72 81 80 84 82 81 79 83 87 80 71 94 96 60 54 48 45 44 51 63 72 66 60 57 35 43 55 47 44 42 38 30 27 26 30 31 27 24 27 43 44 42
81 78 94 84 81 86 84 94 91 90 89 76 91 98 98 92 83 65 51 51 46 52 60 80 84 73 52 36 50 56 44 40 39 32 28 28 25 47 45 56 65 65 64 64 63

GFSSW_sfc_rhum_048.txt.gz
RH
76 77 77 77 78 78 79 79 80 80 80 80 80 77 76 74 75 55 25 25 28 43 63 40 40 40 36 50 44 48 51 53 40 42 49 44 55 55 58 52 43 40 41 44 55
76 76 76 76 77 78 79 80 80 81 81 81 80 77 74 72 45 31 26 42 52 54 42 41 43 38 37 39 43 47 41 37 31 30 34 42 56 46 47 44 48 47 44 52 55
76 76 76 76 76 78 79 80 80 82 82 81 80 78 77 61 32 22 49 61 62 52 29 28 28 32 28 32 36 38 40 35 31 29 33 43 48 40 40 45 43 48 62 62 55
76 77 77 76 77 79 79 80 81 82 82 82 80 77 79 43 14 14 60 63 70 35 28 27 28 28 25 34 31 38 36 36 33 32 34 39 34 39 44 38 34 39 49 53 50
79 80 81 80 79 79 79 81 82 82 83 83 79 78 56 22 11 17 55 59 34 32 31 28 28 24 23 21 25 33 34 39 41 36 32 40 39 43 40 36 34 37 46 47 44
82 83 83 83 82 80 80 82 83 83 85 82 76 77 33 12 16 16 28 31 25 29 29 21 22 18 18 19 21 19 24 40 40 32 33 40 33 34 33 36 39 42 45 42 40
83 83 82 82 79 80 82 84 84 86 79 77 76 47 14 14 13 14 20 26 24 23 24 17 16 18 14 19 18 19 29 24 32 34 32 29 30 33 37 37 43 44 45 42 40
84 84 82 82 81 82 85 87 85 77 78 75 75 39 15 11 12 10 15 25 25 24 19 18 17 16 15 14 13 16 15 22 20 25 26 28 36 32 36 38 44 44 43 43 40
85 84 83 83 83 87 89 88 78 77 79 74 42 30 11 20 9 9 11 23 23 23 18 18 17 18 18 15 12 11 12 16 20 23 25 28 27 35 34 35 42 44 43 42 41
85 85 84 84 85 88 90 81 84 76 56 42 30 18 9 11 9 11 16 21 25 26 17 16 17 17 16 13 13 11 12 12 17 23 26 27 26 34 35 33 40 43 43 43 40
85 85 84 84 86 89 58 26 26 15 10 12 11 11 9 9 8 13 17 22 22 28 23 14 17 17 12 12 10 14 12 13 17 18 29 29 26 29 36 34 40 42 43 42 40
84 85 85 85 89 88 37 16 24 21 15 11 11 10 9 10 11 10 15 23 20 23 18 17 17 12 12 11 13 12 18 19 16 18 24 26 26 22 33 35 38 39 39 39 37
86 85 86 87 87 45 17 21 22 20 15 11 11 10 9 9 12 11 13 18 24 19 16 16 13 10 12 14 15 14 13 14 19 21 19 25 28 25 24 33 34 34 34 35 35
87 86 88 93 48 19 17 21 21 21 14 15 12 10 9 11 12 9 12 17 18 23 20 16 11 15 14 15 12 13 10 10 12 19 25 21 29 28 23 32 34 35 34 33 34
87 86 88 94 30 17 23 21 16 15 12 15 12 9 10 10 12 11 14 13 16 18 23 22 19 19 20 16 12 14 10 10 11 12 19 23 28 25 22 27 33 32 33 31 34
87 88 89 48 28 22 21 19 15 16 15 16 12 13 13 13 14 12 16 17 21 15 19 18 18 19 16 16 16 14 14 13 12 10 13 18 23 24 21 24 22 27 28 32 32
87 90 72 34 24 21 23 15 15 13 15 17 15 13 15 16 16 15 20 18 15 14 17 16 17 16 16 19 17 17 17 21 20 16 13 10 16 23 18 17 20 21 25 28 30
89 90 65 29 22 23 21 16 23 15 16 15 14 15 16 16 18 17 20 18 22 19 12 12 12 14 23 19 19 20 16 20 30 16 11 10 14 14 15 16 15 19 19 24 27
90 26 22 22 23 24 20 19 15 18 15 16 16 18 18 18 17 17 21 21 24 22 18 16 14 22 20 23 22 20 21 14 17 14 14 9 10 7 11 15 16 16 19 20 26
41 26 22 22 22 21 20 30 21 18 18 18 23 20 22 19 22 21 19 25 27 25 20 25 17 13 18 17 18 23 14 20 19 32 30 17 16 10 14 18 16 16 16 19 24
32 23 22 22 19 21 24 26 27 20 22 23 24 23 22 22 22 22 21 23 26 30 26 21 20 16 14 10 11 18 23 22 17 19 24 24 16 11 12 13 17 16 15 15 22
31 17 23 23 26 28 29 40 53 26 23 24 25 24 24 23 25 26 26 20 25 26 26 26 25 30 16 8 10 13 25 20 23 30 22 21 17 9 11 10 10 13 14 14 18
36 28 24 23 34 36 41 38 39 34 32 34 31 27 25 28 34 26 24 18 26 25 27 31 31 32 13 9 11 15 13 21 23 24 31 26 22 13 13 14 13 12 12 16 17
36 34 33 35 44 57 61 47 44 35 37 40 39 34 35 34 26 33 28 28 28 24 46 32 25 31 19 16 16 27 24 21 23 28 27 24 24 19 17 15 15 15 16 13 14
40 47 50 56 51 53 51 54 59 58 41 37 45 46 52 62 43 36 34 33 31 35 41 38 57 32 26 24 21 20 16 22 34 34 37 26 22 19 19 17 15 14 15 16 17
49 60 57 60 66 54 58 56 60 71 74 62 63 53 74 95 54 50 49 41 38 38 43 38 54 36 33 24 24 22 16 15 20 27 31 31 30 20 16 18 17 16 16 19 23
61 68 75 77 66 68 68 91 83 77 69 66 72 90 93 86 77 74 52 58 67 50 52 62 56 52 40 23 20 23 19 20 17 21 27 34 26 20 21 24 22 21 21 28 31

GFSSW_sfc_rhum_051.txt.gz
RH
76 77 77 77 76 78 79 80 80 81 81 80 80 80 76 76 76 46 18 26 27 44 56 28 27 28 27 31 33 33 53 53 40 45 43 36 48 48 55 51 42 38 37 42 44
76 76 77 77 76 78 79 80 80 81 81 81 80 80 76 74 41 20 33 44 52 51 37 26 30 28 29 29 32 40 38 42 35 26 48 35 38 41 48 40 39 37 35 41 46
75 76 79 77 76 78 79 80 80 81 81 81 80 79 77 62 27 18 53 55 59 50 30 23 23 26 27 22 26 28 33 28 27 25 28 33 41 37 46 40 35 39 47 48 51
77 77 79 78 77 79 79 80 81 81 82 82 81 79 76 43 18 16 50 55 65 30 33 24 22 25 23 22 21 27 23 23 34 26 33 50 50 37 36 74 28 37 45 48 47
81 83 83 82 79 79 80 81 82 82 82 83 80 77 61 25 10 12 52 52 38 25 31 24 22 22 20 15 19 24 23 30 31 28 30 32 44 40 40 29 29 38 44 44 40
83 84 83 83 82 80 81 82 83 83 84 82 79 76 45 14 10 10 20 28 23 18 24 20 18 17 15 14 16 15 19 28 30 33 32 32 37 34 38 27 33 40 42 38 37
84 84 84 83 80 80 82 84 86 84 78 77 74 52 17 11 9 9 16 17 14 15 20 17 14 16 14 14 11 13 18 17 30 27 47 34 45 42 28 28 34 38 40 36 35
84 84 84 83 81 83 86 87 86 76 75 74 75 39 13 8 8 8 11 18 16 17 18 14 12 14 14 10 11 14 15 22 22 25 27 26 39 25 27 30 35 36 38 37 34
85 85 85 86 85 87 89 87 81 76 76 73 52 30 10 16 8 8 8 18 19 18 17 14 15 16 14 13 13 9 14 17 15 21 24 24 45 71 26 29 34 37 36 35 35
85 86 86 86 86 87 89 87 75 73 63 30 21 16 8 9 7 9 10 14 18 21 18 18 18 17 14 14 13 9 10 10 14 18 21 25 43 60 25 27 34 36 35 36 34
85 86 86 87 87 88 55 26 28 26 13 10 8 9 8 7 6 11 15 16 18 20 18 17 19 16 14 14 10 8 7 10 10 13 23 29 37 81 25 25 33 36 36 35 34
87 87 87 87 88 89 45 12 16 16 15 8 8 7 7 8 8 11 13 18 18 25 18 13 14 12 10 9 10 9 10 10 9 12 22 27 33 29 25 26 30 32 34 33 32
87 87 86 88 89 50 13 14 13 14 15 9 7 7 7 7 9 8 10 15 17 19 18 17 11 10 10 11 11 11 10 10 14 14 16 27 33 29 31 24 27 27 28 31 31
87 86 87 90 54 11 13 13 12 13 15 11 9 8 7 7 9 7 8 13 14 17 12 12 10 10 11 11 11 13 9 8 10 17 22 19 36 34 29 29 28 27 27 28 29
86 85 88 92 31 13 15 12 10 13 14 11 9 7 7 8 9 8 8 10 14 12 15 16 12 10 13 10 10 12 9 8 8 10 14 18 26 30 24 44 26 26 27 25 28
84 84 87 41 25 14 12 12 12 14 14 12 9 10 9 9 10 8 9 8 11 13 14 15 11 11 10 10 10 10 11 11 9 8 13 15 19 21 24 26 26 22 24 25 26
83 87 74 26 17 13 13 14 15 11 11 13 10 9 10 11 11 10 12 11 10 12 11 11 12 14 13 14 12 13 14 19 19 15 13 9 16 20 15 21 20 20 22 24 24
84 88 58 17 13 14 16 16 21 10 10 10 10 10 11 11 11 11 12 12 12 12 11 9 10 9 11 14 15 15 14 16 28 17 11 8 12 13 13 12 36 31 22 20 22
88 21 15 13 14 15 19 18 13 13 11 11 10 13 11 13 14 14 13 12 13 12 14 9 10 11 14 12 13 16 18 11 12 11 12 9 8 6 8 11 13 16 18 24 21
40 18 16 13 13 16 19 25 14 14 13 13 17 14 17 14 16 16 15 14 16 16 14 14 20 9 10 14 14 17 14 18 15 25 26 15 13 8 9 10 11 15 16 20 20
42 20 17 15 15 19 21 22 21 17 17 20 20 20 18 18 17 17 17 15 16 17 15 11 16 11 9 14 11 9 14 18 16 15 19 20 14 9 10 9 10 11 13 15 16
24 20 19 17 26 20 25 30 49 21 19 21 21 22 23 20 21 21 20 17 15 17 19 13 14 15 11 7 4 5 10 10 18 29 17 14 14 8 8 7 8 10 12 12 14
28 22 20 19 33 27 30 27 27 26 26 27 28 24 22 27 34 27 23 17 17 18 21 18 22 20 18 12 10 9 9 13 13 13 24 19 15 9 10 10 11 10 10 13 14
29 29 25 25 27 30 35 33 30 26 27 29 29 29 32 35 28 32 25 20 18 20 38 28 22 24 18 19 14 14 9 9 12 18 19 18 18 13 14 14 13 13 11 11 14
30 36 38 33 33 33 34 35 37 40 32 30 35 37 39 48 39 42 30 26 24 27 29 26 33 27 21 18 16 15 14 13 16 17 19 17 20 18 17 18 15 12 13 14 12
36 41 29 35 41 36 44 50 48 55 59 44 53 46 44 62 52 56 65 60 39 27 30 26 44 38 37 20 17 16 14 14 12 11 17 21 23 16 18 18 19 18 15 16 16
39 40 39 60 40 46 51 58 57 49 47 41 48 58 63 50 41 36 31 37 65 50 52 46 43 51 46 25 20 24 18 15 13 12 11 15 18 17 19 20 20 18 16 16 15

GFSSW_sfc_rhum_054.txt.gz
RH
78 79 78 78 76 77 79 80 81 81 81 81 81 81 81 77 78 53 22 25 30 40 41 19 26 28 30 34 30 28 62 63 64 50 85 61 57 50 42 60 50 46 45 44 37
76 77 77 78 77 77 80 81 81 81 81 81 82 81 80 76 50 29 42 52 47 45 18 27 28 28 32 31 29 37 52 44 43 44 50 61 43 44 48 45 47 42 41 40 38
76 76 77 77 76 78 80 80 81 82 81 81 81 81 79 66 43 19 48 50 51 49 23 23 20 26 29 26 27 29 40 31 38 36 44 44 35 35 47 43 38 50 48 44 42
77 77 79 78 78 79 80 81 82 82 82 81 81 80 76 47 26 20 56 58 64 28 24 30 22 26 28 28 22 27 23 24 25 34 33 62 65 50 76 85 61 42 43 46 44
81 83 83 82 80 80 81 82 83 83 82 81 82 78 66 34 19 16 58 56 36 23 24 33 25 24 26 21 19 20 21 21 24 36 32 45 62 77 64 52 45 40 44 48 42
84 85 85 85 84 81 82 85 84 86 83 83 80 75 45 31 8 8 12 27 20 16 21 29 22 18 19 18 15 16 17 18 23 27 31 39 64 62 52 47 38 43 48 46 42
84 85 86 86 83 81 83 85 85 86 82 74 77 52 38 20 7 7 11 17 18 14 18 23 17 16 16 16 12 12 16 15 18 29 30 30 37 39 46 53 42 44 46 43 40
85 86 86 86 85 85 88 89 85 84 73 73 73 44 32 7 6 7 9 14 14 13 12 16 15 15 15 13 10 12 13 19 15 29 30 31 43 34 60 85 44 43 41 42 42
86 86 87 87 88 87 88 88 81 81 75 70 56 39 22 17 8 6 7 14 14 13 16 15 15 16 14 19 15 12 15 18 17 19 26 30 40 52 74 91 43 43 39 39 43
87 86 87 88 88 88 90 85 64 72 59 33 25 22 11 7 6 7 7 13 16 18 19 20 18 18 18 17 21 14 11 12 15 13 20 28 42 59 77 74 39 39 37 38 40
87 87 87 88 87 88 62 20 30 36 24 16 12 11 7 6 6 9 10 11 15 20 24 22 23 25 18 15 14 11 9 7 9 9 21 30 64 54 57 55 44 38 37 36 38
88 87 87 87 87 87 54 18 13 13 17 9 6 7 6 6 7 10 12 16 19 26 18 17 24 18 11 12 13 14 12 9 7 7 14 43 63 56 52 63 50 34 35 34 33
88 87 86 86 87 52 17 13 10 10 14 8 6 5 6 6 7 7 9 14 17 18 20 18 13 12 12 12 13 11 12 10 9 9 11 15 60 66 49 45 72 28 30 31 33
86 84 84 87 55 15 12 11 10 10 17 11 8 7 6 6 7 6 6 11 13 16 14 17 13 11 11 12 11 13 9 9 9 10 16 14 26 61 61 61 85 69 30 30 31
83 82 84 88 40 20 13 9 9 11 21 10 8 6 6 7 8 8 6 8 12 12 14 15 14 14 13 11 10 12 9 10 10 10 12 16 21 21 44 67 87 78 30 28 30
82 83 87 33 38 18 9 10 11 17 16 11 8 8 8 7 7 8 8 7 9 10 10 11 9 9 10 9 9 8 10 11 11 9 13 12 15 19 24 47 58 72 54 36 28
84 86 80 28 21 11 9 13 18 16 9 13 9 8 8 9 9 8 9 10 10 13 13 12 12 12 12 11 9 10 12 18 19 17 14 9 10 14 15 28 51 55 74 61 29
86 89 48 18 12 10 13 18 26 11 9 8 8 8 9 8 9 9 10 11 9 9 11 11 9 8 11 15 14 13 13 17 27 19 15 12 12 10 8 14 30 43 50 56 26
88 31 26 14 11 12 17 22 16 13 10 9 8 10 8 7 10 11 12 10 8 9 14 12 11 7 6 10 12 15 17 11 14 12 14 11 10 8 7 9 17 35 36 57 49
56 30 15 12 10 13 19 27 15 13 13 13 15 12 15 11 13 13 13 10 10 13 13 16 20 10 9 10 10 12 12 18 16 28 30 15 15 11 12 11 15 32 37 48 63
51 26 16 14 14 19 22 24 20 16 17 19 20 20 18 17 15 15 14 13 13 14 15 14 14 12 10 12 13 13 14 17 18 20 23 22 16 12 15 12 12 32 40 29 39
29 26 18 16 26 22 29 26 45 19 18 19 20 21 22 21 23 22 21 16 14 13 19 15 13 17 13 8 8 10 11 8 13 31 23 20 15 8 12 8 8 8 11 31 38
36 22 17 18 33 29 25 21 22 22 22 23 25 23 24 26 34 24 22 16 16 18 23 19 20 23 19 11 8 9 7 7 7 9 22 24 19 10 10 13 10 9 10 15 44
39 30 22 20 21 25 29 28 26 22 24 24 25 23 27 29 28 35 33 22 20 17 38 25 23 28 23 18 18 17 11 9 8 14 16 12 17 16 20 27 26 20 20 14 18
27 30 32 35 31 28 30 31 37 40 30 27 30 34 38 41 35 30 26 34 35 31 23 24 33 28 24 21 18 18 16 13 11 11 16 14 14 15 29 30 30 26 23 24 18
40 38 26 33 30 29 41 37 39 34 38 34 37 33 34 42 38 39 35 38 44 35 36 23 35 32 34 24 22 22 16 14 13 10 9 11 14 12 16 19 23 24 25 26 27
31 31 32 46 33 34 40 44 40 42 43 34 39 44 43 38 32 28 27 28 32 39 48 39 41 46 47 29 28 32 22 16 14 14 14 15 15 13 14 16 20 22 22 24 27

GFSSW_sfc_rhum_057.txt.gz
RH
77 77 77 78 77 77 79 82 82 82 82 82 82 84 85 85 83 67 41 28 28 53 47 25 28 32 47 58 57 49 65 79 66 59 82 71 67 56 51 70 58 51 56 48 42
76 76 77 78 78 78 79 81 82 82 83 82 82 83 83 83 66 51 41 61 62 60 15 26 33 33 44 46 44 48 59 57 43 45 66 81 67 52 56 63 61 54 48 45 44
76 77 78 79 78 79 80 82 82 82 82 83 82 83 82 76 60 32 51 60 64 53 14 19 25 31 44 42 42 38 52 40 37 40 49 73 89 46 54 62 56 61 55 48 47
76 78 80 81 80 81 81 82 83 83 83 83 81 83 79 67 44 25 60 62 64 29 19 26 35 34 44 42 34 42 32 31 31 46 68 83 92 69 65 82 72 55 48 46 47
79 82 83 84 83 83 82 83 84 84 86 82 82 80 82 58 33 26 64 63 48 32 22 28 42 35 40 34 29 32 28 23 29 46 66 72 65 72 71 69 65 52 47 46 45
81 85 86 85 85 83 84 86 85 84 88 84 83 79 69 54 11 22 39 45 29 27 22 26 38 31 30 30 28 23 22 20 20 44 57 57 65 64 64 55 67 54 50 46 45
84 86 87 87 84 84 86 88 85 83 87 75 79 62 50 46 12 9 12 38 30 22 20 23 30 37 26 27 20 17 19 16 20 31 47 55 75 70 59 56 58 54 49 47 44
85 86 87 86 86 87 88 89 86 80 84 73 73 59 60 22 10 9 9 15 25 20 15 18 25 32 25 20 20 19 18 25 18 28 32 38 76 79 80 75 57 54 51 49 45
87 87 88 88 88 88 89 89 82 75 79 72 82 70 44 20 10 9 11 14 21 22 16 12 18 28 24 27 33 29 27 21 18 16 34 42 80 83 81 73 59 56 54 50 49
88 88 88 88 88 88 89 84 68 65 68 47 40 49 29 13 8 9 9 9 18 18 18 18 29 34 31 34 42 36 24 18 16 16 34 45 84 79 75 71 64 53 51 50 49
88 88 88 87 87 87 86 40 48 53 36 36 33 23 11 8 7 9 10 12 19 24 35 31 43 40 30 26 22 20 21 18 12 11 29 46 78 85 78 71 80 82 58 50 48
88 87 86 85 85 86 85 38 20 18 23 15 18 13 7 7 8 11 14 15 24 32 30 34 40 30 22 21 21 19 20 20 16 10 16 48 63 66 74 70 79 90 56 49 44
86 85 84 85 86 70 32 23 14 15 25 15 9 8 7 8 8 12 15 18 23 28 30 31 25 21 21 22 18 18 22 20 18 12 24 56 70 68 58 57 72 83 71 52 42
84 84 85 87 67 32 27 17 13 14 32 17 10 8 7 9 9 7 7 12 16 24 22 25 19 17 20 20 17 23 15 13 12 16 24 49 82 73 66 72 77 78 81 68 46
84 84 86 90 68 36 21 12 14 18 41 11 10 8 8 9 11 10 7 10 14 14 18 22 18 20 21 16 13 16 14 14 14 17 19 15 24 68 60 87 77 82 71 59 63
85 86 88 56 75 41 24 14 20 32 33 12 10 10 11 9 8 9 10 10 10 13 13 14 10 14 17 14 13 11 13 15 18 22 26 17 20 30 70 73 76 64 62 56 58
87 87 90 44 36 21 14 20 38 33 12 13 12 9 10 10 10 11 11 14 17 21 21 16 14 13 12 16 12 14 32 33 37 30 29 19 18 16 54 53 64 62 61 56 54
87 89 67 37 25 18 21 33 46 17 14 10 9 9 13 11 12 11 15 15 13 13 16 19 18 9 10 19 26 19 19 34 38 36 27 20 25 19 10 45 49 46 55 62 57
88 47 40 30 28 19 32 42 30 19 15 14 12 17 15 10 14 15 19 16 13 19 26 27 21 13 11 11 18 25 30 17 25 20 30 22 19 14 12 30 47 47 49 59 61
77 53 36 17 15 23 38 41 26 20 18 18 24 19 24 17 17 18 18 14 16 17 20 25 30 18 11 10 16 21 21 30 27 39 42 29 26 27 19 12 42 48 51 64 68
68 54 27 18 22 38 43 35 26 18 19 23 26 27 27 27 26 26 24 21 18 17 20 27 29 23 16 18 20 22 29 33 29 39 43 36 27 19 22 25 41 46 46 56 58
55 51 25 23 45 39 38 29 37 22 21 23 25 26 33 30 32 31 28 24 18 20 27 26 33 34 23 14 12 14 22 24 32 34 40 46 35 18 22 30 30 38 37 55 63
66 43 23 23 39 36 30 25 24 25 28 28 28 27 29 37 46 36 32 24 24 24 44 32 42 46 30 20 18 20 16 16 16 16 18 26 31 27 25 26 29 34 33 44 58
64 46 36 30 30 35 40 36 36 27 30 27 31 34 38 43 37 45 35 26 30 29 35 34 39 46 49 41 31 30 23 19 22 20 20 19 19 13 27 27 24 29 28 42 62
57 41 42 46 41 38 36 38 34 38 32 32 38 35 41 52 44 43 35 37 34 37 41 41 50 42 33 27 26 26 25 21 23 24 30 17 18 34 26 24 24 21 21 25 32
57 60 47 45 40 37 47 48 40 43 46 41 47 41 43 55 52 53 45 44 47 40 47 48 64 43 41 30 29 31 28 26 25 20 18 18 15 15 16 15 16 14 14 16 19
48 49 54 51 40 43 50 45 41 46 42 38 46 59 54 45 42 40 38 37 37 44 58 69 83 83 69 42 41 50 31 28 26 23 19 22 20 17 22 20 19 20 20 20 16

GFSSW_sfc_rhum_060.txt.gz
RH
76 76 76 78 79 78 79 81 82 82 83 83 84 84 86 89 87 78 52 29 30 72 51 48 47 37 52 70 60 52 89 83 63 58 78 80 79 70 60 66 54 52 55 51 54
76 76 78 80 80 80 80 81 82 83 82 83 84 84 86 86 75 60 44 49 53 64 19 31 34 38 52 67 65 76 90 73 51 58 69 74 77 56 63 72 61 63 48 45 51
76 78 81 82 82 82 82 82 82 83 83 83 84 83 87 83 72 46 52 64 67 58 17 17 28 38 51 50 58 55 71 52 44 55 60 64 67 66 59 74 62 65 54 50 51
78 81 83 83 83 82 83 82 83 83 84 85 83 84 85 80 44 28 64 64 69 34 19 20 28 45 50 55 47 60 43 38 38 59 68 79 75 72 65 70 59 57 49 49 52
80 83 84 84 84 83 83 84 85 84 83 85 83 85 88 73 37 31 66 60 55 34 23 25 41 48 47 47 45 44 39 37 32 64 62 60 75 68 66 69 62 60 49 50 50
82 84 85 85 84 83 83 84 85 84 82 87 85 83 82 62 28 37 45 53 41 34 30 23 37 42 44 39 42 33 30 27 59 68 72 78 70 69 60 65 68 63 52 50 51
83 85 86 86 84 83 84 86 86 83 81 85 77 72 66 42 23 39 46 51 39 34 27 22 24 38 46 40 29 30 30 20 38 67 72 61 79 72 62 64 74 67 49 49 51
84 84 86 85 85 85 88 89 86 82 78 80 76 81 73 35 37 21 44 45 34 30 22 20 22 33 46 37 26 29 28 27 27 63 60 53 78 74 69 72 70 56 50 49 52
88 87 86 87 88 88 89 88 81 75 76 76 91 91 59 32 13 10 11 14 36 29 24 13 20 31 36 37 37 37 42 31 20 28 66 67 94 74 67 69 68 58 52 50 53
88 88 88 87 87 87 89 87 75 74 76 62 54 68 36 21 11 9 10 17 29 29 27 24 26 35 44 43 52 44 42 28 23 15 50 70 87 84 76 71 66 60 55 52 52
88 87 87 86 86 87 91 63 37 46 53 47 46 32 15 15 8 9 12 12 22 26 35 32 47 56 46 35 30 30 30 28 22 17 23 69 86 88 82 74 71 70 65 54 54
87 87 86 86 87 87 96 45 30 20 26 23 26 26 21 15 10 10 11 17 28 38 36 43 53 39 31 27 27 30 31 28 21 18 24 85 93 86 81 73 68 68 65 57 52
86 86 86 88 88 84 53 29 23 25 31 21 16 14 16 9 10 11 18 19 28 33 36 46 36 28 31 32 30 32 34 28 24 20 59 73 90 92 83 73 70 70 65 72 52
87 87 88 87 61 56 36 26 22 21 36 24 18 11 9 8 11 8 10 14 20 30 30 40 28 25 29 31 29 42 22 18 19 23 35 58 90 86 87 86 87 74 69 73 63
87 87 89 92 91 47 23 31 27 22 42 16 13 9 9 9 12 10 10 11 19 17 21 28 24 28 28 24 24 26 19 19 21 25 26 26 25 71 76 83 92 74 64 64 57
88 88 88 82 95 61 44 36 24 33 41 15 12 12 11 12 11 11 12 12 14 16 18 16 13 16 20 18 20 16 18 20 25 27 33 26 22 77 80 83 83 79 76 68 54
87 88 90 65 38 40 34 29 40 39 17 17 16 13 13 13 12 12 14 18 17 19 20 15 14 14 14 21 20 18 26 35 36 32 33 30 24 21 60 50 70 74 69 58 50
88 91 88 56 59 46 33 36 45 22 25 17 12 12 14 13 15 13 15 17 17 19 20 20 18 13 12 21 26 26 24 34 37 40 35 26 28 19 34 45 51 56 52 54 52
91 77 64 44 46 39 35 48 47 29 22 23 18 19 28 22 15 17 17 24 23 25 25 32 26 17 13 13 20 28 32 23 30 54 34 31 25 21 25 27 58 54 56 61 58
97 84 63 38 38 32 40 63 35 25 22 25 34 31 37 32 32 32 26 24 22 21 27 33 28 22 15 14 17 36 23 30 38 42 46 36 33 31 38 46 51 59 58 51 65
84 64 36 30 31 41 50 55 29 25 24 28 35 40 42 41 35 36 34 27 23 23 26 34 32 26 18 22 26 21 26 30 33 44 47 44 34 36 42 40 43 55 52 51 63
92 51 29 33 48 59 47 36 37 33 29 32 31 36 41 40 44 43 42 36 28 30 41 38 40 44 28 23 18 19 30 30 37 35 45 50 40 30 31 32 28 35 51 64 67
94 85 31 28 57 59 46 35 31 36 37 36 41 40 42 47 50 42 38 34 31 37 45 36 49 51 30 31 32 33 29 33 32 28 24 25 25 25 27 31 27 27 58 60 77
88 52 47 45 49 49 52 43 43 31 36 34 38 40 45 50 50 49 43 32 31 39 45 38 49 51 55 49 37 36 30 29 35 35 32 28 24 27 22 21 20 27 37 81 91
75 56 52 59 53 49 45 47 50 54 45 47 52 51 55 62 60 62 51 46 36 46 46 48 54 52 48 34 33 33 32 30 39 40 37 27 25 24 26 22 18 19 24 55 80
66 67 61 58 49 48 62 59 52 54 54 58 64 54 56 74 77 74 62 64 60 46 55 66 73 72 61 42 42 44 39 35 30 31 33 30 26 24 28 24 24 22 22 34 42
72 74 58 62 62 65 66 61 55 58 50 48 57 67 66 61 57 61 58 58 55 67 58 70 82 86 86 58 53 54 43 38 36 36 37 42 35 30 34 31 27 47 45 46 46

GFSSW_sfc_rhum_063.txt.gz
RH
77 76 79 81 81 81 82 82 82 82 82 82 83 84 85 88 89 86 56 28 35 68 71 70 64 47 64 76 66 59 87 90 72 68 82 71 83 77 68 62 46 57 58 68 67
76 78 81 82 82 82 82 82 82 82 82 83 84 84 85 88 85 69 48 44 50 68 43 53 51 42 63 78 72 82 95 86 60 63 73 78 74 76 66 64 58 54 60 64 74
78 81 82 82 82 82 82 83 83 83 83 84 85 84 87 88 82 45 52 51 57 68 18 29 36 42 58 58 77 71 78 61 51 58 62 73 70 59 64 71 64 62 69 68 77
80 82 83 83 83 82 83 83 84 84 84 84 85 83 86 90 35 32 58 63 65 38 19 21 35 51 57 60 51 69 51 49 46 56 59 69 69 69 67 67 57 52 60 65 72
82 83 84 84 84 83 83 83 84 85 84 84 85 86 87 79 37 40 56 68 61 28 23 24 42 50 55 53 50 57 50 41 38 54 58 55 66 69 71 68 62 50 56 63 64
82 83 84 84 84 83 83 84 85 85 83 82 86 86 80 46 27 52 47 61 50 33 27 31 36 43 52 46 50 38 39 39 46 68 58 61 71 65 69 72 69 54 56 56 61
83 83 84 83 83 83 83 85 86 84 82 81 80 72 76 31 32 50 47 58 43 31 32 24 29 41 51 54 38 38 44 34 73 70 73 67 77 73 75 70 76 61 53 53 53
84 84 84 83 83 84 87 89 86 83 80 82 81 82 73 37 41 45 54 49 40 38 25 25 26 36 49 42 33 32 32 33 69 74 66 73 74 80 77 78 81 69 54 52 52
85 85 84 84 86 88 89 89 84 76 77 80 92 88 58 38 35 28 48 34 41 39 32 15 25 35 36 46 46 40 48 40 47 73 71 80 84 76 73 76 78 70 58 53 54
88 88 88 88 88 88 90 87 79 82 77 64 60 70 38 22 14 12 31 29 39 32 29 28 29 35 49 53 66 48 45 40 30 69 75 83 87 79 72 72 73 67 60 54 54
88 88 88 88 88 90 91 69 37 44 70 42 36 38 24 21 10 12 12 26 26 34 45 32 38 49 44 43 38 36 37 35 30 22 23 80 80 86 77 77 73 72 67 56 53
88 88 89 88 90 91 92 39 36 32 31 28 34 35 27 25 17 11 12 19 31 38 37 47 51 41 37 35 33 33 37 38 28 22 27 43 84 88 86 77 73 72 68 60 54
89 89 89 90 91 86 55 33 30 41 38 23 22 22 19 23 15 11 14 19 32 38 41 49 39 33 36 40 38 42 42 39 32 25 76 88 87 95 89 79 75 73 66 65 54
89 89 89 90 57 63 37 32 38 29 37 24 24 15 12 9 12 9 16 16 21 34 36 43 32 33 35 38 38 53 33 29 26 28 28 72 86 88 92 91 82 79 75 68 54
89 89 90 92 92 52 27 46 43 23 42 19 15 9 11 10 12 11 10 11 18 19 32 38 30 39 35 29 31 35 27 26 26 25 31 32 43 64 96 93 85 85 77 69 59
89 90 88 89 93 64 55 39 23 33 38 17 13 13 12 13 12 12 12 11 14 15 19 16 14 19 26 23 24 24 29 25 30 30 33 26 27 61 90 82 76 77 75 67 60
90 92 90 71 33 49 42 30 37 40 22 21 18 14 14 15 14 16 16 18 18 22 22 19 16 16 17 24 22 24 29 38 38 36 34 33 27 23 62 70 62 69 72 58 62
90 94 91 68 67 51 34 35 47 29 32 24 18 15 20 16 18 15 19 28 22 22 21 21 19 16 15 22 25 25 27 36 40 41 34 34 28 25 35 42 57 55 58 58 62
92 79 71 54 59 42 37 48 50 38 28 28 29 34 36 30 24 20 31 36 27 28 26 33 28 18 16 16 20 28 31 26 38 57 34 34 28 27 40 43 45 62 67 68 64
92 83 54 46 41 35 54 60 42 33 30 30 40 39 48 38 35 35 38 32 32 27 32 37 32 26 18 17 17 26 27 38 38 41 41 38 38 53 48 41 42 67 66 66 65
83 50 36 38 36 42 61 53 36 31 28 36 44 46 48 48 45 44 48 35 34 30 32 54 35 26 22 26 26 30 35 38 41 42 45 45 52 40 49 39 39 52 60 59 57
86 49 31 35 45 64 57 44 43 37 33 38 40 45 46 48 51 50 53 46 36 36 45 45 46 40 35 28 23 27 39 41 44 44 46 50 51 26 37 32 28 70 68 59 68
88 88 42 33 53 63 50 40 38 43 44 40 43 42 44 51 56 50 47 34 39 45 65 46 50 46 36 31 34 36 34 46 42 38 38 32 35 21 24 22 25 61 82 89 85
67 55 48 48 59 53 59 54 52 39 45 46 53 49 49 56 57 59 50 39 37 44 53 40 57 52 54 54 44 42 36 36 44 50 45 32 33 24 26 26 25 32 50 78 88
68 63 67 70 58 56 55 55 55 59 50 54 58 59 65 82 74 72 60 52 40 49 53 50 69 75 57 43 43 42 43 38 43 48 50 38 37 26 29 28 31 41 48 53 66
71 71 61 66 56 57 69 68 58 60 56 62 68 59 63 80 79 83 72 73 70 52 57 67 78 76 66 56 50 48 40 38 37 34 36 36 42 33 36 36 54 54 48 47 48
92 84 58 69 71 70 70 68 60 59 55 54 59 68 72 67 60 63 62 63 71 72 65 74 81 84 83 71 54 54 48 45 44 42 40 48 50 60 59 53 63 62 55 52 49

GFSSW_sfc_rhum_066.txt.gz
RH
77 79 81 82 81 81 81 82 82 81 82 82 83 84 84 83 88 94 58 28 35 52 68 75 61 57 71 81 72 65 89 94 78 70 83 74 80 78 73 64 48 54 69 72 75
78 80 82 82 82 81 81 82 82 82 82 82 83 84 83 84 94 78 48 44 47 74 71 61 60 52 88 84 76 88 95 83 67 67 77 75 73 79 69 62 69 79 76 73 86
80 81 82 82 81 81 82 82 82 82 83 83 82 83 86 91 80 38 51 50 63 54 46 38 43 47 65 71 81 81 91 67 58 67 67 73 72 69 70 74 67 88 84 87 88
81 82 82 82 82 81 82 82 83 83 83 83 82 85 88 92 30 45 58 58 65 34 26 37 47 57 66 73 58 81 57 58 56 59 64 76 68 70 70 71 65 72 75 86 88
82 83 83 83 82 82 82 82 83 84 84 82 81 86 90 73 32 49 54 56 60 27 22 33 52 55 66 61 56 65 55 48 47 52 64 65 74 75 70 65 60 68 74 84 85
82 83 83 83 83 82 82 83 84 84 83 82 80 85 84 34 26 50 60 64 44 29 26 33 44 47 54 52 59 46 48 46 41 51 60 66 71 66 71 65 67 76 76 78 78
82 81 82 83 82 82 82 85 85 84 83 81 84 78 79 21 41 54 62 62 44 29 29 28 36 46 55 61 45 42 51 39 41 78 72 70 85 76 75 69 76 75 73 72 69
82 80 82 82 83 84 87 89 87 85 82 80 80 86 74 39 54 48 48 48 42 36 27 27 31 39 49 45 35 36 36 38 65 76 72 65 77 80 79 82 76 72 66 68 67
84 84 83 84 86 89 90 89 86 78 79 82 92 87 62 48 44 47 50 46 46 41 32 18 25 39 37 49 54 43 51 44 33 74 79 76 79 79 77 80 71 66 62 64 66
88 88 88 88 89 86 86 86 82 84 79 70 63 74 41 30 21 39 52 38 41 40 33 31 34 41 51 56 77 53 48 43 38 83 82 89 89 81 79 79 78 70 61 62 62
89 89 90 89 89 86 89 72 38 40 80 40 36 47 27 24 20 16 35 32 34 39 50 39 44 49 48 44 43 42 40 40 33 33 42 43 76 88 80 80 80 77 67 61 59
89 90 90 90 90 91 92 40 35 38 40 37 42 42 33 28 25 13 25 32 38 47 44 48 45 37 33 42 42 38 43 43 31 28 29 51 72 90 82 81 76 78 67 62 60
90 90 87 90 92 86 55 37 36 48 43 25 30 30 23 25 22 13 16 29 37 42 43 50 42 33 40 43 40 50 52 43 37 29 58 88 90 90 86 84 80 76 69 65 58
90 90 86 88 64 68 39 45 49 40 36 25 27 19 17 15 13 11 16 21 31 38 43 45 36 36 40 41 44 70 36 32 36 33 33 72 77 94 92 94 86 82 79 71 60
90 87 88 86 94 50 33 55 50 25 43 20 19 12 13 11 11 12 12 15 23 26 39 42 36 42 42 37 36 43 30 32 30 34 33 36 72 55 96 97 90 85 78 69 63
90 91 87 92 96 64 55 50 25 33 39 20 14 13 12 13 14 14 14 12 15 16 20 27 16 30 36 32 29 26 28 28 32 33 36 28 56 30 96 89 79 76 77 71 64
91 94 88 73 32 54 49 30 38 43 26 26 22 15 14 15 15 15 16 20 21 23 23 19 20 19 18 25 27 29 34 46 42 40 36 37 29 31 43 42 53 74 75 73 66
94 95 94 74 75 62 34 38 54 34 34 29 26 30 33 25 25 29 32 34 29 22 24 21 23 19 17 20 20 32 31 42 41 45 35 40 32 32 43 42 40 63 68 69 69
93 82 68 57 63 51 37 56 60 41 34 33 36 39 40 35 26 33 40 44 33 36 30 31 29 20 17 17 23 29 34 36 39 54 37 37 38 35 35 31 32 40 69 72 68
92 73 45 42 47 44 48 60 47 34 32 34 47 45 49 44 39 43 45 39 44 32 35 42 31 26 20 18 21 30 32 38 40 42 43 40 60 61 46 39 35 46 64 74 68
78 42 34 44 40 40 59 60 41 34 32 38 41 45 50 54 48 55 58 44 43 36 35 56 32 28 28 34 39 36 41 40 43 44 42 56 63 36 44 42 35 78 89 71 71
72 48 34 34 43 66 62 51 50 44 40 39 42 45 48 52 57 60 52 48 41 42 49 43 39 40 42 32 31 34 45 45 45 44 44 57 52 26 28 28 37 69 92 92 88
76 76 42 35 52 64 56 46 47 50 55 46 50 46 49 61 60 54 48 37 39 57 70 52 52 45 52 33 36 40 40 48 44 41 51 51 38 22 28 31 48 63 53 62 80
58 58 54 52 65 57 62 61 58 45 53 53 58 54 53 65 66 64 55 42 41 52 57 44 65 47 40 46 48 47 42 41 47 54 53 44 46 32 36 42 55 54 46 52 60
67 72 73 68 61 64 63 62 58 64 53 58 60 64 70 80 78 78 66 55 42 53 55 53 78 70 60 48 47 46 48 41 47 46 46 36 48 40 53 53 64 56 49 47 49
79 64 70 79 67 62 71 68 63 61 60 63 67 64 68 81 80 83 78 76 76 56 59 70 86 75 73 62 56 50 44 42 39 40 44 42 45 66 60 60 64 64 59 59 58
96 89 61 77 76 76 79 73 63 63 59 58 62 70 74 73 66 75 73 74 75 76 68 77 84 79 74 76 59 67 61 52 48 53 68 52 68 77 76 70 68 68 65 62 59

GFSSW_sfc_rhum_069.txt.gz
RH
78 80 80 81 80 80 80 80 81 82 81 81 82 81 79 80 84 75 37 22 28 58 61 54 49 59 57 62 62 61 66 67 58 56 77 71 81 82 63 61 52 51 59 52 58
79 80 80 81 80 80 80 81 81 81 81 82 82 80 80 78 71 49 34 43 46 67 45 40 43 61 62 62 59 71 75 60 50 51 61 70 84 81 65 59 72 68 60 60 59
79 81 81 81 80 80 80 81 81 82 82 82 82 79 85 80 48 18 48 49 52 63 37 30 40 51 61 62 61 62 63 53 46 47 53 59 66 68 59 66 70 75 72 63 59
80 81 81 80 80 81 81 81 82 82 82 82 81 82 87 72 12 26 57 55 73 40 27 33 38 43 58 63 55 69 52 50 45 48 52 58 59 61 56 66 67 60 58 59 59
81 82 82 81 80 80 81 82 83 83 83 82 80 84 73 39 17 46 54 64 37 26 25 31 37 42 42 51 49 58 50 42 38 39 43 53 57 57 59 58 56 59 60 58 58
80 79 80 81 80 80 81 82 83 83 82 81 77 81 56 14 26 38 41 54 33 20 24 30 35 37 40 49 46 41 39 34 30 32 38 49 57 57 60 59 65 64 61 56 61
80 81 81 81 81 81 82 84 86 84 82 80 80 69 44 14 38 38 38 39 32 19 22 25 33 35 39 42 35 36 36 24 45 46 54 51 65 62 67 67 74 70 60 58 62
80 80 82 82 82 83 83 84 87 87 84 81 80 70 33 30 42 44 33 32 24 19 18 19 25 31 36 34 31 30 24 29 50 52 57 53 61 60 66 76 83 81 61 61 61
82 84 82 82 83 82 84 86 84 80 80 82 72 66 29 45 47 36 26 26 26 24 21 16 21 31 30 40 39 27 34 28 27 56 58 55 55 71 70 72 77 76 59 59 60
86 89 88 85 85 84 86 86 82 79 73 64 57 55 33 27 29 34 34 25 27 25 22 20 21 32 33 39 42 38 30 24 31 50 58 54 53 70 68 73 67 77 61 58 56
89 90 89 84 84 84 79 54 28 40 65 27 22 28 21 18 20 34 29 28 26 23 26 22 29 35 38 39 32 30 28 27 24 31 32 22 25 48 66 68 68 67 62 55 53
90 90 84 84 86 88 70 25 24 27 28 26 33 32 26 21 16 35 28 25 31 27 26 23 25 27 32 35 33 33 31 30 24 22 24 24 28 64 58 64 68 61 55 52 50
90 86 85 84 90 74 37 25 28 26 28 19 25 22 17 19 14 21 24 26 30 35 26 21 19 24 32 33 36 32 32 30 26 23 36 53 54 65 69 66 66 65 54 50 49
86 86 85 88 57 51 28 29 34 28 20 17 18 16 16 17 10 11 15 21 28 33 30 26 22 28 35 36 32 37 27 26 26 25 21 36 27 56 65 71 73 65 61 51 49
90 85 88 86 60 33 31 33 27 20 27 16 14 10 11 9 9 12 10 13 24 29 30 30 32 29 37 34 30 35 26 26 25 25 22 26 28 39 61 68 74 69 61 50 48
89 89 87 72 70 42 35 32 20 24 30 19 11 12 11 9 10 10 10 10 12 19 24 22 17 26 30 26 24 24 21 21 21 20 24 19 25 27 37 43 37 53 59 55 48
90 95 82 54 22 37 35 21 25 32 23 25 20 11 13 14 14 13 19 20 16 22 29 15 13 12 16 22 25 23 23 28 29 27 24 21 21 37 31 30 33 40 43 55 51
94 91 82 56 47 51 24 26 40 33 31 24 25 20 21 21 23 23 23 23 23 14 15 27 27 14 13 14 17 24 22 24 34 28 22 23 21 33 22 27 39 51 45 46 53
92 52 37 30 44 37 26 36 41 38 32 31 25 22 28 24 20 24 30 33 28 25 19 20 19 14 15 15 17 21 23 17 21 24 20 19 25 24 20 33 47 62 56 52 52
58 37 28 30 34 28 29 46 35 32 31 30 35 33 31 33 26 28 33 36 37 29 24 23 22 18 17 16 17 20 20 20 22 32 28 32 40 31 32 46 60 77 71 52 52
39 29 25 26 26 30 37 38 34 30 31 34 38 37 39 38 36 41 42 37 38 35 27 24 19 23 21 26 27 20 22 25 21 24 24 30 36 22 38 61 73 65 76 74 61
35 31 26 26 32 39 38 38 50 35 35 32 34 38 40 41 42 43 44 40 35 38 32 32 23 29 27 23 23 23 28 26 23 36 30 26 30 24 43 52 54 65 62 64 72
40 38 27 25 36 38 40 38 38 38 40 39 40 36 41 45 48 41 39 32 35 44 40 30 29 31 27 22 23 27 26 25 21 23 36 25 25 26 44 47 44 50 54 53 54
38 36 33 37 45 38 41 46 44 38 41 41 44 38 40 46 44 46 40 34 33 41 54 32 34 31 20 30 28 32 29 26 23 23 28 26 29 33 47 47 43 42 44 48 51
44 46 48 44 42 46 44 47 46 50 42 41 48 48 45 48 50 51 44 37 30 44 40 36 40 39 37 33 31 31 30 27 25 28 26 29 28 40 50 48 45 41 40 44 51
45 41 45 49 51 45 54 51 49 49 46 48 52 51 48 56 52 53 48 46 48 36 39 40 51 44 47 40 35 33 33 31 28 25 25 25 36 49 48 47 48 48 46 47 46
68 54 40 63 50 44 50 50 49 48 47 48 49 54 56 55 48 47 45 46 46 46 46 50 50 46 45 47 38 33 40 36 34 46 36 28 55 56 52 53 52 48 50 53 51

GFSSW_sfc_rhum_072.txt.gz
RH
78 80 80 80 80 80 80 80 80 80 80 80 80 80 80 78 81 47 20 19 22 63 69 33 27 34 38 40 44 47 60 47 43 51 66 61 66 60 47 45 41 40 41 36 39
78 79 80 80 79 79 80 80 80 80 80 81 81 80 80 77 39 21 31 38 43 70 33 24 28 38 39 39 43 51 59 41 35 35 54 76 74 59 58 53 48 48 37 38 40
79 79 80 80 79 80 80 80 80 81 81 81 81 80 83 65 28 10 49 47 56 63 22 17 23 31 36 35 42 42 48 36 33 33 38 55 70 72 57 59 46 48 45 41 42
79 79 79 80 79 78 80 80 81 81 81 81 80 80 84 42 10 20 52 56 62 30 21 19 25 31 31 38 38 52 40 38 32 31 36 43 44 51 62 59 56 44 41 40 41
78 79 79 80 78 80 80 80 82 82 81 80 79 78 59 24 8 32 55 51 30 25 20 20 22 20 26 26 36 50 38 34 29 26 28 35 46 48 52 52 46 42 40 39 38
79 79 80 80 80 80 80 82 83 84 82 80 78 76 34 13 22 26 22 27 23 19 15 16 16 16 18 25 29 30 32 29 23 21 25 38 40 41 46 42 46 44 40 37 38
80 79 79 80 81 81 81 82 82 85 85 80 78 52 28 11 25 19 25 21 17 14 15 14 17 18 18 24 24 28 30 25 26 25 32 37 52 52 47 49 50 43 39 38 37
82 81 79 78 80 81 81 83 86 88 83 80 78 43 19 19 23 22 23 23 15 13 12 16 18 17 18 23 25 26 24 26 28 28 34 36 56 53 51 64 60 46 39 41 40
80 82 82 82 81 85 85 86 83 81 81 79 52 39 18 40 29 18 16 21 15 14 15 15 19 19 21 21 20 21 24 24 33 29 35 38 44 49 50 62 63 73 46 40 42
84 88 87 82 82 87 86 87 80 78 58 44 39 33 24 20 23 20 16 15 16 15 15 16 18 20 19 15 19 21 22 23 23 34 31 34 39 52 50 52 61 72 49 42 40
89 90 87 86 83 88 69 41 34 39 32 17 14 16 16 16 20 20 18 18 16 17 17 15 18 17 16 16 18 16 21 23 21 28 26 23 19 39 45 48 57 71 51 44 39
90 89 89 88 87 89 49 19 19 19 18 16 18 16 15 13 17 19 17 22 20 17 14 17 18 13 15 19 25 22 22 22 20 17 20 17 17 32 33 42 49 66 56 44 39
91 90 87 85 87 66 21 18 17 18 17 14 14 14 12 13 13 22 18 17 20 15 16 15 12 14 24 26 27 22 20 22 21 18 17 21 24 38 39 37 51 49 42 40 39
89 88 86 89 63 24 19 20 17 18 15 14 12 11 12 12 11 15 16 14 17 21 16 12 13 16 22 26 22 22 19 21 22 20 20 17 24 32 43 46 62 60 46 38 38
88 86 88 96 27 18 20 18 15 17 20 12 11 9 10 11 9 15 14 13 19 20 21 17 14 17 22 23 22 22 21 21 21 22 20 17 19 36 33 43 69 65 53 38 43
87 89 86 52 30 18 18 17 16 18 26 14 10 12 12 8 9 12 13 10 13 17 20 18 12 15 19 21 23 21 21 20 20 18 24 17 16 23 27 32 30 43 47 44 36
90 93 80 30 19 21 22 15 18 21 16 17 13 11 10 9 11 12 14 14 18 26 26 20 20 17 18 25 22 23 20 22 22 21 19 14 17 30 26 28 33 34 30 40 37
94 92 67 28 23 25 17 18 30 24 22 16 15 10 12 11 14 14 16 18 15 14 19 20 23 18 18 22 24 24 18 16 28 19 16 17 19 25 24 33 40 40 31 28 37
96 30 17 19 24 21 18 23 31 29 24 22 14 14 16 14 14 17 19 19 19 16 19 19 19 12 12 12 13 22 23 12 14 14 13 15 26 20 23 39 45 53 39 35 37
30 20 19 16 20 18 18 38 29 25 24 22 22 22 18 17 16 16 20 24 23 20 17 16 22 14 13 12 13 15 14 19 16 25 24 17 24 25 36 50 50 65 74 46 40
25 20 17 15 18 18 24 28 26 23 24 26 26 26 28 24 20 24 27 26 26 24 20 15 16 18 15 17 17 15 16 16 12 14 17 21 23 22 44 56 58 58 64 68 71
18 21 16 17 21 21 25 28 46 23 23 26 26 27 29 28 28 30 31 30 28 27 23 19 13 18 18 17 16 17 18 17 17 26 18 16 25 29 38 48 58 56 54 53 55
22 20 16 16 23 26 27 26 25 25 27 26 28 28 30 33 38 30 28 27 27 27 28 24 21 23 21 16 18 18 18 18 16 16 23 17 27 32 38 44 52 50 49 49 48
20 20 19 21 24 25 27 29 30 26 27 27 29 26 28 31 30 35 30 26 25 27 45 28 21 30 19 21 17 23 19 18 16 16 19 18 32 38 39 41 40 43 44 44 46
23 25 31 22 24 24 24 27 30 32 27 27 30 29 31 35 33 35 29 26 24 30 28 24 29 26 25 22 20 19 18 18 20 21 21 23 27 36 38 37 36 34 35 44 46
23 22 22 27 33 25 36 32 31 32 31 34 35 30 31 39 37 38 32 32 33 26 27 23 33 29 30 25 23 22 21 20 18 18 20 20 32 31 36 36 36 37 37 39 41
31 27 25 44 27 23 30 31 33 34 35 33 35 37 39 39 34 32 29 30 31 33 32 32 29 34 27 28 24 23 20 20 20 22 20 22 35 35 36 39 39 35 38 43 41

GFSSW_sfc_rhum_075.txt.gz
RH
78 79 79 79 79 79 79 80 80 80 80 80 80 81 79 80 79 42 17 22 24 70 76 27 26 30 29 30 34 34 69 56 48 46 57 53 54 43 43 37 38 36 35 31 30
78 79 79 80 79 79 79 80 80 80 80 80 80 81 80 78 34 18 35 53 64 76 39 25 22 28 31 28 34 39 68 42 33 36 57 54 52 47 41 43 40 35 30 30 30
79 79 77 77 78 79 79 79 80 80 80 80 80 80 80 68 28 9 58 56 55 66 22 15 15 24 28 27 38 38 53 34 33 32 42 54 66 57 45 42 37 37 36 34 32
79 77 79 79 79 78 79 79 80 81 81 80 80 80 81 39 16 23 56 60 60 34 21 14 16 24 24 28 37 45 34 30 26 27 34 48 43 46 49 55 37 33 32 33 33
78 79 79 80 80 80 80 80 82 82 83 81 79 79 58 21 11 31 51 49 23 26 18 14 17 20 23 22 36 38 30 26 24 22 24 32 38 49 63 55 40 32 33 33 31
79 79 79 79 80 80 80 80 81 82 80 81 78 80 34 14 13 22 18 15 15 22 16 13 14 15 14 17 27 29 28 24 21 19 21 34 38 44 50 40 40 35 33 31 29
82 81 80 78 79 80 81 80 81 84 83 83 78 53 21 11 14 14 13 10 13 16 14 11 10 12 13 18 17 24 29 24 19 18 29 30 48 47 42 37 39 35 32 30 29
82 78 78 80 81 82 83 83 87 88 86 82 78 37 20 10 13 15 14 12 12 12 10 9 11 12 12 14 17 23 23 24 19 20 24 33 60 44 38 42 39 35 32 32 30
82 83 80 80 84 81 83 85 87 77 81 77 49 36 14 34 17 15 14 12 12 11 10 12 13 15 13 15 19 20 23 21 23 18 23 33 49 38 39 42 42 44 33 32 33
88 88 80 81 86 84 87 88 80 81 58 38 24 23 19 15 13 13 13 12 11 12 14 14 13 17 14 16 18 17 18 16 22 21 22 33 82 42 40 48 46 46 46 38 35
89 90 89 87 81 84 69 39 38 35 24 17 13 14 10 10 13 13 11 13 11 13 15 13 13 16 13 12 9 11 14 17 16 19 20 24 43 39 39 41 47 60 68 41 40
90 90 89 84 82 88 55 21 14 13 16 13 11 10 11 14 17 14 13 14 15 16 12 13 15 12 10 10 10 12 12 15 16 19 19 18 17 29 35 38 45 58 65 47 40
89 87 83 85 86 61 22 14 11 11 16 12 10 10 12 12 14 14 13 13 15 15 12 13 10 10 10 12 15 16 15 16 18 16 17 15 18 27 26 29 46 56 45 49 42
84 85 86 89 63 14 14 12 10 12 18 13 11 10 10 10 11 11 12 12 14 13 10 11 8 10 12 15 17 16 12 12 16 18 20 15 22 27 27 30 52 59 47 43 42
87 87 90 94 33 15 14 10 10 13 23 10 10 7 8 11 9 14 10 12 14 13 12 12 9 11 16 18 16 15 11 13 16 17 14 17 18 47 29 36 49 48 42 40 41
89 89 88 51 29 12 10 11 12 19 24 11 8 10 11 11 8 12 12 11 10 14 14 12 8 9 11 12 15 16 16 16 15 15 18 15 13 37 32 57 41 41 53 40 39
92 94 77 28 16 12 12 14 21 21 13 12 10 9 11 11 9 12 16 15 15 20 21 17 16 10 10 14 16 18 19 23 24 20 17 12 13 28 24 24 24 35 41 38 47
94 93 57 21 14 14 15 18 30 17 16 12 10 10 10 8 9 11 14 13 11 14 15 17 19 12 11 15 20 20 17 16 26 17 14 12 17 25 25 31 33 30 25 34 36
96 25 18 12 14 15 18 29 28 21 17 15 11 12 11 10 11 12 13 12 12 13 19 16 16 12 13 14 15 19 21 11 11 9 11 14 22 22 29 34 44 50 31 24 36
26 16 14 11 12 15 18 32 22 18 16 14 16 12 15 12 12 15 18 17 16 15 14 17 20 12 12 12 13 14 13 18 14 23 20 15 24 22 36 40 48 54 53 56 71
24 18 13 10 12 16 23 22 19 17 16 18 23 18 23 18 13 14 19 18 18 15 14 11 17 16 13 15 14 14 16 15 12 12 16 18 25 26 44 46 50 57 51 50 62
15 18 12 10 17 15 19 19 38 17 17 18 19 19 22 23 20 25 20 21 19 17 12 12 13 18 16 12 12 13 13 14 17 22 13 14 29 28 43 46 49 55 52 48 56
15 12 10 11 21 17 19 16 18 18 20 18 20 20 18 22 25 19 20 20 21 18 20 16 13 20 19 15 14 15 14 13 11 11 20 16 34 30 46 48 48 50 50 51 48
14 15 12 13 14 17 20 19 18 18 20 21 21 20 21 25 20 20 21 20 19 19 44 35 15 23 21 18 13 18 15 14 14 16 17 17 39 36 40 48 47 46 46 45 48
14 15 20 18 15 16 17 18 20 20 17 18 23 22 22 25 24 24 19 21 20 35 26 18 25 20 18 15 13 14 15 14 16 15 16 31 34 34 35 36 39 40 41 44 45
18 17 13 17 20 17 30 22 21 23 23 23 23 19 22 28 28 26 22 22 21 21 21 16 27 24 23 18 16 16 14 14 14 15 16 23 34 28 30 32 34 36 38 42 43
18 18 17 32 18 16 19 21 23 25 25 23 26 26 26 28 24 23 21 23 24 28 24 27 20 26 26 21 21 23 16 15 13 13 16 23 31 31 32 33 32 33 36 37 36

GFSSW_sfc_rhum_078.txt.gz
RH
78 79 80 80 80 79 79 80 80 80 80 80 81 81 82 82 81 42 19 22 22 69 68 17 20 25 29 33 34 37 63 59 57 49 59 54 51 41 40 50 48 37 33 30 28
78 78 78 79 79 79 79 79 80 80 80 81 81 81 81 82 41 20 28 53 66 67 34 25 28 28 32 31 32 75 77 45 39 42 54 53 47 45 44 48 42 46 30 28 26
79 79 79 79 79 78 79 79 80 80 81 81 81 81 81 70 36 12 46 59 62 54 27 21 19 23 31 27 33 86 62 36 35 36 40 45 49 47 67 52 40 41 34 30 27
78 79 80 79 80 79 79 80 80 81 81 82 81 80 80 44 25 23 60 60 62 21 29 19 15 21 28 32 34 46 34 28 33 35 40 49 47 40 62 58 39 33 31 30 28
79 78 78 79 79 80 80 81 80 81 81 80 80 79 54 31 13 33 59 51 14 21 28 19 14 20 25 23 30 73 48 29 22 35 38 42 41 54 60 46 36 32 32 30 28
78 80 79 79 78 80 80 81 81 82 81 81 79 80 40 24 10 25 14 13 11 21 24 15 12 16 19 20 29 30 44 25 21 22 24 34 53 47 72 41 38 35 33 30 29
78 80 78 78 79 80 80 80 82 84 84 82 79 51 31 16 11 15 12 9 10 16 18 12 10 14 14 15 16 22 37 25 20 19 27 35 48 51 54 40 40 36 33 30 29
83 83 82 79 79 80 82 85 84 86 85 86 79 36 27 9 10 12 10 9 9 12 14 11 10 11 11 11 15 20 23 31 20 17 24 35 63 50 42 40 38 35 32 32 30
86 85 82 79 80 85 86 86 85 86 78 80 52 34 21 23 13 11 11 10 10 13 12 8 10 13 12 14 19 20 27 25 27 16 25 31 62 50 41 37 37 37 33 33 33
85 80 81 79 80 85 87 87 68 82 66 38 31 28 19 16 11 12 11 9 11 12 12 12 15 17 16 16 22 22 23 22 34 20 20 41 71 85 43 39 39 38 36 37 33
89 89 88 82 80 84 71 40 41 44 31 20 16 18 11 12 10 13 12 10 10 13 17 16 18 17 15 13 13 14 15 18 25 25 20 43 69 72 42 39 43 41 54 40 38
89 88 86 87 87 88 65 31 13 12 16 17 13 11 8 10 14 12 11 13 13 16 14 14 16 11 11 11 11 12 12 13 27 28 37 47 54 62 48 44 43 43 57 55 42
86 87 86 88 89 67 27 17 9 9 15 13 11 10 12 13 16 13 11 12 13 14 12 13 10 9 10 11 11 10 11 14 26 44 32 31 53 65 46 40 42 45 50 53 45
86 85 89 90 65 18 16 10 8 9 19 14 11 10 9 12 16 10 11 11 12 14 12 10 8 8 10 11 10 13 10 12 21 22 23 18 29 35 37 52 54 50 48 51 45
88 87 92 95 30 18 12 8 9 10 30 11 9 6 8 12 11 12 10 11 16 12 11 12 10 10 10 10 10 14 11 12 20 19 16 16 19 28 38 65 57 52 46 44 42
91 92 90 49 32 15 8 9 11 19 28 11 9 10 11 11 10 11 13 12 11 12 11 9 7 8 9 9 12 13 14 12 14 19 21 17 16 44 57 72 68 48 46 58 42
94 94 82 26 19 10 9 12 22 25 18 11 8 9 10 12 10 12 16 16 17 20 19 14 11 7 8 11 13 14 17 20 23 24 22 13 16 36 57 74 79 37 48 66 58
94 94 55 25 15 11 13 20 47 42 32 11 8 8 11 11 10 12 15 16 14 13 15 19 19 14 10 10 14 16 16 20 31 22 17 14 18 33 35 64 68 30 32 38 42
93 27 24 17 19 12 19 34 58 56 15 12 9 11 11 9 9 11 15 15 12 11 19 24 18 11 10 9 11 16 20 14 14 13 14 18 30 32 36 41 42 46 51 69 82
30 19 18 8 9 18 30 38 24 14 12 13 16 11 13 10 11 14 14 13 16 12 13 18 25 13 9 9 12 18 14 19 17 28 30 24 34 40 42 47 50 50 54 64 79
28 23 12 6 8 27 45 20 15 12 12 18 19 19 23 16 19 22 28 20 15 14 14 14 19 20 14 16 17 18 24 18 15 17 23 34 44 32 46 47 53 51 55 64 75
22 24 10 7 17 13 18 15 35 14 12 14 15 18 19 21 28 25 35 24 15 14 15 13 14 27 15 11 11 13 16 16 20 28 19 48 63 39 44 47 51 54 53 54 67
23 11 8 10 39 21 16 14 14 15 16 15 17 17 18 21 30 22 26 16 16 14 28 21 16 23 20 13 12 13 14 13 12 14 27 40 42 41 47 50 52 53 51 52 58
21 15 11 10 10 14 16 16 15 12 16 17 18 16 17 19 20 25 17 16 15 16 42 32 16 27 46 28 15 17 14 13 13 16 18 37 54 54 54 54 52 50 49 48 50
16 12 15 16 13 14 16 15 16 17 13 15 21 19 26 43 20 23 17 16 15 28 18 16 20 18 19 16 14 13 13 13 15 16 27 44 48 50 52 50 48 45 45 46 46
19 18 11 14 17 16 26 18 17 18 21 18 19 15 18 53 53 50 33 19 19 16 17 15 24 29 26 16 16 16 12 13 13 13 17 33 38 33 39 42 42 43 42 44 45
18 15 18 27 15 13 15 16 18 20 19 19 22 23 21 25 22 29 20 21 41 28 22 22 23 37 33 18 19 23 17 14 14 13 40 51 41 32 35 36 39 39 38 40 39

GFSSW_sfc_rhum_081.txt.gz
RH
79 79 80 80 80 80 79 80 80 81 81 82 82 83 85 87 86 65 30 25 30 55 64 26 18 18 24 46 42 52 92 76 65 64 69 62 64 56 70 51 50 36 40 38 43
79 79 80 80 79 80 80 80 81 81 81 82 83 83 84 87 69 43 33 50 62 65 20 27 24 24 35 42 70 92 96 67 54 53 66 63 58 65 80 65 51 40 36 34 39
78 79 79 79 80 79 80 80 81 82 82 82 82 82 84 83 61 25 56 53 69 59 15 26 26 33 42 37 80 85 92 52 44 48 49 54 52 68 68 64 45 43 40 36 46
78 78 79 79 79 80 80 80 82 82 82 82 81 82 84 69 44 25 66 53 63 27 19 31 33 34 37 40 68 73 67 52 48 43 45 52 62 79 85 67 39 35 34 35 39
78 78 78 79 78 78 80 81 79 81 82 82 81 80 78 58 32 32 62 57 31 21 23 37 39 24 31 34 42 67 49 41 37 40 45 47 61 71 70 70 35 33 34 36 37
77 77 78 78 78 78 79 81 81 82 82 83 81 80 78 38 25 34 27 26 12 16 24 33 28 18 24 26 43 55 43 44 47 44 42 52 60 54 57 39 36 35 37 34 37
84 84 81 80 80 80 80 81 83 83 83 83 82 65 45 35 22 24 18 15 10 15 31 28 25 17 20 23 22 49 45 48 42 45 52 56 72 63 52 48 40 37 37 34 33
85 85 80 80 80 80 83 88 85 83 83 81 81 64 44 16 16 19 15 12 12 14 23 20 16 17 18 16 16 42 47 61 30 28 46 47 77 80 55 56 48 38 37 36 34
81 81 79 78 79 80 87 88 83 82 82 79 84 72 37 24 15 14 13 13 11 14 16 15 16 20 17 22 25 28 43 40 40 28 41 46 80 89 55 56 51 41 39 37 37
84 82 83 80 80 83 88 89 80 81 80 47 35 51 31 21 14 13 13 10 12 15 19 19 20 27 26 32 36 36 34 33 39 26 42 74 85 93 86 67 49 42 39 41 39
84 85 82 87 90 89 82 62 65 66 52 35 31 34 17 17 12 14 15 13 13 19 28 20 29 34 28 24 19 21 26 28 28 34 60 72 76 66 68 73 50 43 42 42 45
84 83 84 87 90 90 90 56 36 16 24 31 20 19 17 14 15 16 15 17 18 24 21 27 33 23 17 17 18 17 18 22 33 42 64 71 72 64 49 69 45 46 48 42 46
85 85 86 92 92 89 51 34 21 12 22 15 20 18 13 14 16 18 18 16 17 21 21 26 22 17 13 16 17 18 20 21 40 41 50 56 76 78 70 53 46 48 49 46 45
86 85 87 94 81 31 28 23 21 13 32 20 20 14 12 17 20 12 13 16 16 19 17 19 14 13 13 14 16 22 14 12 36 43 59 58 86 79 69 58 55 49 59 52 52
93 93 93 91 74 31 20 11 13 17 43 16 13 9 11 17 19 17 12 15 18 16 17 18 13 13 13 12 13 16 13 17 31 41 42 58 61 76 66 73 74 65 60 51 46
94 94 92 74 68 37 22 18 18 32 41 22 10 12 13 14 14 14 16 16 14 18 16 15 11 11 13 10 10 11 15 20 29 32 42 32 37 73 79 69 68 85 71 54 55
94 94 91 48 33 20 17 21 39 66 42 20 15 12 13 16 14 15 19 22 28 34 30 18 13 10 9 14 13 17 30 44 37 53 44 30 33 80 76 76 79 83 77 61 49
94 94 76 44 24 22 23 42 79 49 41 26 23 12 14 14 14 17 22 25 20 22 26 29 28 17 9 15 19 23 30 42 45 45 38 25 68 76 56 56 60 48 64 63 63
92 52 41 27 32 31 42 79 59 48 35 24 15 17 15 12 14 14 21 23 18 18 29 32 28 15 12 12 14 22 25 22 30 29 33 56 67 65 60 65 65 72 80 91 91
64 36 27 18 20 31 43 55 36 27 15 19 30 29 28 19 17 16 27 21 16 15 21 30 35 22 16 14 12 16 25 30 38 51 40 66 73 92 88 72 70 74 78 82 91
55 41 21 14 17 45 45 42 21 14 13 24 23 27 27 32 29 37 36 21 18 18 19 24 37 29 21 18 17 33 38 47 35 38 41 69 89 78 81 70 75 74 74 82 86
36 46 22 12 35 44 43 23 31 16 17 18 21 23 34 32 36 44 38 34 18 19 22 29 20 46 34 20 17 21 32 36 44 42 58 75 86 70 74 64 65 73 67 72 80
51 34 14 16 38 42 26 15 15 17 19 20 20 23 21 31 46 36 34 17 16 22 36 36 36 39 36 25 18 21 18 22 26 30 42 72 85 64 72 68 62 66 62 62 70
52 35 26 23 19 20 26 22 20 11 15 17 24 23 27 33 33 36 31 16 16 18 50 44 26 35 53 42 30 25 18 18 31 34 57 52 84 69 64 65 64 59 56 60 63
50 24 27 29 24 23 27 22 17 21 18 20 31 27 41 54 51 34 35 23 18 36 26 28 36 33 29 27 23 20 18 17 22 33 55 76 75 72 66 62 54 50 49 51 54
43 36 29 26 28 32 37 29 21 20 25 25 29 20 46 62 61 59 51 45 40 36 28 25 43 37 37 25 22 21 19 16 16 38 56 57 71 59 54 54 51 48 46 49 56
41 39 47 39 26 23 25 22 18 27 24 21 26 34 39 33 38 47 46 41 59 46 44 37 49 55 49 35 27 33 24 20 40 38 45 73 64 52 55 52 52 48 46 52 52

GFSSW_sfc_rhum_087.txt.gz
RH
78 78 79 79 79 79 79 79 80 82 79 80 83 83 85 86 88 84 46 21 33 60 62 54 47 31 24 32 53 71 96 92 81 74 75 68 70 63 63 55 52 52 62 65 66
77 78 78 78 79 79 78 81 80 80 79 81 82 83 84 86 92 76 42 42 49 70 38 34 36 33 54 39 72 87 96 80 63 59 71 76 66 68 59 59 64 62 58 63 68
77 76 76 77 78 79 79 76 79 81 81 80 81 83 84 87 70 28 52 55 59 63 26 24 23 30 35 58 72 85 84 69 54 53 61 72 80 74 60 67 63 70 71 67 67
78 79 79 76 78 77 77 79 78 80 81 80 81 82 84 93 24 30 66 58 60 55 30 20 36 46 65 59 76 70 64 63 52 53 60 70 69 67 79 65 53 62 62 64 65
81 82 80 79 80 81 78 79 80 80 80 80 80 82 87 60 32 19 71 56 66 41 26 29 46 64 67 63 71 69 66 59 46 55 58 68 70 72 73 65 52 56 60 63 64
80 80 79 79 79 78 78 81 81 81 81 80 78 80 84 18 10 40 48 58 43 26 23 30 45 51 46 48 64 70 59 64 54 52 60 65 66 70 69 56 55 55 60 58 61
81 80 79 78 78 78 79 80 81 82 81 78 76 75 72 23 29 40 38 38 25 21 24 24 37 46 41 32 30 54 74 66 67 54 68 61 80 69 63 48 57 56 56 56 54
83 82 81 79 80 79 80 82 84 82 81 77 73 84 38 24 28 23 31 23 19 21 24 29 27 40 38 29 36 56 68 87 57 60 65 70 86 80 66 62 56 55 54 56 55
82 81 80 80 81 80 87 91 86 82 77 76 93 88 36 34 28 21 27 19 17 18 23 15 28 34 28 29 32 45 76 60 75 74 70 75 94 79 61 61 49 48 51 53 56
84 83 82 81 82 87 94 89 83 82 79 68 55 66 41 26 23 21 25 15 15 16 20 23 32 34 35 35 42 46 70 59 61 70 74 79 86 76 73 66 51 43 43 46 50
85 84 83 84 84 93 93 84 66 71 81 32 36 42 33 26 20 22 20 17 19 25 33 34 35 36 31 30 29 30 33 28 52 59 70 73 82 80 75 74 54 47 49 46 47
86 86 86 85 86 88 98 58 50 40 44 44 35 37 31 27 28 20 16 21 23 29 32 35 38 27 23 26 29 32 34 38 71 70 74 82 78 78 78 81 66 51 51 50 47
86 87 87 86 87 92 74 45 41 53 46 25 42 34 28 27 27 23 18 22 24 29 33 39 29 24 25 29 29 33 34 28 70 74 74 77 82 81 76 75 79 72 56 51 48
88 89 96 97 72 64 50 41 35 34 38 26 25 21 25 22 25 18 20 20 25 26 30 32 25 24 30 30 27 51 22 22 65 68 82 73 84 87 76 78 79 78 62 54 51
91 95 96 91 80 46 31 45 42 24 54 28 29 17 20 24 24 22 20 21 22 24 26 30 25 26 27 26 23 25 19 19 57 62 74 79 80 76 74 79 78 85 67 57 54
94 95 93 95 97 64 54 41 26 42 52 41 28 27 20 20 21 21 20 20 21 24 28 23 20 20 21 18 18 17 22 32 51 61 76 65 63 78 88 69 71 76 66 59 54
94 96 92 64 36 46 42 41 49 58 40 34 33 34 27 21 21 24 25 31 32 38 41 28 25 20 15 21 19 24 35 45 72 72 69 62 72 72 87 68 69 74 71 64 70
93 95 93 72 66 44 45 40 61 46 47 38 37 34 32 22 20 23 29 33 32 32 39 40 33 22 17 18 20 26 26 46 55 67 56 66 74 85 88 84 77 80 83 73 81
94 83 76 59 69 54 46 66 50 53 32 35 31 36 38 26 21 31 32 32 28 29 35 40 36 24 22 17 15 27 35 30 40 61 47 91 92 85 79 88 90 93 91 91 94
69 57 44 44 45 38 46 65 54 38 29 33 40 43 42 39 40 39 37 29 25 25 29 37 42 31 22 20 19 20 24 33 45 53 62 94 97 91 91 93 92 93 94 94 95
61 46 35 47 35 41 46 53 39 26 30 30 35 41 43 38 44 50 46 29 25 27 30 48 39 26 32 31 28 27 41 48 44 51 61 96 92 90 93 92 96 93 91 95 96
67 42 35 30 38 79 56 46 31 20 24 27 28 35 42 44 50 44 32 30 23 31 29 45 35 39 43 26 29 25 36 52 44 59 79 88 94 82 90 91 92 92 84 91 94
61 60 43 26 37 54 46 23 18 20 22 26 30 29 43 46 48 39 35 21 20 24 26 33 40 49 42 39 33 27 26 51 50 68 78 66 85 82 89 90 88 90 90 88 91
61 33 30 29 40 34 34 32 23 23 29 28 34 36 42 47 55 48 44 30 23 26 48 37 36 41 56 44 42 36 28 29 39 42 67 68 92 95 93 88 81 76 81 85 82
66 46 38 31 27 34 37 32 32 34 30 36 45 48 47 61 54 48 42 40 31 45 28 29 41 42 37 32 32 31 30 36 35 39 59 76 94 92 90 83 79 74 69 70 71
57 59 64 59 40 29 42 38 33 31 34 40 48 46 52 62 68 57 49 53 62 40 44 43 48 45 47 35 34 34 31 31 54 75 87 88 94 82 76 70 71 71 66 65 63
79 70 62 68 36 36 38 35 38 34 37 38 42 44 39 41 53 53 60 55 52 60 42 56 53 52 63 50 45 56 39 36 58 71 82 84 83 74 73 66 66 64 64 63 58

GFSSW_sfc_rhum_090.txt.gz
RH
77 77 77 77 76 77 78 78 79 79 78 77 80 83 83 84 86 93 45 21 36 46 64 62 42 31 24 51 52 71 96 90 79 74 76 72 71 62 61 60 57 60 69 76 79
77 77 76 76 76 76 77 77 76 78 79 79 79 81 83 86 98 78 43 40 46 66 50 43 42 34 43 38 71 86 96 80 65 64 71 72 64 67 64 67 70 80 75 77 79
76 78 79 78 76 77 76 75 76 77 79 80 80 81 84 89 69 19 50 48 55 72 33 31 30 49 68 57 72 86 89 73 60 56 61 73 73 68 68 80 68 86 85 82 80
79 79 78 79 80 78 77 77 77 78 78 80 80 80 84 95 14 37 62 57 62 57 22 30 32 74 71 63 75 76 68 62 58 57 64 68 75 61 68 67 60 70 73 76 79
79 78 77 78 78 79 79 77 78 78 77 80 79 79 87 55 25 21 71 56 59 46 27 31 57 79 71 70 75 76 74 54 56 54 60 66 71 64 73 60 62 66 69 74 74
79 80 78 78 78 77 77 78 79 80 78 76 76 78 85 28 15 45 56 66 57 36 28 36 57 68 70 64 77 64 71 56 60 64 66 68 72 67 66 70 66 67 71 69 70
80 79 80 78 77 78 78 79 80 80 79 76 72 77 76 24 25 49 53 46 41 23 27 25 41 47 51 51 64 58 75 63 59 70 70 61 82 72 65 72 69 69 69 67 69
80 79 80 78 78 79 80 81 85 82 79 75 71 88 35 21 30 28 30 24 21 21 24 23 31 41 46 35 44 67 76 82 66 67 70 70 88 75 70 70 71 68 65 66 68
82 82 81 80 80 81 84 91 87 82 75 72 92 80 30 33 31 24 29 20 20 21 21 15 31 40 31 31 38 69 83 76 75 63 71 73 83 77 71 63 69 67 63 62 61
81 82 82 82 82 84 92 89 81 84 81 70 60 71 38 28 29 22 30 14 16 18 24 26 34 38 37 37 46 70 75 73 76 71 82 78 83 76 69 65 66 64 62 61 64
85 83 85 83 83 84 93 89 58 56 84 30 31 38 32 28 23 28 24 20 22 28 36 36 43 46 48 33 31 44 48 52 52 68 79 84 85 80 73 68 60 58 64 60 60
85 85 85 85 87 87 93 54 43 44 48 48 44 38 33 31 29 24 20 24 25 33 34 37 46 33 37 28 29 33 36 78 83 73 78 90 88 74 75 78 59 53 52 54 56
86 87 87 86 86 92 71 43 41 52 51 28 46 38 30 29 29 26 23 22 25 35 36 41 35 25 25 29 29 37 37 36 75 84 81 80 89 84 79 76 82 71 51 49 52
94 89 92 94 70 66 53 45 45 41 40 30 34 25 29 28 27 20 20 21 28 31 32 36 30 27 31 30 29 53 25 28 76 75 81 78 90 92 81 83 82 80 63 52 53
94 94 91 91 70 47 34 52 48 26 53 29 33 21 25 25 24 27 22 23 26 28 30 34 28 30 32 28 26 28 23 22 69 74 85 88 76 65 84 88 83 79 74 58 54
93 94 88 93 95 62 57 52 29 40 52 37 33 30 22 22 23 23 24 22 22 25 30 27 22 23 24 23 23 26 24 43 54 74 78 76 68 71 95 80 73 71 71 65 55
94 94 91 67 35 51 49 37 47 55 41 30 35 36 38 25 23 26 29 34 34 40 54 33 28 24 19 23 23 25 31 44 79 76 77 79 71 64 89 90 74 67 74 68 61
94 95 93 75 71 51 41 37 59 43 50 38 39 36 43 27 22 26 31 36 34 34 44 40 36 26 21 23 25 27 28 50 74 80 67 77 73 68 85 87 85 74 80 78 86
94 79 81 62 77 64 42 64 46 50 35 35 35 41 43 35 25 30 34 34 31 32 38 44 37 26 20 18 17 31 29 27 47 60 66 87 86 88 83 90 91 93 93 96 92
85 61 46 52 58 38 44 63 58 39 35 31 44 46 49 44 45 41 38 31 29 27 37 35 42 34 25 20 24 27 28 38 47 56 65 94 93 83 96 96 94 96 93 95 95
64 45 40 57 42 40 46 54 42 26 35 30 38 47 49 49 50 44 36 27 26 31 32 43 41 31 34 35 28 32 48 49 47 54 76 94 87 90 93 90 94 93 96 96 97
60 39 41 35 41 83 56 49 33 21 24 33 32 36 44 46 60 40 33 31 23 31 33 40 34 45 44 31 31 32 42 53 48 63 87 81 73 86 92 92 91 90 95 95 95
59 56 47 31 38 49 55 27 28 24 32 29 35 40 51 49 58 56 34 25 25 24 29 30 39 50 38 37 32 31 31 47 56 76 84 60 58 89 92 93 92 89 92 93 94
61 29 36 33 44 41 47 34 34 29 37 37 45 39 47 58 69 59 51 36 31 46 44 38 38 42 48 45 42 38 36 42 42 50 66 61 81 95 98 94 87 87 90 86 89
61 48 54 33 34 50 42 37 36 34 33 43 47 53 47 55 55 57 56 37 34 46 33 31 38 43 39 34 35 40 37 43 71 44 56 55 76 92 95 90 83 82 78 77 81
59 58 72 71 51 36 44 51 36 36 40 47 51 45 53 64 70 62 49 48 57 39 46 44 50 43 49 42 45 48 38 50 67 77 86 91 84 88 84 79 80 78 75 72 71
88 81 59 72 42 40 40 41 37 42 37 41 44 46 40 42 50 52 63 49 44 61 42 54 49 48 57 51 47 52 44 63 70 77 84 84 83 83 82 78 78 75 71 73 73

GFSSW_sfc_rhum_093.txt.gz
RH
75 76 76 75 76 76 76 76 76 77 77 78 79 79 80 81 84 72 24 19 26 58 60 41 36 33 40 55 53 66 90 87 72 69 73 65 62 52 48 50 52 52 46 53 64
74 75 77 77 76 76 76 76 76 76 77 76 79 81 80 83 74 47 32 38 47 60 37 23 24 29 37 40 48 65 77 72 56 48 66 64 57 56 53 58 68 68 62 64 64
79 79 80 80 76 76 76 76 76 76 78 76 79 79 81 80 41 8 49 48 49 60 29 22 20 43 60 36 50 67 69 60 52 46 50 55 59 49 54 58 60 68 67 65 63
78 77 77 77 75 76 76 76 76 76 78 78 80 79 82 80 7 29 62 52 60 33 23 23 28 58 63 48 53 61 58 56 48 48 58 62 54 52 49 54 49 54 58 62 62
79 79 76 77 78 76 77 77 77 76 77 77 76 77 66 31 19 13 63 53 51 29 21 22 30 57 56 62 61 62 58 50 48 50 58 60 55 56 61 52 53 57 60 58 53
79 78 78 77 76 76 77 76 78 78 77 76 75 76 54 22 19 43 42 46 37 22 20 23 39 50 54 57 63 55 53 53 50 57 55 63 59 53 70 52 56 58 55 52 53
80 79 79 78 78 77 77 77 77 79 77 76 73 70 47 15 19 44 31 30 26 18 18 22 36 40 44 42 44 51 58 54 53 58 63 64 75 79 70 55 55 54 53 54 53
80 81 80 80 78 78 78 79 82 80 77 73 73 70 20 16 20 35 21 21 20 15 16 16 29 33 34 32 47 60 52 63 56 55 88 75 78 68 76 68 56 53 54 56 54
82 81 80 80 81 81 83 88 86 79 73 71 67 55 17 30 22 22 19 18 20 14 12 14 20 30 24 24 56 62 60 64 65 61 77 78 90 71 77 62 52 54 53 52 54
83 83 84 83 82 84 89 86 82 81 71 64 56 49 26 22 22 21 19 14 15 14 16 20 23 31 24 21 41 66 57 53 61 62 70 79 83 86 91 64 57 53 52 53 52
85 84 83 83 85 84 74 64 39 40 61 26 22 25 21 21 18 19 18 12 14 16 24 25 35 41 31 22 25 46 47 52 46 55 61 68 81 82 74 60 63 54 54 55 59
90 84 85 86 84 85 78 28 28 28 33 35 38 31 24 23 19 21 17 15 15 16 24 30 38 31 26 22 21 25 35 34 62 56 66 78 82 81 68 63 56 55 52 53 48
94 86 85 87 89 79 47 28 31 27 31 21 28 28 22 21 19 21 17 16 16 25 26 26 28 24 25 25 22 22 23 53 48 73 71 79 88 77 66 63 56 54 46 46 46
94 87 87 90 66 48 35 31 32 31 26 26 24 20 23 22 22 17 15 13 19 20 26 29 22 23 21 24 21 24 19 30 60 53 76 62 89 73 65 74 70 52 46 43 44
94 89 86 90 50 36 25 35 33 23 37 24 24 17 20 18 18 20 16 17 18 23 25 26 24 24 24 21 21 23 18 24 52 55 57 64 80 57 68 73 76 63 49 39 39
93 89 86 81 76 40 39 30 22 28 36 27 22 23 18 16 18 19 19 17 17 21 21 22 18 19 19 19 20 19 26 35 45 43 44 49 47 49 68 62 59 60 58 52 41
95 93 85 55 25 35 34 26 29 36 31 24 25 26 26 17 19 20 22 23 25 27 28 23 20 16 15 17 20 17 18 39 36 41 28 43 52 36 56 66 61 54 55 57 46
94 94 84 62 50 41 27 26 38 32 31 27 26 24 25 19 18 22 24 26 23 22 24 26 28 20 16 17 18 20 16 29 41 42 34 50 42 38 68 74 71 65 47 53 51
94 57 50 39 56 48 27 36 30 30 25 26 25 29 29 22 19 23 26 25 22 21 25 25 23 19 16 15 14 20 19 15 29 33 30 42 49 66 70 83 75 61 54 56 56
61 40 33 40 43 28 28 45 33 29 28 24 31 33 34 30 26 27 27 22 20 20 21 25 26 20 18 14 17 17 15 19 24 40 39 55 56 44 73 89 90 84 85 83 74
43 31 31 39 33 27 27 31 31 22 26 22 25 31 33 35 32 33 27 20 19 24 21 21 24 24 24 22 18 20 20 25 20 27 28 37 43 64 64 76 89 93 90 92 94
37 29 32 28 29 46 31 32 37 15 19 22 22 30 36 37 35 27 24 22 19 21 23 22 20 27 25 20 19 19 26 25 19 40 43 32 36 69 69 70 76 84 82 80 88
38 34 33 25 25 28 31 17 22 20 25 26 26 30 39 42 46 43 31 21 23 19 26 26 29 30 26 21 22 28 25 28 32 35 44 25 29 68 74 80 82 83 86 89 87
41 26 24 25 28 25 23 21 24 23 30 32 36 29 34 43 53 44 39 30 28 32 44 37 29 31 26 29 26 36 36 24 22 21 36 27 46 80 75 76 81 80 82 85 86
41 33 33 23 24 25 25 25 25 26 26 34 35 38 32 39 42 44 40 35 33 41 30 28 35 31 29 28 26 30 42 41 24 28 28 33 35 53 67 69 69 70 79 80 82
44 42 45 45 32 24 36 28 24 25 31 35 36 33 38 46 42 38 36 36 35 33 37 30 47 39 37 32 33 26 33 46 47 50 49 52 46 59 61 64 67 70 76 76 77
62 58 42 55 27 22 25 27 28 29 29 32 34 33 32 31 31 36 33 28 36 32 36 40 36 51 43 38 35 36 31 32 42 50 49 39 52 64 68 66 66 66 67 69 69

GFSSW_sfc_rhum_096.txt.gz
RH
74 72 74 74 75 75 77 77 76 75 76 76 77 79 81 80 82 42 17 15 20 57 58 22 28 36 36 57 46 56 72 83 65 59 57 52 49 42 36 42 38 38 28 42 40
76 77 77 78 77 74 75 75 75 76 75 76 76 79 81 82 39 24 30 33 47 61 23 20 26 35 40 40 38 55 67 67 42 40 48 48 44 46 44 45 44 34 36 40 41
78 78 78 77 75 76 76 76 75 76 75 77 78 79 80 70 29 6 46 45 52 55 17 13 20 35 47 36 39 49 65 47 39 38 37 43 44 39 42 47 42 44 45 43 42
80 80 78 77 78 74 75 75 76 76 76 77 76 77 79 42 10 20 60 54 55 25 18 14 18 37 56 40 38 48 45 45 35 36 38 44 41 41 40 37 34 37 39 41 42
78 79 77 77 76 76 75 75 75 76 76 76 76 76 50 26 14 16 59 49 24 22 16 14 16 33 45 49 44 48 46 39 35 39 49 42 40 41 44 38 34 34 38 39 37
79 79 80 79 77 75 75 76 76 77 76 75 75 78 32 17 13 26 20 23 19 16 14 12 14 30 40 48 50 43 44 40 38 45 52 42 40 37 43 38 37 38 37 35 34
79 79 78 78 77 77 77 76 76 78 77 75 75 50 25 12 14 26 19 20 16 13 15 12 16 32 33 42 44 50 48 46 46 49 51 46 53 53 41 38 41 37 35 34 33
82 81 81 80 79 78 80 81 79 81 77 74 74 40 14 11 15 22 16 19 16 12 11 17 26 27 26 28 51 53 45 64 56 50 66 67 68 62 52 40 38 35 36 37 36
82 82 80 81 81 82 86 87 85 81 75 71 49 32 12 23 16 14 9 12 11 10 11 16 26 26 24 35 46 66 58 54 62 52 69 79 78 66 72 60 35 36 35 36 36
87 84 82 82 81 84 88 85 85 76 60 44 35 34 17 17 16 14 12 11 11 11 12 20 28 29 21 26 47 71 50 40 52 63 74 90 84 73 87 70 37 36 34 35 34
90 86 83 82 83 84 66 44 38 39 37 21 16 17 14 15 15 14 11 11 10 10 12 15 27 35 24 19 20 45 59 40 39 53 86 82 86 88 86 81 42 35 35 34 34
92 86 83 84 83 84 51 20 20 20 21 18 20 19 15 14 18 16 10 12 13 11 12 16 24 24 24 18 20 28 37 36 38 46 53 86 87 86 88 81 52 37 32 32 32
93 85 84 84 85 68 24 19 18 20 22 17 16 15 15 14 15 16 14 12 12 10 14 13 13 23 25 19 20 23 28 29 44 56 54 65 79 77 77 88 61 39 31 32 36
93 86 88 86 65 23 20 20 18 22 19 20 16 15 16 14 16 12 10 12 11 11 11 10 14 22 25 25 19 22 18 30 44 45 74 57 83 69 71 88 79 48 36 35 34
92 87 86 97 36 21 19 17 18 18 25 18 16 13 14 16 16 15 10 12 12 10 13 14 16 22 23 24 22 20 15 22 29 38 55 63 44 59 75 70 63 49 36 30 31
92 89 85 59 39 20 18 18 18 21 31 19 16 16 16 14 15 14 15 12 12 12 13 15 14 15 16 18 20 16 17 21 26 31 43 39 38 54 50 55 45 47 40 34 29
90 93 80 33 18 17 18 21 22 21 19 19 18 16 16 16 16 16 19 18 17 20 17 17 18 14 14 19 18 19 20 29 30 29 25 29 35 33 37 50 42 51 46 38 30
92 91 74 31 23 22 21 20 26 21 20 17 18 17 16 14 16 17 18 18 17 14 12 19 20 16 14 14 19 23 18 25 43 30 24 29 38 31 33 42 46 38 44 39 36
94 33 25 20 27 26 22 18 21 19 17 18 17 18 17 14 15 18 19 16 16 14 17 16 17 12 12 12 12 19 24 16 20 22 21 25 26 49 48 50 46 43 41 38 40
34 21 20 24 25 21 17 30 19 17 17 16 21 22 21 15 17 17 19 17 17 16 15 17 19 12 12 11 11 12 13 20 19 33 30 25 28 26 55 52 68 47 42 36 41
30 17 24 21 22 19 17 19 17 14 16 17 18 22 23 20 16 17 20 17 17 17 17 15 16 16 13 14 13 14 14 12 14 17 21 24 24 34 39 51 67 70 72 62 48
22 21 22 19 20 17 16 15 36 11 12 16 17 20 24 25 20 19 21 19 15 15 19 16 15 20 15 14 13 10 12 13 14 25 18 18 29 42 44 48 56 71 72 77 78
22 20 18 17 18 17 18 13 14 12 13 16 19 21 25 28 32 23 20 20 21 16 19 18 19 23 21 16 16 14 12 12 11 11 24 21 20 44 50 55 59 64 68 75 81
26 21 18 18 16 15 17 16 16 16 16 17 22 20 23 27 27 26 23 21 23 21 45 28 18 23 19 17 14 22 19 14 13 14 16 16 25 48 52 57 63 67 72 76 76
24 19 21 15 14 15 16 16 17 16 16 16 25 22 23 28 26 27 23 22 24 36 24 24 27 21 19 17 17 18 16 14 16 13 16 15 17 33 47 51 57 62 66 71 70
30 23 22 19 21 17 27 20 17 16 20 18 24 21 23 29 30 33 26 28 27 25 28 22 33 28 28 22 18 23 24 20 17 18 16 19 20 35 42 48 54 60 70 67 68
34 34 32 37 17 16 17 18 18 18 21 24 25 22 23 25 23 22 20 21 25 26 28 31 29 35 32 26 25 24 23 22 26 25 22 19 34 39 48 53 52 54 61 62 62

GFSSW_sfc_rhum_102.txt.gz
RH
76 77 75 76 75 77 75 75 75 75 76 77 78 80 80 83 82 39 24 22 22 57 61 16 23 24 25 33 40 44 95 90 88 37 41 25 27 26 26 30 28 29 32 36 29
76 76 76 76 76 74 74 74 74 75 76 77 78 79 80 82 48 26 28 53 54 52 21 19 17 25 33 41 48 64 91 81 56 38 32 29 31 36 37 35 33 31 28 27 27
76 76 75 75 76 77 76 75 75 76 77 77 78 79 80 70 36 16 58 55 51 42 13 14 13 28 36 46 41 57 94 66 64 56 28 34 34 32 37 42 29 33 32 28 26
79 78 78 78 74 74 74 75 76 78 77 77 78 79 80 45 23 18 59 58 57 12 15 15 14 28 37 48 43 48 43 50 40 42 27 36 35 32 33 33 25 29 31 27 27
78 78 78 76 78 77 77 76 77 78 78 78 78 78 47 30 16 27 65 56 16 13 16 16 14 20 40 45 40 50 48 40 49 34 30 34 36 45 38 37 27 28 30 27 26
81 81 82 79 80 78 78 78 79 78 78 78 77 79 40 22 9 19 16 22 8 12 14 14 12 12 28 33 50 42 42 43 37 52 34 32 28 32 46 28 28 30 29 25 25
83 81 82 82 81 79 79 81 82 81 78 78 78 50 26 17 8 10 12 8 6 9 13 11 10 10 15 30 33 32 47 52 54 51 41 31 34 41 25 26 30 29 28 26 24
87 85 84 82 83 81 83 84 85 83 80 80 77 42 25 7 8 12 11 9 6 8 10 9 8 9 13 28 30 42 44 66 68 64 41 44 67 45 26 30 31 28 28 28 26
89 88 87 83 85 85 88 86 84 84 82 77 57 36 18 16 8 10 10 11 9 8 9 8 9 12 15 31 44 58 72 63 66 50 52 51 76 64 28 29 29 30 30 28 28
91 90 87 86 87 89 88 87 72 79 68 36 30 26 15 10 7 11 9 10 10 10 11 12 13 19 24 30 60 55 67 58 67 78 56 76 90 47 41 34 28 33 29 28 27
91 92 91 89 88 90 69 38 42 40 36 20 16 13 10 10 10 10 7 9 9 9 13 11 13 23 26 25 27 57 84 70 84 71 62 75 88 85 67 52 60 33 32 32 29
91 93 91 89 89 89 63 27 13 12 19 16 9 8 8 10 13 11 8 9 9 10 10 10 12 12 17 25 54 63 71 89 89 76 92 78 85 84 86 76 70 62 53 30 27
91 93 90 89 89 69 23 16 10 11 20 12 8 8 8 8 12 12 10 9 10 10 8 11 9 9 13 20 35 43 47 83 86 89 90 76 92 88 87 90 76 66 57 68 32
91 92 91 90 70 18 16 11 10 11 24 15 12 10 9 9 11 9 9 9 9 10 7 8 7 8 11 16 27 63 58 64 81 90 94 73 94 93 94 85 85 72 64 56 44
91 90 91 96 39 18 12 10 11 14 40 12 11 9 10 12 10 11 9 9 11 9 7 8 8 9 10 14 23 38 44 59 74 90 95 80 64 79 86 91 86 77 63 58 44
92 90 89 52 42 18 11 10 13 25 34 12 10 12 12 11 11 10 12 10 9 10 7 7 6 7 8 11 15 26 34 60 76 95 98 58 50 86 85 73 78 66 61 65 47
92 94 84 37 22 11 10 14 28 34 11 14 12 9 10 12 11 12 13 14 15 17 16 8 7 8 8 11 12 22 25 58 85 97 77 81 48 68 59 52 62 68 78 69 54
93 95 64 30 13 13 14 21 41 13 11 9 9 9 10 13 11 12 13 13 12 12 11 12 11 11 10 12 13 18 27 32 67 66 75 79 53 51 44 43 50 55 53 68 64
93 29 23 19 18 14 20 31 33 13 10 10 10 17 15 10 11 14 13 13 11 11 16 13 12 6 9 9 10 15 20 16 25 38 44 68 54 41 37 42 47 45 58 68 65
48 21 15 11 11 15 22 34 15 10 9 9 13 16 21 20 14 14 15 11 10 9 9 14 21 10 9 9 10 12 12 18 37 45 51 47 71 56 47 47 49 49 51 51 56
38 22 12 9 10 16 24 22 12 8 8 9 12 13 14 34 17 18 15 17 15 14 13 11 16 17 10 12 12 11 12 13 13 22 40 42 56 58 38 37 39 38 40 44 47
24 21 12 9 16 16 18 14 25 6 7 8 10 11 13 20 25 32 26 21 15 15 19 15 15 20 15 9 9 9 10 11 16 25 19 23 40 59 61 41 36 37 35 52 40
28 19 12 10 18 20 17 9 7 8 7 8 9 11 11 25 31 38 25 22 18 14 25 20 20 22 19 14 10 11 9 9 8 11 24 21 65 62 64 50 52 54 57 68 59
31 24 14 12 13 17 17 12 10 10 9 9 10 12 14 18 28 55 67 25 16 14 55 32 19 23 20 26 20 13 10 9 9 11 12 12 36 49 48 54 53 57 58 68 71
27 19 15 14 12 11 11 12 11 10 9 9 13 14 15 35 54 32 38 25 17 32 21 17 26 21 16 16 17 17 10 10 12 10 13 15 28 31 39 49 51 61 63 67 71
30 24 19 12 13 12 20 12 11 9 11 12 14 12 14 18 60 58 33 65 30 23 21 17 28 30 31 19 19 18 15 10 9 9 10 21 40 56 76 82 58 60 66 69 69
26 24 25 24 12 11 12 14 12 11 11 10 14 16 16 19 17 23 25 15 28 26 25 28 35 45 42 39 24 22 22 20 10 10 11 45 48 42 64 73 61 58 62 68 75

GFSSW_sfc_rhum_105.txt.gz
RH
76 76 76 76 76 75 76 75 74 75 77 79 80 81 83 86 85 49 42 27 32 52 58 24 19 23 25 32 43 72 93 94 81 41 38 43 52 38 34 33 41 36 42 44 40
75 75 77 76 75 76 78 77 77 77 77 79 80 80 83 86 65 39 34 55 54 58 15 28 22 29 36 42 57 79 97 88 70 66 48 33 41 41 40 37 42 45 38 38 38
78 80 78 79 78 75 75 76 78 78 79 80 80 80 83 83 52 25 62 55 55 46 12 18 20 22 36 50 51 82 93 82 63 61 67 35 42 36 43 52 43 48 41 36 33
80 80 80 79 78 79 79 79 78 79 79 80 80 80 83 73 38 25 57 55 54 19 9 15 19 21 42 52 47 69 70 76 69 81 65 43 37 39 45 41 35 37 36 32 31
84 83 83 83 81 81 80 80 81 80 80 80 79 80 78 54 32 31 66 57 27 12 10 19 25 22 41 47 51 57 55 75 77 71 66 36 38 44 40 34 32 31 32 33 30
85 85 84 84 84 82 82 84 83 83 81 79 78 81 78 35 19 26 36 38 15 10 16 18 22 16 22 38 52 50 62 71 71 84 87 43 49 39 41 34 35 34 34 30 29
88 88 87 85 84 84 84 86 85 84 82 80 79 63 44 32 12 21 21 23 17 9 16 15 17 18 16 23 40 53 64 59 83 80 68 50 51 49 38 33 37 36 34 29 31
90 89 88 86 85 86 87 88 85 84 83 81 78 67 50 15 12 13 14 12 8 9 11 14 13 15 16 22 36 51 63 77 73 81 74 57 70 53 44 37 40 35 33 30 33
91 90 89 88 89 89 90 90 85 82 82 78 85 68 38 22 9 10 11 14 8 8 9 10 14 16 15 22 40 76 86 76 79 88 86 60 70 55 42 36 38 36 36 32 33
91 91 92 92 90 91 90 90 74 82 77 49 41 50 31 16 10 8 8 12 13 12 12 13 20 24 24 31 71 73 80 66 81 95 85 80 79 72 65 38 37 34 37 34 34
90 91 93 92 91 92 79 50 69 72 49 41 32 24 12 12 11 14 13 13 14 16 21 20 26 31 25 26 30 66 74 79 90 90 91 85 84 86 82 69 69 38 43 35 34
90 91 93 92 91 91 94 40 30 19 26 18 25 17 8 10 14 13 11 15 18 20 16 20 24 16 14 29 43 59 74 85 92 84 82 88 86 84 87 80 80 71 62 50 35
90 92 93 93 90 90 47 26 16 16 28 20 17 11 9 11 11 15 12 12 13 15 14 18 15 11 11 39 41 60 69 80 79 89 87 93 95 86 80 84 79 67 65 66 53
90 92 91 96 79 36 28 21 21 16 40 23 14 11 10 10 13 9 10 12 13 14 12 12 9 10 11 42 44 70 58 66 79 83 94 95 98 95 87 81 75 72 63 67 68
89 91 93 90 69 35 19 14 15 21 52 13 14 10 14 14 13 10 10 13 16 14 14 12 9 9 11 13 43 69 58 61 66 92 88 88 99 94 88 83 71 63 62 65 59
89 91 92 66 78 45 23 17 18 40 43 14 12 14 15 13 12 12 13 13 12 14 14 12 8 8 10 13 38 49 61 70 81 92 96 82 93 94 88 71 61 59 63 62 64
89 93 89 50 37 22 19 24 43 50 20 16 13 13 14 15 13 15 17 20 24 30 25 17 10 8 8 29 47 60 77 94 95 93 90 78 84 83 65 67 62 64 63 61 70
91 91 80 52 32 23 22 36 57 36 22 10 10 11 15 16 17 14 18 20 17 18 22 25 20 10 12 15 45 59 54 76 79 92 86 73 87 81 54 53 55 58 58 66 68
93 49 48 32 42 36 37 48 45 26 11 10 11 19 24 19 19 20 18 18 14 15 24 27 23 12 11 12 15 27 43 34 72 78 80 88 82 76 55 61 55 61 65 72 68
78 46 29 19 18 25 40 45 30 12 9 9 16 15 29 24 29 24 26 20 18 15 14 18 29 19 14 11 13 18 22 36 51 84 86 84 91 90 61 69 60 60 56 50 55
63 41 23 16 15 32 37 31 22 8 8 14 13 16 22 33 28 39 34 21 19 18 18 30 32 24 20 20 19 20 30 28 45 45 58 86 82 71 62 54 58 52 51 52 56
43 42 18 13 31 31 28 21 30 10 9 11 11 13 17 26 31 44 40 35 22 18 28 31 32 37 27 14 13 16 18 21 32 36 44 41 90 66 59 57 48 53 56 58 51
55 34 20 18 30 23 25 20 11 10 13 11 12 11 16 34 47 43 33 25 26 21 34 30 42 45 31 23 19 17 16 19 19 19 27 37 80 56 57 53 48 62 63 62 63
56 44 31 29 24 20 26 24 18 10 12 12 18 14 18 34 41 60 52 34 25 20 56 40 34 40 43 32 24 30 16 14 28 22 24 24 72 76 57 52 76 94 93 95 68
53 38 29 36 25 18 20 19 15 15 13 14 24 16 25 47 67 67 53 47 38 40 31 30 39 34 29 28 21 21 21 16 17 22 30 56 62 84 95 74 88 87 89 91 90
58 47 42 38 29 22 26 26 14 13 17 16 20 15 21 41 49 66 56 74 64 46 36 32 43 55 48 46 39 37 22 22 18 13 41 71 95 90 85 81 82 78 76 87 92
53 51 55 52 35 26 22 25 15 16 15 15 16 22 25 30 34 36 42 45 43 49 41 45 60 68 72 57 49 44 44 34 47 50 30 53 74 82 80 72 75 76 70 81 84

GFSSW_sfc_rhum_108.txt.gz
RH
76 74 78 78 77 75 76 78 78 79 79 80 81 82 83 87 86 66 45 27 39 53 63 23 26 20 25 30 61 77 91 94 74 40 48 46 46 38 40 49 42 39 48 52 54
77 77 79 78 79 80 77 76 79 79 80 81 80 82 83 86 82 56 40 55 60 65 22 25 27 25 40 38 58 79 94 89 71 67 66 54 58 41 51 50 48 41 51 53 53
81 82 82 82 80 79 81 81 80 80 81 81 82 82 83 85 69 31 57 55 64 58 14 17 21 24 32 50 58 78 92 78 69 61 59 62 56 40 51 52 43 48 56 53 54
83 84 85 83 82 82 82 81 81 82 82 82 82 82 84 86 39 26 58 60 62 22 12 15 20 27 29 52 60 83 76 75 61 58 67 68 49 45 58 50 38 40 44 47 51
86 87 87 86 86 84 83 84 84 84 83 81 80 81 84 58 40 30 62 60 38 17 10 13 26 28 31 48 53 74 73 69 78 76 69 67 65 47 49 42 37 39 40 47 50
88 89 89 88 85 84 85 88 87 86 84 82 79 81 86 37 19 41 39 40 20 12 12 14 25 25 25 36 56 52 61 79 89 78 77 77 61 47 45 42 38 40 40 38 40
89 89 90 89 86 86 86 89 86 84 83 82 80 69 67 26 25 39 41 41 27 10 18 17 18 27 23 20 37 50 71 91 90 85 90 70 67 58 42 36 40 39 36 31 39
90 88 88 88 88 87 90 91 88 84 83 83 79 81 50 25 25 18 28 19 22 12 11 16 20 22 21 17 20 58 77 83 81 82 78 92 79 51 40 40 39 38 36 35 41
91 90 90 90 91 92 92 91 86 83 81 79 92 81 52 32 18 14 16 15 13 12 11 8 16 22 18 26 41 73 86 77 99 87 95 89 84 54 44 44 41 41 41 38 42
90 91 91 93 93 93 92 91 84 83 78 63 52 58 35 21 15 10 10 11 12 12 12 13 21 29 29 33 52 75 73 82 89 93 90 91 88 67 57 44 43 44 38 39 43
90 90 92 94 94 94 94 66 47 53 75 45 36 30 22 14 13 15 11 15 18 19 23 22 28 34 28 26 29 67 83 89 89 85 86 96 92 95 79 54 58 49 42 41 45
89 91 92 92 93 92 95 52 32 34 33 34 33 32 23 20 14 15 14 20 22 24 23 25 30 22 20 22 30 73 89 92 84 84 79 93 92 80 85 86 78 67 44 39 44
89 91 92 92 92 92 70 42 25 25 37 24 21 26 26 12 13 13 16 14 19 23 20 24 19 16 17 23 63 70 73 89 81 82 85 90 94 83 82 86 77 73 70 63 43
88 90 93 96 66 60 40 32 27 26 45 33 24 12 11 12 15 10 14 14 19 16 16 17 12 13 15 23 53 87 62 65 83 84 95 90 97 96 90 86 82 72 66 69 59
87 90 94 92 80 49 23 33 27 28 57 21 18 12 15 15 16 14 13 17 19 19 19 18 13 12 14 14 47 79 58 65 74 92 93 88 92 94 95 87 79 70 65 66 65
89 90 92 83 96 64 50 36 29 43 55 19 15 16 21 18 16 16 15 16 15 20 21 19 15 11 11 32 53 54 67 71 76 92 95 82 85 94 95 83 69 61 67 62 63
90 91 92 61 32 37 35 34 47 58 29 18 19 19 21 20 19 18 20 22 24 31 31 22 18 22 50 65 58 68 85 97 94 92 89 89 90 85 74 70 61 59 77 66 67
91 92 93 72 70 48 38 41 63 40 37 20 12 16 20 23 23 18 22 25 22 25 30 30 28 15 30 60 74 73 66 72 80 96 87 84 88 80 62 52 49 50 59 69 69
92 85 81 62 66 51 40 58 52 42 14 12 12 21 25 22 27 20 24 23 18 21 26 31 28 16 15 37 54 67 59 49 76 86 88 88 79 72 57 64 59 59 56 67 66
98 82 53 37 43 40 46 56 40 27 12 11 21 23 36 30 34 38 40 30 30 24 24 24 27 20 17 16 33 42 37 52 66 87 93 88 86 88 61 64 68 68 63 64 69
89 48 34 31 31 43 51 44 29 22 11 14 17 18 25 35 38 48 45 33 28 26 29 37 29 26 25 28 21 22 34 38 50 64 82 95 89 72 57 57 69 68 62 63 60
88 60 29 22 39 48 42 31 35 22 11 13 13 15 24 36 53 50 42 40 28 26 32 44 41 41 29 23 18 18 21 31 36 34 56 59 78 52 55 51 61 62 62 60 54
88 69 33 23 40 38 31 24 21 23 16 14 17 17 33 47 51 53 47 34 32 34 31 31 42 46 36 33 26 28 26 45 28 30 42 49 68 50 69 66 64 61 70 72 71
90 58 49 40 38 30 30 25 26 13 13 14 15 20 34 45 70 63 54 40 36 32 61 42 44 44 41 36 37 37 28 28 28 27 26 32 53 70 60 92 92 86 84 86 82
89 59 50 58 44 43 35 27 22 16 14 17 21 27 31 67 69 67 64 47 35 46 37 31 37 38 31 48 44 40 45 40 43 34 23 28 64 86 79 98 97 98 94 90 85
74 68 69 66 54 46 45 26 18 16 16 22 22 32 34 50 45 44 63 70 54 33 43 39 42 61 60 42 46 46 50 52 60 64 77 82 96 94 90 89 94 95 91 93 84
76 73 78 73 62 57 34 20 17 16 19 14 19 24 32 38 37 36 45 46 53 50 46 65 65 65 77 62 46 72 57 61 65 66 79 77 77 92 89 83 90 90 91 96 96

GFSSW_sfc_rhum_111.txt.gz
RH
77 76 76 77 76 78 78 77 75 78 77 79 79 80 84 86 86 72 37 25 42 55 63 24 35 24 26 33 61 76 89 89 80 52 59 49 56 50 45 52 51 48 59 61 70
80 79 82 81 81 80 77 78 78 78 79 80 80 83 84 86 89 66 38 50 56 59 28 25 27 26 40 42 66 83 88 81 73 66 70 61 50 55 55 54 55 57 56 64 66
84 85 82 80 81 81 80 80 79 79 80 80 82 82 84 88 65 25 52 56 62 68 18 17 19 24 38 54 63 78 89 77 61 64 62 62 53 47 56 61 54 63 68 66 69
86 87 86 85 83 82 82 82 82 83 82 83 83 82 85 94 34 26 61 61 66 39 12 15 20 27 34 47 66 81 74 76 61 57 59 66 65 48 52 50 47 52 60 64 68
88 88 89 87 84 83 82 83 85 86 84 83 82 82 84 49 33 28 71 63 43 15 11 13 25 29 36 38 68 75 75 79 69 70 66 67 68 58 52 42 47 51 57 62 65
88 89 89 89 88 86 86 85 88 86 84 83 82 82 81 22 14 41 47 42 26 16 15 15 22 27 34 27 62 61 68 75 72 73 68 76 63 63 50 40 48 54 57 58 60
87 88 88 88 88 87 87 88 88 86 84 82 81 74 69 17 31 41 37 32 29 14 15 14 18 24 30 29 34 62 80 87 90 86 80 79 70 66 49 48 48 50 52 54 56
88 87 87 88 89 89 90 91 89 86 84 83 81 84 51 23 29 23 42 39 27 15 14 19 20 25 28 22 20 68 73 87 86 87 90 83 86 68 53 45 47 46 48 52 51
89 88 87 90 91 93 93 92 88 84 81 80 92 80 39 35 31 28 25 32 18 21 17 8 17 22 25 28 40 72 79 80 94 92 87 91 92 72 56 49 49 45 41 50 60
89 90 90 91 93 94 95 88 81 82 81 71 58 58 30 21 21 12 21 18 16 13 14 14 23 32 34 32 44 71 86 83 90 96 90 93 93 80 63 56 45 45 48 52 62
88 89 91 91 93 94 93 69 37 43 77 38 33 29 23 22 15 14 11 12 18 20 25 26 27 32 29 31 32 72 81 89 87 92 91 91 94 91 83 67 48 52 49 52 55
90 89 90 92 93 89 91 34 32 37 36 37 36 36 30 25 27 17 16 22 24 28 26 27 33 26 25 25 36 68 85 93 84 87 91 94 93 94 88 86 78 54 49 50 48
92 89 90 92 92 87 59 42 33 44 45 28 32 30 27 27 26 16 17 20 22 28 24 28 23 19 21 34 72 85 79 86 81 85 84 87 94 97 88 89 79 70 53 49 50
93 90 92 95 57 66 36 46 39 34 46 32 30 20 17 12 17 11 15 14 21 19 22 22 16 16 19 22 68 83 63 70 86 87 94 89 97 97 92 90 84 75 71 54 50
93 93 93 94 66 52 26 47 43 31 47 26 20 13 16 17 19 15 15 18 20 21 22 23 20 21 17 16 56 72 63 73 78 94 94 90 97 91 92 90 82 77 72 69 52
94 94 90 89 94 60 52 45 31 44 54 27 17 19 23 20 18 17 18 17 18 21 25 20 18 18 20 45 45 59 72 80 87 92 94 79 87 89 94 82 68 74 72 68 55
94 96 90 69 28 48 45 36 48 54 33 18 17 22 24 23 20 21 21 24 26 31 31 22 23 60 56 70 63 71 87 91 88 92 87 89 92 84 72 76 66 74 77 66 67
95 94 93 79 77 50 39 42 67 39 44 28 15 24 23 28 26 23 27 28 26 27 29 28 25 58 53 68 72 82 75 75 75 92 91 89 90 79 66 66 74 71 71 70 70
95 91 90 76 75 55 40 58 52 46 29 14 15 26 30 26 32 28 34 38 25 27 32 29 27 18 43 53 51 70 74 59 83 90 92 89 78 69 61 58 60 66 53 72 70
97 87 63 59 54 41 44 58 47 33 22 15 20 23 35 35 38 40 44 37 34 30 29 34 30 22 19 45 54 55 48 64 78 84 98 88 87 84 70 68 65 62 65 65 68
91 61 32 57 39 44 50 48 33 25 25 15 17 20 26 40 47 54 52 39 34 30 29 40 32 25 28 29 47 34 50 48 59 73 90 95 81 66 48 52 69 63 57 64 65
92 46 37 41 43 62 53 38 35 26 14 15 15 16 33 44 56 56 49 43 34 36 32 38 44 46 30 28 25 27 43 44 44 42 77 75 65 67 58 58 72 73 64 66 60
82 84 49 34 49 52 40 27 24 24 22 17 19 19 37 51 50 55 47 37 35 32 37 32 39 49 41 39 34 32 37 49 34 41 57 58 53 70 62 66 75 78 79 72 72
90 57 53 44 47 39 38 31 27 20 22 15 18 22 40 54 70 56 54 41 41 38 62 48 42 43 59 45 46 54 54 51 28 32 35 41 28 64 70 80 78 81 79 77 83
91 59 67 66 56 67 50 42 36 30 16 20 31 33 36 67 69 56 63 50 38 47 42 39 40 43 43 52 48 60 65 65 67 78 30 25 27 62 88 92 91 88 84 83 86
59 79 85 81 68 62 61 42 34 27 16 24 33 34 40 49 36 38 55 65 56 47 48 48 53 66 66 48 47 58 58 63 69 78 74 87 87 99 97 98 98 93 86 84 83
87 80 85 81 73 68 58 44 29 16 21 16 25 35 37 35 36 40 50 55 63 68 51 70 60 63 72 61 41 60 64 66 70 78 92 95 98 74 83 93 97 99 98 98 90

GFSSW_sfc_rhum_114.txt.gz
RH
77 76 77 79 78 78 78 78 78 76 76 80 80 82 82 85 87 78 33 25 38 62 55 32 39 27 28 36 69 75 88 86 76 47 70 56 63 55 54 59 56 55 70 74 80
82 80 81 78 79 80 77 76 76 77 77 78 80 80 81 85 94 67 36 43 52 60 20 29 26 29 43 45 71 79 86 78 72 68 72 65 58 60 62 62 66 73 75 77 84
85 85 81 82 82 80 78 78 77 81 82 82 82 83 84 90 68 21 51 52 62 60 25 22 22 29 42 56 64 83 83 78 64 63 68 70 59 53 61 67 62 77 84 83 84
86 87 86 82 80 80 80 78 79 80 82 83 83 83 86 94 29 27 64 62 64 54 13 15 22 31 37 44 68 76 73 70 89 83 57 68 66 58 56 53 52 64 74 78 82
87 88 88 88 87 86 85 85 82 85 84 83 83 83 86 36 22 50 61 60 51 17 14 15 28 31 38 37 72 77 72 70 87 77 63 68 66 66 57 49 53 63 70 77 77
87 88 88 88 88 87 87 88 88 88 85 83 82 83 80 17 13 49 56 35 24 16 17 19 24 27 36 33 66 68 72 78 75 74 71 75 64 62 57 48 58 67 72 71 73
86 87 87 88 88 88 88 89 88 87 86 83 80 77 60 12 35 40 40 37 28 18 18 16 22 28 34 30 32 72 83 81 87 79 80 79 72 75 61 55 59 65 68 68 69
85 86 86 86 88 89 90 91 90 86 85 84 80 86 50 24 33 29 44 45 31 16 15 18 23 28 32 25 35 77 79 88 88 89 84 77 87 72 71 57 64 63 63 65 67
89 86 86 87 89 92 94 92 87 85 82 79 90 77 31 38 31 31 35 30 25 21 19 9 20 25 26 31 40 76 91 88 88 88 87 87 89 84 69 55 63 63 61 62 65
93 90 89 90 92 93 91 87 83 85 82 75 63 56 27 24 24 18 28 17 17 15 16 16 29 32 35 34 46 81 95 86 88 91 84 91 89 89 76 72 57 55 59 62 61
94 92 89 90 92 90 91 79 39 42 81 45 39 32 26 23 20 16 21 20 20 22 28 29 27 35 37 31 41 76 85 91 85 85 86 91 93 95 83 80 66 54 54 58 61
94 93 92 90 91 93 91 34 34 36 43 37 41 38 34 30 29 23 15 23 27 32 27 29 36 26 26 28 39 82 90 95 86 84 82 93 91 92 86 89 79 62 55 58 65
94 94 94 90 91 80 56 41 38 52 50 31 34 35 31 30 26 24 19 22 26 32 29 32 26 22 24 56 68 86 81 93 83 88 88 89 92 93 90 90 83 77 60 58 64
94 94 95 96 49 62 37 47 43 43 45 28 33 23 20 18 18 15 17 16 20 24 24 27 19 19 23 24 63 84 69 73 90 90 94 89 95 97 88 93 91 80 69 56 57
93 94 96 93 74 42 32 51 52 33 43 26 24 16 17 19 20 18 17 17 21 22 22 22 24 23 20 19 52 59 69 82 82 91 94 95 96 90 94 94 86 82 77 53 54
92 94 90 89 91 62 53 51 34 44 52 32 19 22 25 23 19 20 18 18 20 24 28 23 21 21 23 48 48 66 77 83 86 94 97 90 89 95 95 85 79 72 76 66 51
93 92 92 75 27 54 50 38 47 53 34 24 18 23 26 25 22 24 23 28 29 43 34 26 27 65 62 75 66 78 84 96 93 97 91 92 92 82 78 87 79 80 77 70 55
93 95 93 84 84 55 41 42 68 39 47 27 16 28 27 30 29 26 28 30 30 30 37 36 30 69 61 74 81 86 71 86 74 92 89 92 93 79 58 60 65 58 66 70 65
94 93 90 80 83 58 41 59 50 48 36 16 17 22 30 30 34 36 40 39 33 29 31 36 30 25 56 59 58 77 80 71 87 92 90 91 80 67 68 75 78 75 74 76 73
96 90 70 69 70 44 43 59 49 40 31 16 20 24 36 36 39 44 52 41 38 34 33 41 39 26 24 56 60 66 59 71 89 88 88 85 85 84 77 74 82 79 74 73 75
93 54 37 66 51 43 45 49 37 30 29 16 18 20 30 42 51 62 53 42 39 36 36 46 34 28 32 46 65 45 66 63 71 84 87 84 71 68 64 63 79 66 63 59 65
82 45 48 48 43 69 53 44 38 30 20 16 16 20 34 46 57 55 47 42 38 41 39 48 40 45 32 27 32 38 53 50 62 51 86 78 68 72 59 55 57 59 58 62 58
77 82 59 41 50 58 51 31 28 27 28 16 18 20 44 52 59 58 49 39 40 42 42 38 44 48 36 40 42 43 57 57 43 56 76 61 50 65 66 70 70 74 74 70 67
88 46 59 51 58 47 45 38 31 26 24 19 17 34 44 65 74 48 54 42 43 44 60 40 50 42 48 50 46 60 65 73 33 38 42 52 37 78 72 77 85 88 84 81 83
86 54 74 67 61 70 50 52 44 43 22 24 38 26 39 59 69 62 60 49 39 46 49 43 44 51 39 52 56 66 68 72 73 84 36 62 81 95 96 95 84 88 87 87 87
56 90 92 90 80 75 66 51 39 38 23 21 32 31 40 48 42 38 49 59 58 48 58 65 50 64 64 49 51 55 61 69 76 88 88 92 94 88 90 94 97 93 86 87 88
87 86 94 82 80 72 60 43 50 46 20 19 28 38 38 34 36 50 55 56 65 67 55 66 73 60 61 62 51 64 65 70 74 73 82 94 89 76 96 95 97 97 90 93 96

GFSSW_sfc_rhum_117.txt.gz
RH
79 78 80 79 78 78 76 76 76 78 78 77 78 79 80 84 85 61 21 22 30 55 53 35 26 21 24 31 56 58 66 64 55 50 57 49 54 46 46 46 46 50 46 48 61
84 81 80 79 79 78 78 77 77 77 80 81 81 83 84 83 69 39 31 39 49 62 16 20 21 25 33 36 59 68 68 68 69 67 71 50 48 52 49 48 58 61 57 60 62
85 85 84 81 80 80 79 81 80 79 80 83 83 83 84 80 40 15 54 50 56 51 13 20 20 27 35 39 54 79 74 69 77 74 78 64 50 46 46 50 50 55 63 62 62
85 86 86 85 84 83 83 83 84 82 82 83 83 83 85 71 20 17 71 64 61 42 9 14 22 31 31 36 49 60 61 60 73 68 76 67 51 48 51 42 39 45 54 59 60
85 87 87 87 87 86 86 86 85 86 84 84 83 83 61 16 10 38 59 57 37 12 9 15 28 26 30 27 45 55 64 68 64 58 60 59 52 56 47 48 45 52 57 56 56
85 86 87 86 87 86 86 87 88 86 85 84 82 83 40 9 17 42 41 24 14 12 11 12 22 21 24 24 40 57 62 72 72 74 64 64 54 55 45 45 57 56 55 54 55
86 85 86 85 85 86 87 88 88 87 85 84 80 68 32 8 30 37 26 22 17 13 14 12 16 22 23 22 28 56 77 74 77 70 71 63 60 60 46 48 60 54 56 54 53
91 88 85 84 85 87 89 90 89 87 84 84 79 63 25 18 20 23 27 30 20 12 11 10 12 18 20 19 52 59 57 69 80 74 88 63 84 65 53 51 63 52 56 56 54
94 92 89 87 88 90 89 90 84 84 82 78 64 48 18 32 23 22 24 21 17 13 11 10 12 17 17 19 35 61 56 76 83 78 81 71 80 70 65 51 47 52 53 52 54
94 94 93 92 91 91 91 87 84 80 76 67 56 37 19 17 17 19 21 15 12 12 11 12 16 18 20 19 32 53 64 72 74 80 68 86 87 84 75 54 49 54 53 52 51
93 94 94 94 93 93 74 51 30 30 50 26 24 25 20 18 16 13 18 16 13 15 16 18 20 27 21 20 27 38 55 62 74 76 78 75 83 84 80 63 57 63 62 49 48
92 91 93 94 93 91 64 23 26 26 29 26 31 30 26 23 19 14 14 16 17 23 19 19 23 18 19 20 35 41 50 67 76 78 73 79 74 86 93 71 58 64 69 48 47
90 90 92 94 91 58 37 27 30 26 30 24 25 25 22 22 17 14 12 16 18 22 20 20 18 18 19 31 38 46 36 64 63 78 72 72 73 82 92 85 68 71 50 43 44
90 92 90 95 44 39 25 29 29 30 24 20 20 18 22 19 13 14 13 13 14 20 20 18 15 16 17 17 24 33 42 55 76 74 71 74 71 81 83 88 69 62 54 46 42
90 91 88 90 46 25 24 31 30 25 27 22 16 12 12 12 13 11 12 12 15 14 16 18 15 16 17 15 20 23 49 56 66 71 71 79 83 68 75 88 72 63 50 47 42
90 91 89 72 65 33 33 32 25 29 28 21 14 15 14 14 13 14 12 13 14 16 17 16 15 15 16 40 24 52 58 61 66 70 77 56 67 59 79 75 62 55 48 44 43
90 91 90 67 19 37 33 26 31 31 24 17 12 14 16 19 16 15 15 17 19 22 23 19 17 33 43 48 48 52 49 58 65 77 58 71 76 58 55 56 51 52 50 49 45
92 94 85 69 54 42 26 28 43 28 29 17 13 18 19 21 23 19 19 18 20 19 20 22 20 43 44 38 42 46 33 26 42 50 58 72 76 48 45 43 52 51 53 56 46
94 61 59 50 63 45 27 37 34 32 26 13 12 17 20 22 23 26 29 21 23 19 24 22 22 22 45 46 40 52 49 33 49 61 66 62 57 44 46 48 61 66 58 61 58
74 56 45 54 53 29 29 46 34 30 23 10 14 15 20 22 26 27 31 28 26 25 22 24 29 20 27 42 44 43 39 55 62 55 49 49 60 53 57 60 61 64 65 56 60
56 35 37 50 38 29 27 31 29 24 24 15 13 14 17 25 30 33 32 28 27 26 23 23 25 23 22 35 32 42 42 46 51 51 40 46 34 45 51 53 67 65 60 55 63
40 32 42 41 31 41 29 31 39 21 17 12 12 12 19 31 33 30 30 30 29 27 25 25 24 27 23 20 22 32 33 32 35 46 44 47 32 57 53 46 58 62 62 61 70
49 47 42 35 30 34 34 25 22 19 19 12 12 13 28 31 29 33 31 29 32 28 29 26 27 28 24 26 30 31 40 33 26 31 39 33 25 46 53 51 55 60 58 56 60
57 37 44 38 38 31 32 28 26 21 21 18 16 26 33 35 41 32 34 29 32 29 59 36 26 32 25 33 37 47 46 49 38 26 27 25 27 38 68 69 63 63 55 56 58
56 39 55 44 40 34 32 36 32 31 22 17 25 21 25 32 35 35 35 29 29 38 37 29 33 32 29 38 40 45 46 53 45 54 29 30 54 69 78 82 75 68 69 68 72
47 68 61 62 62 51 55 43 35 32 29 16 24 19 29 30 26 27 30 40 32 33 35 39 36 42 43 36 34 46 45 52 63 65 61 60 63 75 82 79 74 68 70 71 78
62 66 72 64 59 52 45 36 33 40 28 17 20 27 29 26 27 24 26 30 34 35 38 46 46 45 40 36 41 52 50 44 54 57 64 58 66 74 87 87 86 72 70 72 74

GFSSW_sfc_rhum_120.txt.gz
RH
82 82 80 78 79 80 79 79 79 78 79 80 81 81 83 84 82 36 13 18 22 47 54 16 16 21 24 30 40 42 52 41 39 34 45 37 40 36 34 33 30 34 27 32 39
84 84 83 83 81 80 81 81 81 80 80 80 82 82 83 83 35 15 29 33 44 58 16 14 18 24 27 32 36 50 49 53 49 57 59 40 37 38 34 34 39 37 33 37 38
83 84 85 85 84 83 81 83 83 83 82 82 82 83 83 71 26 14 56 46 52 45 10 12 18 26 32 30 40 69 74 52 64 65 61 53 39 35 36 37 34 37 40 38 38
83 85 85 85 84 84 85 84 85 84 84 83 83 83 84 40 16 15 64 60 56 17 11 17 23 29 34 33 36 51 49 55 52 59 65 60 38 40 36 36 28 28 34 36 38
84 85 86 85 84 85 85 86 86 86 82 84 83 82 49 17 11 24 62 53 21 10 8 19 26 30 31 27 30 40 44 57 45 44 52 43 44 42 39 33 26 30 35 36 34
89 87 86 84 84 84 85 86 87 86 85 83 83 85 28 12 18 22 19 14 10 8 7 15 24 24 24 20 30 38 46 53 52 51 48 44 43 41 36 34 32 35 35 34 33
88 90 89 86 84 84 85 87 87 87 87 83 82 48 20 16 21 16 12 11 10 9 7 8 16 24 20 18 32 42 56 57 61 57 59 54 54 55 35 35 37 35 34 33 33
89 89 90 88 87 86 87 88 87 86 85 83 80 40 14 10 12 18 15 17 12 10 7 8 12 20 18 14 34 41 40 52 60 58 61 62 66 64 39 39 41 35 33 35 36
92 91 92 92 92 92 90 90 82 83 81 79 48 30 13 30 15 11 13 14 10 9 8 7 12 18 18 18 25 34 30 45 66 60 65 64 71 65 55 40 44 46 33 33 37
88 89 90 92 93 93 93 88 85 81 62 44 36 26 14 14 13 14 14 12 9 7 8 8 12 17 20 19 21 26 33 38 45 63 59 55 60 75 61 47 39 38 32 31 34
88 89 89 91 93 93 66 35 29 27 28 19 16 16 13 12 10 10 12 11 9 7 7 10 11 15 17 18 18 24 28 33 51 60 58 53 54 71 70 63 45 36 41 30 31
88 89 89 90 92 91 48 16 19 18 19 17 18 18 15 14 12 11 10 13 13 11 11 12 11 12 16 16 20 22 25 32 54 60 57 55 57 50 61 63 50 39 57 34 28
87 91 90 91 90 59 20 18 16 16 18 16 15 15 13 13 10 11 11 12 13 15 10 9 11 14 16 17 19 21 21 25 40 59 54 54 53 53 59 60 57 44 43 42 30
87 91 92 93 53 18 17 18 14 18 17 15 13 13 15 13 11 9 9 11 12 13 13 11 12 14 15 15 16 18 19 22 46 47 44 50 36 52 54 69 63 56 42 50 31
85 89 92 95 36 16 17 13 16 18 20 14 12 10 10 11 10 10 9 10 13 12 13 13 13 13 13 12 11 14 20 23 38 41 44 49 48 29 46 67 62 56 44 44 30
84 89 92 53 34 17 14 15 19 20 22 14 11 11 11 10 10 10 10 10 11 13 12 12 10 11 10 13 12 18 26 34 40 43 40 27 40 29 45 48 50 52 48 40 32
89 91 87 42 17 16 15 18 22 21 14 13 11 10 12 13 12 12 14 14 14 16 16 12 11 9 12 16 16 23 21 28 34 33 29 37 37 33 29 34 37 44 46 38 32
90 94 72 36 23 21 14 20 30 16 14 9 10 11 13 14 15 13 14 14 14 14 13 14 16 12 15 16 19 22 16 18 31 21 21 44 40 26 30 28 28 37 42 37 32
92 30 28 26 30 25 19 25 21 16 11 9 11 13 15 14 15 15 15 14 15 14 17 15 15 14 20 19 20 21 31 15 18 16 23 21 31 27 26 28 28 30 34 34 32
50 26 22 26 26 20 20 29 21 15 12 9 12 12 14 14 15 14 17 17 18 18 16 17 20 14 18 26 26 28 24 25 20 35 32 21 31 32 32 32 33 35 40 44 39
38 22 27 27 19 19 20 19 21 15 14 9 9 10 9 11 13 15 17 19 18 18 17 16 17 18 18 24 18 28 30 27 20 23 31 34 27 27 33 37 35 37 38 44 53
30 18 27 24 19 16 16 19 36 13 13 10 8 8 10 12 15 15 17 19 19 15 16 16 14 19 15 14 15 14 20 18 24 30 25 24 54 35 38 36 32 36 56 48 55
40 22 26 25 19 19 18 17 17 15 12 10 9 8 12 13 17 14 14 19 20 16 17 16 15 21 17 14 18 18 20 23 19 22 75 32 31 31 43 37 39 43 49 57 51
43 25 28 24 20 19 16 18 18 15 13 12 9 10 14 17 16 17 16 18 21 17 51 33 12 16 16 21 35 32 30 29 24 22 22 22 23 20 51 54 47 48 48 58 68
34 23 40 25 20 19 16 14 18 21 16 15 17 12 13 18 17 18 15 16 19 40 27 21 24 17 14 14 22 28 30 30 28 27 30 18 24 26 53 70 59 50 53 52 54
43 42 39 42 38 22 30 22 19 18 22 16 18 14 13 18 15 16 17 21 18 21 24 21 28 24 23 16 21 24 25 26 30 32 33 32 30 47 55 71 60 48 55 56 55
40 42 50 47 37 32 21 22 20 18 22 18 14 15 14 14 13 14 13 15 17 21 23 27 26 32 30 21 22 25 22 24 26 27 30 34 38 43 54 78 84 56 54 56 58

GFSSW_sfc_rhum_123.txt.gz
RH
83 83 83 83 82 81 81 81 81 80 80 80 81 82 83 84 85 38 14 18 20 39 46 12 12 17 21 23 27 31 51 73 42 42 37 32 32 28 23 25 24 24 23 26 27
82 83 83 84 84 83 83 82 82 82 82 82 81 83 83 85 36 13 30 39 36 48 16 12 14 19 22 23 36 38 72 53 42 42 46 39 32 30 28 26 28 26 27 28 28
82 82 83 83 83 83 84 84 84 83 83 83 82 83 84 69 27 15 48 44 49 48 13 9 10 20 24 23 34 46 62 39 39 45 56 53 35 28 28 37 25 29 32 29 29
85 84 84 83 82 82 84 84 84 85 85 83 84 83 84 40 18 20 58 57 55 19 8 10 14 23 25 30 27 43 41 41 38 44 52 52 55 33 32 46 23 25 27 28 30
86 88 88 85 84 83 83 84 85 86 85 84 83 83 49 21 12 26 67 48 16 11 7 12 18 21 24 22 24 42 39 46 39 36 41 40 44 56 33 27 21 24 27 28 30
86 86 89 88 87 84 83 85 86 84 86 84 82 85 35 14 14 17 13 12 7 6 5 11 16 19 20 19 24 36 32 39 38 38 40 36 41 45 29 27 24 26 26 25 29
86 88 88 90 88 86 86 87 87 84 85 85 81 46 18 17 13 11 8 6 5 5 6 8 14 20 17 17 24 27 38 46 52 48 50 36 48 45 32 28 29 26 25 24 26
86 87 88 89 90 89 91 90 88 88 83 83 80 37 14 12 12 12 10 10 8 6 6 5 12 16 16 14 23 26 28 46 44 48 51 59 67 54 41 33 31 31 24 25 29
86 87 88 88 89 90 93 91 86 80 81 77 52 29 12 19 10 9 10 11 8 6 6 5 10 14 16 15 19 23 32 36 46 45 47 52 90 77 68 40 38 40 24 24 30
85 89 87 89 89 90 93 89 82 81 66 35 25 21 9 12 9 9 8 10 7 6 6 6 11 16 15 14 18 18 21 22 38 48 48 48 56 55 66 57 71 34 30 24 27
87 86 87 88 90 92 65 33 32 31 22 15 12 13 10 9 8 9 9 9 8 6 6 6 8 12 11 13 12 17 21 22 32 44 46 44 45 50 48 56 47 50 38 23 26
86 87 87 90 92 92 51 17 15 13 14 10 10 10 8 8 10 9 8 9 9 7 6 8 8 7 8 12 14 15 18 21 33 40 44 37 42 37 50 48 37 75 38 27 25
90 87 90 90 91 57 15 15 11 12 16 11 10 10 9 8 8 9 8 10 10 10 9 8 7 8 12 13 13 14 16 18 24 40 38 39 40 39 38 46 40 46 49 26 25
88 86 89 93 55 13 13 13 10 12 18 12 11 10 10 10 10 7 8 9 10 11 9 8 8 12 12 12 11 13 12 15 20 35 38 42 35 39 37 44 46 39 43 31 28
89 88 90 94 36 14 13 9 10 14 24 11 10 8 8 10 9 9 7 9 11 9 10 10 11 11 11 10 9 11 11 14 18 25 26 28 37 24 29 45 46 41 35 39 30
88 90 92 48 33 15 10 9 14 18 20 13 9 10 9 8 9 9 9 8 9 10 9 10 8 8 8 8 8 8 13 16 20 23 30 21 26 23 34 37 38 39 39 41 28
87 88 83 39 19 9 9 13 18 18 12 12 10 8 9 10 10 10 11 11 12 15 14 10 10 8 7 10 11 10 13 21 25 23 23 22 22 21 29 30 27 34 38 40 37
89 90 65 30 17 15 13 17 26 14 12 8 8 8 10 10 10 10 11 11 10 10 10 12 13 9 8 10 13 12 12 16 29 19 40 26 26 26 42 21 20 24 30 36 36
90 26 24 18 20 14 15 19 18 14 9 8 8 10 11 10 11 12 12 11 11 11 16 13 12 9 11 10 10 15 17 10 14 12 14 25 27 19 26 21 22 24 29 38 36
51 25 18 14 14 14 15 21 13 11 8 7 10 10 13 11 12 11 13 11 12 13 11 14 18 10 10 11 14 14 31 24 14 26 28 18 23 25 31 23 24 27 31 34 37
46 22 19 13 12 14 15 13 12 12 10 9 8 10 9 10 10 12 12 13 13 14 13 12 14 15 14 16 16 16 17 26 24 26 32 26 33 78 26 28 30 31 30 29 32
30 19 18 13 13 12 13 11 20 13 9 8 7 7 8 9 11 10 13 14 13 12 14 13 12 16 13 12 10 14 24 20 19 31 39 34 48 49 24 20 32 40 32 38 34
33 22 18 13 13 10 12 10 12 14 11 9 8 7 8 10 14 11 11 13 14 12 14 13 15 15 14 10 12 13 12 12 20 22 34 32 30 43 40 19 27 34 43 57 43
35 24 20 18 14 13 14 14 15 12 11 9 8 7 10 12 12 14 12 11 12 10 49 24 11 14 12 13 15 21 18 31 37 20 24 22 26 43 42 35 28 32 43 55 67
33 23 26 23 16 14 16 13 15 16 12 10 12 9 11 16 14 15 12 11 12 36 17 14 20 15 11 9 9 11 28 56 64 37 20 21 32 29 62 42 54 42 44 58 74
42 39 35 31 30 16 21 17 12 13 15 14 15 11 10 15 15 15 14 16 16 16 18 14 24 20 19 12 11 11 15 46 38 22 32 22 25 37 42 55 59 44 48 52 51
44 33 41 42 27 25 19 17 15 12 13 14 14 14 13 11 10 10 9 10 12 15 17 20 20 23 25 15 19 21 15 21 21 16 40 37 26 71 50 67 77 75 51 75 48

GFSSW_sfc_rhum_126.txt.gz
RH
81 82 82 83 83 83 83 83 82 83 83 82 82 82 84 87 84 38 17 18 21 47 41 17 13 14 18 23 23 27 79 75 84 60 88 29 32 22 19 20 29 34 26 26 24
82 82 82 83 82 83 83 84 84 83 83 84 84 83 84 86 41 19 32 46 37 50 12 15 11 16 22 23 26 44 94 71 76 59 60 43 41 25 23 23 32 31 26 25 24
85 86 85 83 82 81 82 83 84 84 84 85 84 84 85 72 33 15 51 50 48 40 13 13 9 16 23 25 40 38 63 53 40 38 40 46 50 40 29 28 26 33 30 27 26
86 87 89 87 86 84 83 83 84 84 85 85 84 83 85 45 22 24 57 55 56 20 14 9 10 16 23 46 50 38 40 38 37 36 40 43 50 53 50 62 37 27 28 27 28
85 86 87 89 88 87 86 85 85 86 85 84 83 82 52 31 17 29 63 47 16 14 12 9 12 18 25 31 44 36 38 40 36 33 36 40 40 69 46 40 26 24 27 26 30
85 87 88 87 90 89 88 89 88 86 85 82 83 84 41 23 12 19 12 10 7 9 7 8 14 15 21 22 22 42 40 38 36 39 36 33 50 49 35 22 23 25 26 30 33
84 86 87 87 88 89 91 90 88 87 86 82 81 48 28 15 11 10 9 8 7 5 5 5 10 17 16 16 19 34 44 41 44 46 50 33 84 61 64 50 24 24 25 31 28
84 86 87 87 88 89 90 91 90 86 85 82 80 40 23 10 10 9 8 8 6 5 5 5 8 14 18 14 17 22 47 54 44 45 45 42 81 82 75 67 33 24 25 29 27
84 84 86 87 89 89 92 92 87 80 77 74 55 35 19 20 11 10 9 10 8 5 6 5 6 13 16 18 17 24 34 44 77 42 48 46 80 89 84 65 47 32 26 28 28
87 88 87 87 88 91 92 91 69 78 64 35 29 26 12 10 8 7 8 8 8 6 6 5 7 12 14 17 20 22 24 29 54 45 45 52 57 59 56 59 65 61 46 30 28
89 90 90 89 91 92 66 29 35 30 27 19 14 14 9 8 8 8 7 8 8 6 7 5 9 13 14 15 13 14 22 30 41 37 36 49 49 52 45 46 66 80 48 36 30
90 85 89 89 89 90 64 22 13 12 16 15 8 8 8 7 9 8 8 9 9 8 6 6 7 6 8 9 11 13 17 18 28 30 30 32 38 42 48 45 43 47 50 61 28
88 89 89 90 90 62 18 14 10 9 16 10 8 8 8 7 9 8 7 8 10 9 6 7 7 5 6 9 14 14 14 16 26 36 31 31 36 32 38 44 40 42 72 73 61
86 88 90 95 57 19 12 11 9 10 21 13 10 9 9 8 8 7 6 8 10 10 9 8 6 8 10 13 11 12 10 12 17 23 31 35 54 32 35 47 45 40 53 54 50
88 88 89 91 44 21 11 9 8 12 31 11 10 7 8 10 9 8 7 9 12 9 9 9 8 10 12 11 9 11 9 12 15 19 22 33 42 26 33 39 44 42 39 40 43
88 88 91 38 46 26 10 8 10 20 23 11 9 9 10 8 8 8 8 8 8 9 9 10 7 9 8 8 8 8 9 11 15 19 28 22 24 20 28 42 48 36 35 38 42
88 89 84 42 25 16 8 10 18 22 11 12 10 8 9 9 9 9 10 11 11 15 14 9 9 8 7 9 8 9 10 18 22 23 27 23 18 28 34 32 42 50 36 36 43
89 88 63 37 21 22 16 16 27 14 12 7 8 8 9 9 9 9 11 12 9 10 11 12 12 9 7 8 10 12 10 15 28 26 27 26 40 39 33 34 38 51 50 31 36
90 30 29 28 28 20 14 19 19 16 10 8 7 9 9 10 10 11 11 11 10 9 14 14 12 8 7 8 8 12 16 10 13 13 16 17 27 30 25 25 20 22 30 34 36
61 35 20 14 17 21 16 21 12 10 9 8 10 9 11 11 10 11 12 9 10 10 11 13 18 9 9 10 10 10 14 23 17 30 27 18 40 52 38 33 32 27 28 38 35
52 29 15 12 14 21 18 13 10 8 10 9 8 9 10 10 10 11 10 11 10 13 12 12 14 13 11 14 14 15 16 19 17 26 32 31 59 41 39 30 38 45 69 35 34
32 29 16 12 18 18 17 11 16 8 11 10 8 7 8 8 9 10 11 12 11 11 14 11 12 17 14 10 10 11 15 17 25 29 23 32 33 29 30 22 42 52 66 45 61
39 25 15 14 21 15 14 11 9 9 11 11 9 7 7 9 13 11 10 13 13 13 16 13 15 18 13 10 10 13 11 12 16 18 33 49 49 28 26 26 25 61 61 55 50
40 29 20 19 15 12 13 12 12 9 12 11 9 7 8 10 10 14 10 10 11 10 48 25 15 17 15 15 10 16 16 16 20 26 28 32 34 34 31 27 24 31 50 54 48
38 29 23 35 22 17 15 17 15 12 12 13 12 8 9 14 13 14 11 11 11 35 15 11 17 14 11 10 9 9 9 11 22 23 30 30 35 28 37 38 48 39 46 50 50
44 42 34 36 30 30 26 18 18 13 14 15 14 9 9 13 14 15 13 15 14 15 17 12 21 19 19 12 11 11 10 9 17 23 26 24 41 60 65 67 60 57 45 47 53
46 36 37 43 32 29 26 16 15 15 12 12 12 12 11 10 9 10 9 10 11 16 17 18 19 24 26 16 16 18 15 18 22 25 29 33 30 72 75 66 72 83 84 88 87

GFSSW_sfc_rhum_129.txt.gz
RH
84 84 84 84 83 83 84 84 85 85 84 85 86 88 88 90 87 51 33 24 29 46 48 14 19 16 18 21 27 78 95 93 87 80 64 42 37 27 28 34 31 34 35 34 40
87 88 88 87 86 84 84 84 84 84 85 86 86 86 88 90 65 34 31 47 49 44 13 14 21 17 22 24 34 84 92 83 66 68 63 42 46 50 32 34 37 36 31 31 30
85 86 87 88 89 87 87 85 85 85 85 86 86 86 87 86 58 23 53 50 51 42 13 14 16 16 20 32 60 55 86 62 55 56 48 48 52 48 37 46 36 38 33 31 34
84 86 86 88 89 90 89 88 87 87 86 86 85 85 87 74 40 22 58 55 53 24 17 18 14 16 18 55 52 61 47 60 46 45 46 55 59 48 45 52 34 32 31 32 36
85 86 86 87 88 89 90 91 91 89 87 85 83 84 78 58 30 35 64 53 23 18 20 18 14 16 22 48 56 64 40 46 42 37 39 46 44 62 55 36 30 30 31 33 38
84 86 86 88 88 89 89 90 90 88 86 84 82 83 82 41 21 30 25 19 13 15 15 14 10 12 20 27 43 46 37 42 42 42 38 40 57 47 70 53 36 32 34 35 37
82 83 85 87 88 88 89 90 90 88 87 85 80 60 44 33 17 23 13 13 11 10 12 8 7 13 18 24 34 36 48 49 50 52 53 48 63 79 61 60 59 32 33 36 37
87 88 88 86 87 89 90 93 91 86 86 82 78 61 52 19 16 11 12 11 10 8 7 8 8 13 20 20 24 44 47 79 92 69 54 52 98 83 58 65 63 53 35 36 39
89 90 90 90 90 89 92 92 89 82 76 77 81 69 39 24 16 14 12 11 9 8 8 6 8 12 14 25 32 26 52 72 82 63 56 58 94 80 67 65 77 56 41 34 37
91 87 87 90 90 92 92 91 71 78 76 49 39 48 31 13 12 11 12 11 12 8 9 10 10 14 19 29 37 29 39 42 65 61 54 60 73 72 70 73 81 44 57 47 38
87 90 90 90 90 92 88 42 54 54 43 34 34 26 13 11 9 11 9 11 12 12 13 9 13 19 17 16 20 22 35 52 57 49 58 61 67 72 66 75 73 63 55 56 40
87 87 88 89 88 88 90 37 26 18 23 19 21 16 10 10 11 9 10 14 14 18 11 13 12 10 11 12 16 16 24 49 49 41 40 58 57 61 62 65 68 63 44 52 50
90 89 89 89 87 84 42 25 15 15 25 17 16 12 10 10 10 11 11 12 14 15 11 12 10 6 6 8 11 19 24 26 48 40 37 45 48 55 60 52 57 52 47 60 57
90 89 88 93 63 41 31 18 14 13 35 22 13 10 10 10 12 8 8 11 13 15 12 10 7 7 8 12 16 26 15 14 41 50 47 43 73 45 58 66 54 56 50 56 51
90 89 91 93 63 46 25 19 12 17 50 15 12 9 10 13 10 10 8 10 14 14 15 15 10 13 17 14 14 16 12 15 21 28 32 44 62 52 56 69 64 54 52 62 48
90 90 91 55 70 50 33 28 15 35 39 15 12 13 14 13 11 10 10 11 11 13 13 12 10 12 13 11 10 10 13 17 20 30 47 33 53 52 60 66 61 56 55 54 44
90 90 89 57 46 21 25 25 35 38 16 14 15 11 12 14 11 12 12 14 19 25 23 14 12 13 10 13 12 12 18 32 41 41 48 30 42 60 46 56 53 56 54 47 46
92 90 80 58 51 43 37 33 42 20 17 14 11 10 13 12 12 11 14 16 14 16 19 21 19 12 10 14 19 16 17 29 39 41 39 28 54 60 43 45 56 56 50 45 41
90 49 43 41 47 39 49 42 31 23 14 13 9 14 13 11 15 14 15 16 13 13 38 28 21 9 9 9 11 14 26 18 23 24 29 39 52 41 37 40 48 54 52 50 46
86 59 41 23 30 38 51 42 20 13 11 12 17 12 16 14 15 20 18 13 14 14 16 22 28 12 9 11 13 14 18 37 43 46 51 56 66 71 51 54 53 66 73 53 46
72 50 25 20 26 44 48 30 16 11 10 13 15 14 12 13 14 15 15 13 13 15 18 34 33 24 15 19 20 21 28 33 34 40 57 57 71 50 52 48 64 74 79 68 58
48 50 21 18 40 40 38 28 29 12 10 10 12 14 13 13 18 18 20 18 12 15 21 27 23 34 24 15 12 18 22 29 44 44 52 54 60 40 42 46 58 71 72 73 67
65 46 26 21 34 30 23 19 17 15 12 11 14 13 11 15 22 15 18 16 14 17 28 23 33 36 24 17 15 21 23 48 32 37 56 56 61 38 38 42 53 70 74 68 63
62 51 36 35 28 29 27 20 17 12 11 10 12 14 15 19 19 24 20 14 13 17 46 30 26 33 34 28 18 18 14 17 35 43 47 46 47 47 45 68 63 64 72 59 67
60 48 39 47 43 39 36 36 26 19 16 13 20 15 16 23 22 20 20 16 13 42 20 18 29 30 20 14 15 16 15 15 18 39 40 39 45 76 74 60 60 79 86 74 66
66 63 49 50 42 41 41 39 30 17 18 20 23 17 14 26 21 23 18 25 26 25 24 19 31 37 33 19 17 16 14 14 15 24 32 34 61 76 72 68 66 86 90 94 94
55 54 59 62 46 42 41 37 35 33 36 29 18 19 18 15 13 14 16 18 22 27 30 34 36 50 44 30 25 30 34 29 28 30 38 44 48 83 67 66 90 90 90 89 87